[[{"header":{"parameterUnit":"m.s-1","parameterCategory":1,"la1":30.6,"la2":29.2853,"lo1":-89.7004,"lo2":-87.6739,"dy":0.0162,"dx":0.0183,"nx":112,"ny":82,"refTime":"2024-05-27T12:00:00:Z","depth":0,"parameterNumber":2,"parameterNumberName":"U-component_of_WINDS"},"data":[0.0,0.0,0.0,0.0,0.0,0.0,0.0,0.0,0.0,0.0,0.0,0.0,0.0,0.0,0.0,0.0,0.0,0.0,0.0,0.0,0.0,0.0,0.0,0.0,0.0,0.0,0.0,0.0,0.0,0.0,0.0,0.0,0.0,0.0,0.0,0.0,0.0,0.0,0.0,0.0,0.0,0.0,0.0,0.0,0.0,0.0,0.0,0.0,0.0,0.0,0.0,0.0,0.0,0.0,0.0,0.0,0.0,0.0,0.0,0.0,0.0,0.0,0.0,0.0,0.0,0.0,0.0,0.0,0.0,0.0,0.0,0.0,0.0,0.0,0.0,0.0,0.0,0.0,0.0,0.0,0.0,0.0,0.0,0.0,0.0,0.0,0.0,0.0,0.0,0.0,-2.0374,-2.2558,-2.4793,-2.6072,-2.598,-2.5593,-2.4326,-2.197,0.0,0.0,0.0,0.0,0.0,0.0,0.0,0.0,0.0,0.0,0.0,0.0,0.0,0.0,0.0,0.0,0.0,0.0,0.0,0.0,0.0,0.0,0.0,0.0,0.0,0.0,0.0,0.0,0.0,0.0,0.0,0.0,0.0,0.0,0.0,0.0,0.0,0.0,0.0,0.0,0.0,0.0,0.0,0.0,0.0,0.0,0.0,0.0,0.0,0.0,0.0,0.0,0.0,0.0,0.0,0.0,0.0,0.0,0.0,0.0,0.0,0.0,0.0,0.0,0.0,0.0,0.0,0.0,0.0,0.0,0.0,0.0,0.0,0.0,0.0,0.0,0.0,0.0,0.0,0.0,0.0,0.0,0.0,0.0,0.0,0.0,0.0,0.0,0.0,0.0,0.0,0.0,0.0,0.0,0.0,0.0,0.0,0.0,0.0,0.0,0.0,0.0,0.0,0.0,-1.9956,-2.4154,-2.579,-2.6379,-2.5863,-2.5363,-2.4278,-2.2414,0.0,0.0,0.0,0.0,0.0,0.0,0.0,0.0,0.0,0.0,0.0,0.0,0.0,0.0,0.0,0.0,0.0,0.0,0.0,0.0,0.0,0.0,0.0,0.0,0.0,0.0,0.0,0.0,0.0,0.0,0.0,0.0,0.0,0.0,0.0,0.0,0.0,0.0,0.0,0.0,0.0,0.0,0.0,0.0,0.0,0.0,0.0,0.0,0.0,0.0,0.0,0.0,0.0,0.0,0.0,0.0,0.0,0.0,0.0,0.0,0.0,0.0,0.0,0.0,0.0,0.0,0.0,0.0,0.0,0.0,0.0,0.0,0.0,0.0,0.0,0.0,0.0,0.0,0.0,0.0,0.0,0.0,0.0,0.0,0.0,0.0,0.0,0.0,0.0,0.0,0.0,0.0,0.0,0.0,0.0,0.0,0.0,0.0,0.0,0.0,0.0,0.0,0.0,-1.9915,-2.1721,-2.5079,-2.5903,-2.6112,-2.5806,-2.5301,-2.4259,-2.2519,-2.0342,0.0,0.0,0.0,0.0,0.0,0.0,0.0,0.0,0.0,0.0,0.0,0.0,0.0,0.0,0.0,0.0,0.0,0.0,0.0,0.0,0.0,0.0,0.0,0.0,0.0,0.0,0.0,0.0,0.0,0.0,0.0,0.0,0.0,0.0,0.0,0.0,0.0,0.0,0.0,0.0,0.0,0.0,0.0,0.0,0.0,0.0,0.0,0.0,0.0,0.0,0.0,0.0,0.0,0.0,0.0,0.0,0.0,0.0,0.0,0.0,0.0,0.0,0.0,0.0,0.0,0.0,0.0,0.0,0.0,0.0,0.0,0.0,0.0,0.0,0.0,0.0,0.0,0.0,0.0,0.0,0.0,0.0,0.0,0.0,0.0,0.0,0.0,0.0,0.0,0.0,0.0,0.0,0.0,0.0,0.0,0.0,0.0,0.0,0.0,0.0,0.0,0.0,-2.2086,-2.355,-2.5602,-2.6028,-2.608,-2.5819,-2.5171,-2.405,-2.2296,-1.9526,0.0,0.0,0.0,0.0,0.0,0.0,0.0,0.0,0.0,0.0,0.0,0.0,0.0,0.0,0.0,0.0,0.0,0.0,0.0,0.0,0.0,0.0,0.0,0.0,0.0,0.0,0.0,0.0,0.0,0.0,0.0,0.0,0.0,0.0,0.0,0.0,0.0,0.0,0.0,0.0,0.0,0.0,0.0,0.0,0.0,0.0,0.0,0.0,0.0,0.0,0.0,0.0,0.0,0.0,0.0,0.0,0.0,0.0,0.0,0.0,0.0,0.0,0.0,0.0,0.0,0.0,0.0,0.0,0.0,0.0,0.0,0.0,0.0,0.0,0.0,0.0,0.0,0.0,0.0,0.0,0.0,0.0,0.0,0.0,0.0,0.0,0.0,0.0,0.0,0.0,0.0,0.0,0.0,0.0,0.0,0.0,0.0,0.0,0.0,0.0,0.0,0.0,-2.2309,-2.4465,-2.5662,-2.6746,-2.6942,-2.5884,-2.4775,-2.3433,-2.1681,-1.8516,0.0,0.0,0.0,0.0,0.0,0.0,0.0,0.0,0.0,0.0,0.0,0.0,0.0,0.0,0.0,0.0,0.0,0.0,0.0,0.0,0.0,0.0,0.0,0.0,0.0,0.0,0.0,0.0,0.0,0.0,0.0,0.0,0.0,0.0,0.0,0.0,0.0,0.0,0.0,0.0,0.0,0.0,0.0,0.0,0.0,0.0,0.0,0.0,0.0,0.0,0.0,0.0,0.0,0.0,0.0,0.0,0.0,0.0,0.0,0.0,0.0,0.0,0.0,0.0,0.0,0.0,0.0,0.0,0.0,0.0,0.0,0.0,0.0,0.0,0.0,0.0,0.0,0.0,0.0,0.0,0.0,0.0,0.0,0.0,0.0,0.0,0.0,0.0,0.0,0.0,0.0,0.0,0.0,0.0,0.0,0.0,0.0,0.0,0.0,0.0,0.0,0.0,-2.193,-2.3744,0.0,-2.5775,-2.5768,-2.5801,-2.4317,-2.2885,-2.159,0.0,0.0,0.0,0.0,0.0,0.0,0.0,0.0,0.0,0.0,0.0,0.0,0.0,0.0,0.0,0.0,0.0,0.0,0.0,0.0,0.0,0.0,0.0,0.0,0.0,0.0,0.0,0.0,0.0,0.0,0.0,0.0,0.0,0.0,0.0,0.0,0.0,0.0,0.0,0.0,0.0,0.0,0.0,0.0,0.0,0.0,0.0,0.0,0.0,0.0,0.0,0.0,0.0,0.0,0.0,0.0,0.0,0.0,0.0,0.0,0.0,0.0,0.0,0.0,0.0,0.0,0.0,0.0,0.0,0.0,0.0,0.0,0.0,0.0,0.0,0.0,0.0,0.0,0.0,0.0,0.0,0.0,0.0,0.0,0.0,0.0,0.0,0.0,0.0,0.0,0.0,0.0,0.0,0.0,0.0,0.0,0.0,0.0,0.0,0.0,0.0,0.0,-2.0049,-2.1687,-2.3251,0.0,-2.4986,-2.4962,-2.5116,-2.3485,-2.196,-2.078,0.0,0.0,0.0,0.0,0.0,0.0,0.0,0.0,0.0,0.0,0.0,0.0,0.0,0.0,0.0,0.0,0.0,0.0,0.0,0.0,0.0,0.0,0.0,0.0,0.0,0.0,0.0,0.0,0.0,0.0,0.0,0.0,0.0,0.0,0.0,0.0,0.0,0.0,0.0,0.0,0.0,0.0,0.0,0.0,0.0,0.0,0.0,0.0,0.0,0.0,0.0,0.0,0.0,0.0,0.0,0.0,0.0,0.0,0.0,0.0,0.0,0.0,0.0,0.0,0.0,0.0,0.0,0.0,0.0,0.0,0.0,0.0,0.0,0.0,0.0,0.0,0.0,0.0,0.0,0.0,0.0,0.0,0.0,0.0,0.0,0.0,0.0,0.0,0.0,0.0,0.0,0.0,0.0,0.0,0.0,0.0,0.0,0.0,0.0,0.0,0.0,0.0,-1.9433,-2.1631,-2.3176,-2.3646,-2.4662,-2.4867,-2.3773,-2.2226,-2.0637,0.0,0.0,0.0,0.0,0.0,0.0,0.0,0.0,0.0,0.0,0.0,0.0,0.0,0.0,0.0,0.0,0.0,0.0,0.0,0.0,0.0,0.0,0.0,0.0,0.0,0.0,0.0,0.0,0.0,0.0,0.0,0.0,0.0,0.0,0.0,0.0,0.0,0.0,0.0,0.0,0.0,0.0,0.0,0.0,0.0,0.0,0.0,0.0,0.0,0.0,0.0,0.0,0.0,0.0,0.0,0.0,0.0,0.0,0.0,0.0,0.0,0.0,0.0,0.0,0.0,0.0,0.0,0.0,0.0,0.0,0.0,0.0,0.0,0.0,0.0,0.0,0.0,0.0,0.0,0.0,0.0,0.0,0.0,0.0,0.0,0.0,0.0,0.0,0.0,0.0,0.0,0.0,0.0,0.0,0.0,0.0,0.0,0.0,0.0,0.0,0.0,0.0,0.0,-1.9427,-2.1534,-2.3204,-2.41,-2.4331,-2.4249,-2.3739,-2.2086,-2.0486,-1.9092,0.0,0.0,0.0,0.0,0.0,0.0,0.0,0.0,0.0,0.0,0.0,0.0,0.0,0.0,0.0,0.0,0.0,0.0,0.0,0.0,0.0,0.0,0.0,0.0,0.0,0.0,0.0,0.0,0.0,0.0,0.0,0.0,0.0,0.0,0.0,0.0,0.0,0.0,0.0,0.0,0.0,0.0,0.0,0.0,0.0,0.0,0.0,0.0,0.0,0.0,0.0,0.0,0.0,0.0,0.0,0.0,0.0,0.0,0.0,0.0,0.0,0.0,0.0,0.0,0.0,0.0,0.0,0.0,0.0,0.0,0.0,0.0,0.0,0.0,0.0,0.0,0.0,0.0,0.0,0.0,0.0,0.0,0.0,0.0,0.0,0.0,0.0,0.0,0.0,0.0,0.0,0.0,0.0,0.0,0.0,0.0,0.0,0.0,0.0,0.0,0.0,0.0,-1.9042,-2.108,-2.2671,-2.3491,-2.3629,-2.3523,-2.3179,-2.1787,-2.0364,-1.898,0.0,0.0,0.0,0.0,0.0,0.0,0.0,0.0,0.0,0.0,0.0,0.0,0.0,0.0,0.0,0.0,0.0,0.0,0.0,0.0,0.0,0.0,0.0,0.0,0.0,0.0,0.0,0.0,0.0,0.0,0.0,0.0,0.0,0.0,0.0,0.0,0.0,0.0,0.0,0.0,0.0,0.0,0.0,0.0,0.0,0.0,0.0,0.0,0.0,0.0,0.0,0.0,0.0,0.0,0.0,0.0,0.0,0.0,0.0,0.0,0.0,0.0,0.0,0.0,0.0,0.0,0.0,0.0,0.0,0.0,0.0,0.0,0.0,0.0,0.0,0.0,0.0,0.0,0.0,0.0,0.0,0.0,0.0,0.0,0.0,0.0,0.0,0.0,0.0,0.0,0.0,0.0,0.0,0.0,0.0,0.0,0.0,0.0,0.0,0.0,0.0,0.0,-1.8521,-2.0463,-2.1868,-2.2316,-2.2761,-2.2815,-2.2321,-2.1428,-2.0271,-1.8785,0.0,0.0,0.0,0.0,0.0,0.0,0.0,0.0,0.0,0.0,0.0,0.0,0.0,0.0,0.0,0.0,0.0,0.0,0.0,0.0,0.0,0.0,0.0,0.0,0.0,0.0,0.0,0.0,0.0,0.0,0.0,0.0,0.0,0.0,0.0,0.0,0.0,0.0,0.0,0.0,0.0,0.0,0.0,0.0,0.0,0.0,0.0,0.0,0.0,0.0,0.0,0.0,0.0,0.0,0.0,0.0,0.0,0.0,0.0,0.0,-1.7415,0.0,0.0,0.0,0.0,0.0,0.0,0.0,0.0,0.0,0.0,0.0,0.0,0.0,0.0,0.0,0.0,0.0,0.0,0.0,0.0,0.0,0.0,0.0,0.0,0.0,0.0,0.0,0.0,0.0,0.0,0.0,0.0,0.0,0.0,0.0,0.0,0.0,0.0,0.0,0.0,0.0,-1.8959,-2.0632,-2.1941,-2.275,-2.2936,-2.2815,-2.2321,-2.1428,-2.0271,-1.8785,-1.7307,0.0,0.0,0.0,0.0,0.0,0.0,0.0,0.0,0.0,0.0,0.0,0.0,0.0,0.0,0.0,0.0,0.0,0.0,0.0,0.0,0.0,0.0,0.0,0.0,0.0,0.0,0.0,0.0,0.0,0.0,0.0,0.0,0.0,0.0,0.0,0.0,0.0,0.0,0.0,0.0,0.0,0.0,0.0,0.0,0.0,0.0,0.0,0.0,0.0,0.0,0.0,0.0,0.0,0.0,0.0,0.0,0.0,0.0,0.0,0.0,-1.9263,0.0,0.0,0.0,0.0,0.0,0.0,0.0,0.0,0.0,0.0,0.0,0.0,0.0,0.0,0.0,0.0,0.0,0.0,0.0,0.0,0.0,0.0,0.0,0.0,0.0,0.0,0.0,0.0,0.0,0.0,0.0,0.0,0.0,0.0,0.0,0.0,0.0,0.0,0.0,0.0,-1.9104,-2.0686,-2.1953,-2.2903,-2.3001,-2.2903,-2.2663,-2.1974,-2.1035,-1.9844,-1.8359,0.0,0.0,0.0,0.0,0.0,0.0,0.0,0.0,0.0,0.0,0.0,0.0,0.0,0.0,0.0,0.0,0.0,0.0,0.0,0.0,0.0,0.0,0.0,0.0,0.0,0.0,0.0,0.0,0.0,0.0,0.0,0.0,0.0,0.0,0.0,0.0,0.0,0.0,0.0,0.0,0.0,0.0,0.0,0.0,0.0,0.0,0.0,0.0,0.0,0.0,0.0,0.0,0.0,-2.2775,-2.3277,-2.4001,-2.4611,-2.5168,-2.5493,-2.2984,-2.2419,-2.31,0.0,0.0,0.0,0.0,0.0,0.0,0.0,0.0,0.0,0.0,0.0,0.0,0.0,0.0,0.0,0.0,0.0,0.0,0.0,0.0,0.0,0.0,0.0,0.0,0.0,-2.3871,-2.2754,0.0,0.0,0.0,0.0,0.0,0.0,0.0,0.0,0.0,0.0,0.0,0.0,-1.9419,-2.0871,-2.204,-2.2903,-2.3001,-2.3001,-2.3001,-2.2586,-2.1942,-2.108,-1.9703,-1.8359,0.0,0.0,0.0,0.0,0.0,0.0,0.0,0.0,0.0,0.0,0.0,0.0,0.0,0.0,0.0,0.0,0.0,0.0,0.0,0.0,0.0,0.0,0.0,0.0,0.0,0.0,0.0,0.0,0.0,0.0,0.0,0.0,-1.2521,-1.4267,0.0,0.0,0.0,0.0,0.0,0.0,0.0,0.0,0.0,0.0,0.0,0.0,0.0,0.0,-2.4622,-2.501,-2.5395,-2.5799,-2.7072,-2.7492,-2.7135,-2.7732,-2.8044,-2.8098,-2.7691,0.0,-2.5374,-2.4055,0.0,0.0,0.0,0.0,0.0,0.0,0.0,0.0,0.0,0.0,0.0,0.0,0.0,0.0,0.0,0.0,0.0,0.0,0.0,0.0,0.0,0.0,-2.4961,-2.5227,-2.5324,-2.4829,0.0,-2.1083,-1.9169,-1.7267,0.0,0.0,0.0,0.0,0.0,0.0,0.0,0.0,-2.0457,-2.1581,-2.2422,-2.2947,-2.3001,-2.3001,-2.3001,-2.2586,-2.2084,-2.1527,-2.0522,-1.9649,-1.9028,-1.7327,0.0,0.0,0.0,0.0,0.0,0.0,0.0,0.0,0.0,0.0,0.0,0.0,0.0,0.0,0.0,0.0,0.0,0.0,0.0,0.0,0.0,0.0,0.0,0.0,0.0,0.0,0.0,0.0,0.0,-1.2955,-1.439,-1.5487,-1.6221,-1.6415,0.0,0.0,0.0,0.0,0.0,0.0,0.0,0.0,0.0,-2.3878,-2.4482,-2.5481,-2.6917,-2.7396,-2.7964,-2.8662,-2.929,-2.9821,-3.0228,-3.0486,-3.0819,-3.1145,-3.1145,-3.0684,-2.976,-2.7176,-2.5982,-2.5641,0.0,0.0,0.0,0.0,0.0,-2.2256,-2.2484,0.0,0.0,0.0,0.0,0.0,0.0,0.0,0.0,0.0,0.0,0.0,0.0,0.0,0.0,-2.7944,-2.7998,-2.7656,-2.6822,-2.5069,-2.2775,0.0,-1.9549,-1.9069,-1.7071,0.0,0.0,0.0,0.0,-1.978,-2.1461,-2.228,-2.2881,-2.3362,-2.3367,-2.3296,-2.3023,-2.2815,-2.2499,-2.2029,-2.1341,-2.0587,-1.9824,-1.8711,-1.7512,0.0,0.0,0.0,0.0,0.0,0.0,0.0,0.0,0.0,0.0,0.0,0.0,0.0,0.0,0.0,0.0,0.0,0.0,0.0,0.0,0.0,0.0,0.0,0.0,0.0,0.0,0.0,0.0,-1.4962,-1.6408,-1.7111,-1.8248,-1.8681,0.0,0.0,0.0,0.0,0.0,0.0,-2.3479,-2.4481,-2.5591,-2.6745,-2.7575,-2.8449,-2.9393,-2.9824,-3.0426,-3.1237,-3.1281,-3.1775,-3.263,-3.263,-3.2874,-3.3295,-3.3295,-3.3295,-3.3064,-3.0079,-2.8763,-2.8573,-2.7976,-2.7295,-2.6648,-2.6486,-2.6039,-2.5583,-2.6098,-2.6715,-2.7251,-2.6917,0.0,-2.638,-2.4611,0.0,0.0,0.0,0.0,-2.5884,-2.7892,0.0,-2.9523,-3.0542,-3.0623,-3.0291,-2.958,-2.8198,-2.6112,0.0,-2.2064,-2.1494,-1.9462,0.0,0.0,0.0,0.0,-2.1154,-2.2473,-2.3088,-2.3525,-2.3886,-2.3771,-2.3542,-2.322,-2.3078,-2.2859,-2.251,-2.192,-2.1265,-2.0511,-1.978,-1.8646,-1.7103,0.0,0.0,0.0,0.0,0.0,0.0,0.0,0.0,0.0,0.0,0.0,0.0,0.0,0.0,0.0,0.0,0.0,0.0,0.0,0.0,0.0,0.0,0.0,0.0,0.0,0.0,0.0,0.0,0.0,-2.0061,-2.1199,0.0,0.0,0.0,0.0,-2.2955,-2.4804,-2.6125,-2.6568,-2.7409,-2.8457,-2.9734,-3.0078,-3.1131,-3.2933,-3.29,-3.3096,-3.3445,-3.3612,-3.3772,-3.3813,-3.3813,-3.384,-3.3867,-3.3867,-3.3867,-3.3758,-3.2494,-3.1626,-3.1056,-3.0459,-2.9728,-2.9013,-2.9013,-2.8779,-2.8463,-2.8237,-2.8481,-2.9036,-3.0093,-2.9855,-2.8812,-2.7067,-2.6515,0.0,0.0,-2.7773,-2.9291,-3.0503,-3.1235,-3.1784,-3.2424,-3.2541,-3.2161,-3.0794,-2.9779,-2.8283,0.0,-2.4149,-2.3258,-2.228,0.0,-2.1592,-2.204,-2.2124,-2.2528,-2.3498,-2.4104,-2.4421,-2.4454,-2.4017,-2.3684,-2.3662,-2.3263,-2.299,-2.2968,-2.2106,-2.157,-2.1516,-2.0161,-1.9146,-1.8589,-1.7202,0.0,0.0,0.0,0.0,0.0,0.0,0.0,0.0,0.0,0.0,0.0,0.0,0.0,0.0,0.0,0.0,0.0,0.0,0.0,0.0,0.0,0.0,0.0,0.0,0.0,0.0,0.0,0.0,-2.2079,-2.3243,0.0,-2.396,-2.4898,-2.5836,-2.6694,-2.757,-2.8547,-2.9715,-2.9804,-3.0519,-3.1949,-3.2078,-3.2604,-3.3645,-3.3639,-3.3862,-3.4358,-3.4446,-3.468,-3.5046,-3.5046,-3.5046,-3.5046,-3.5046,-3.5046,-3.5019,-3.4624,-3.3878,-3.2945,-3.2742,-3.2486,-3.2198,-3.2123,-3.2031,-3.1885,-3.1654,-3.1669,-3.1824,-3.172,-3.1303,-3.074,-2.9749,-2.9457,-2.9526,-2.9868,-3.0446,-3.1104,-3.1875,-3.2241,-3.2437,-3.2646,-3.2685,-3.2554,-3.2069,-3.0776,-2.9535,-2.8763,-2.6482,-2.4257,-2.2979,-2.3143,-2.3296,-2.2826,-2.3307,-2.3951,-2.4574,-2.4814,-2.4964,-2.4964,-2.4497,-2.4093,-2.3716,-2.3274,-2.2881,-2.2575,-2.2248,-2.1778,-2.1179,-2.0654,-1.9823,-1.8709,-1.789,-1.6612,0.0,0.0,0.0,0.0,0.0,0.0,0.0,0.0,0.0,0.0,0.0,0.0,0.0,0.0,0.0,0.0,0.0,0.0,0.0,0.0,0.0,0.0,0.0,0.0,0.0,0.0,-2.3213,-2.4176,-2.5252,-2.6077,-2.647,-2.7345,-2.8298,-2.9348,-2.9964,-3.0848,-3.2061,-3.1957,-3.2427,-3.3607,-3.3661,-3.3946,-3.4504,-3.4504,-3.4707,-3.5087,-3.5087,-3.529,-3.571,-3.571,-3.571,-3.571,-3.571,-3.571,-3.571,-3.571,-3.5209,-3.4504,-3.4504,-3.4504,-3.4504,-3.4386,-3.4386,-3.4361,-3.4164,-3.4046,-3.3833,-3.3091,-3.2711,-3.2398,-3.1847,-3.1638,-3.164,-3.198,-3.2241,-3.2515,-3.2894,-3.313,-3.326,-3.326,-3.326,-3.3221,-3.3038,-3.1842,-3.0802,-3.0854,-2.8273,-2.5732,-2.4626,-2.4798,-2.4886,-2.4088,-2.4399,-2.4891,-2.5401,-2.5456,-2.5456,-2.5456,-2.504,-2.4519,-2.4028,-2.3383,-2.287,-2.2575,-2.2095,-2.1614,-2.1157,-2.0675,-1.9845,-1.8709,-1.8075,-1.7125,-1.5836,0.0,0.0,0.0,0.0,0.0,0.0,0.0,0.0,0.0,0.0,0.0,0.0,0.0,0.0,0.0,0.0,0.0,0.0,0.0,0.0,0.0,0.0,0.0,-2.3178,-2.4213,-2.5407,-2.6381,-2.728,-2.7827,-2.7841,-2.9224,-3.0356,-3.0963,-3.2089,-3.304,-3.3634,-3.3813,-3.4206,-3.4802,-3.4816,-3.51,-3.571,-3.571,-3.571,-3.571,-3.571,-3.571,-3.571,-3.571,-3.571,-3.571,-3.571,-3.571,-3.571,-3.571,-3.571,-3.571,-3.571,-3.571,-3.571,-3.571,-3.571,-3.5669,-3.548,-3.5277,-3.502,-3.442,-3.4086,-3.3819,-3.3225,-3.2896,-3.2738,-3.2738,-3.3169,-3.3626,-3.3654,-3.4005,-3.4397,-3.4397,-3.4397,-3.4254,-3.3731,-3.2918,-3.2147,-3.1556,-2.9587,-2.787,-2.7341,-2.676,-2.6308,-2.5944,-2.5491,0.0,-2.5841,-2.5895,-2.5895,-2.5895,-2.5459,-2.5029,-2.453,-2.3591,-2.3001,-2.2957,-2.1682,-2.1124,-2.1549,-2.0216,-1.9233,-1.8742,-1.7831,-1.735,-1.7328,0.0,0.0,0.0,0.0,0.0,0.0,0.0,0.0,0.0,0.0,0.0,0.0,0.0,0.0,0.0,0.0,0.0,0.0,0.0,0.0,0.0,0.0,-2.6779,-2.5175,-2.668,-2.8048,-2.8304,-2.9738,-3.0754,-3.0942,-3.1954,-3.2869,-3.3454,-3.3827,-3.4282,-3.4875,-3.4683,-3.4816,-3.5412,-3.5425,-3.5547,-3.571,-3.571,-3.571,-3.571,-3.571,-3.571,-3.571,-3.571,-3.571,-3.571,-3.571,-3.571,-3.571,-3.571,-3.571,-3.571,-3.571,-3.571,-3.571,-3.571,-3.571,-3.5669,-3.5642,-3.548,-3.5291,-3.513,-3.4846,-3.4533,-3.4361,-3.4145,-3.3968,-3.4158,-3.4181,-3.4217,-3.4395,-3.443,-3.4397,-3.4397,-3.4397,-3.4358,-3.4201,-3.3469,-3.2828,-3.297,-3.1879,-3.0283,-2.8131,-2.7329,-2.6728,-2.5999,-2.5786,0.0,-2.5884,-2.5895,-2.5895,-2.5895,-2.5459,-2.5029,-2.453,-2.3897,-2.3078,-2.204,-2.1603,-2.1321,-2.1102,-2.0708,-2.0238,-1.9725,-1.8796,-1.8141,0.0,0.0,0.0,0.0,0.0,0.0,0.0,0.0,0.0,0.0,0.0,0.0,0.0,0.0,0.0,0.0,0.0,0.0,0.0,0.0,0.0,0.0,-2.8446,-2.9813,-2.8889,-2.9623,-3.0332,-3.0656,-3.1732,-3.259,-3.3013,-3.3643,-3.425,-3.4886,-3.4736,-3.4881,-3.5483,-3.5313,-3.5317,-3.571,-3.571,-3.571,-3.571,-3.571,-3.571,-3.571,-3.571,-3.571,-3.571,-3.571,-3.571,0.0,-3.571,-3.571,-3.571,-3.571,-3.571,0.0,0.0,0.0,0.0,0.0,-3.571,-3.571,-3.571,-3.5642,-3.5521,-3.5521,-3.5236,-3.4921,-3.4921,-3.4743,-3.4577,-3.4756,-3.4714,-3.4577,-3.4756,-3.4577,-3.4397,-3.4397,-3.4397,-3.4397,-3.4397,-3.3953,-3.3652,-3.3897,0.0,0.0,-2.9569,-2.8756,-2.7902,-2.6392,-2.6201,-2.6136,0.0,-2.5895,-2.5895,-2.5895,-2.5644,-2.5284,-2.4814,-2.4137,0.0,0.0,0.0,-2.1408,-2.0916,-2.0894,0.0,0.0,0.0,0.0,0.0,0.0,0.0,0.0,-1.9763,-2.0017,0.0,0.0,0.0,0.0,0.0,0.0,0.0,0.0,0.0,0.0,0.0,0.0,0.0,0.0,0.0,0.0,-3.0774,-3.2741,-3.3184,-3.2751,-3.2545,-3.2949,-3.335,-3.379,-3.4373,-3.465,-3.5021,-3.556,-3.5172,-3.5127,-3.5683,0.0,0.0,0.0,0.0,-3.5818,-3.5818,-3.5886,-3.5913,-3.5913,-3.5913,-3.5913,-3.5913,-3.5913,-3.5913,-3.5913,-3.5913,-3.5913,-3.5913,-3.5913,-3.5913,-3.5913,-3.5764,-3.571,-3.571,-3.571,-3.571,0.0,0.0,0.0,0.0,-3.571,-3.544,-3.5127,-3.5127,-3.5003,-3.4839,-3.4839,-3.4839,-3.4797,-3.4839,-3.4618,-3.4397,-3.4397,-3.4397,-3.4397,-3.4397,-3.4397,-3.4397,-3.4397,-3.3303,-3.2097,-3.1302,-3.041,-2.9143,-2.7017,-2.6617,0.0,-2.6037,-2.5928,-2.5895,-2.5895,0.0,0.0,-2.5248,-2.4377,-2.3782,-2.3618,-2.24,-2.1472,-2.108,-2.1113,-2.1113,-2.1058,-2.1113,-2.1343,-2.1745,-2.2641,-2.2903,-2.2531,-2.1208,-2.1183,0.0,0.0,0.0,0.0,0.0,0.0,0.0,0.0,0.0,0.0,0.0,0.0,0.0,0.0,0.0,-3.1597,-3.3255,-3.4367,-3.4783,-3.5457,-3.5338,-3.3819,-3.4583,-3.5378,-3.5719,-3.5944,-3.6087,-3.6212,-3.5801,-3.5601,-3.571,-3.571,0.0,-3.571,-3.6171,-3.6429,-3.6429,-3.6931,-3.7133,-3.7133,0.0,0.0,-3.7133,-3.7133,-3.7133,-3.7133,-3.7133,-3.7133,-3.7133,-3.7133,-3.7133,-3.7038,-3.6103,-3.571,-3.571,-3.571,-3.571,-3.571,-3.571,-3.571,-3.571,-3.571,-3.5562,-3.5358,-3.5358,-3.5195,0.0,-3.5236,-3.5044,-3.4839,-3.5003,-3.4743,-3.4397,-3.4397,-3.4397,-3.4397,-3.4397,-3.4397,-3.4397,-3.4397,-3.4181,-3.3672,-3.2744,-3.051,-2.8459,-2.736,-2.6824,-2.6551,-2.6464,-2.6147,-2.5895,-2.5895,-2.5895,-2.5699,-2.5248,-2.504,-2.4388,-2.322,-2.2531,-2.2127,-2.204,-2.239,-2.2411,-2.2051,-2.24,-2.263,-2.2728,-2.3307,-2.3755,-2.4061,-2.3787,-2.3542,0.0,0.0,0.0,0.0,0.0,0.0,0.0,0.0,0.0,0.0,0.0,-2.5986,0.0,0.0,-3.156,-3.3577,-3.5353,-3.6441,-3.6322,-3.694,-3.6708,-3.4833,-3.5726,-3.6472,-3.6429,-3.6603,-3.6628,-3.6445,-3.5978,-3.571,-3.571,-3.5995,-3.6157,-3.6157,-3.6754,-3.7066,-3.7066,-3.7336,-3.7485,-3.7485,-3.7485,-3.7485,-3.7485,-3.7485,-3.7485,-3.7485,-3.7485,-3.7485,-3.7485,-3.7485,-3.7485,-3.7431,-3.6821,-3.6442,-3.6157,-3.6157,-3.5967,-3.571,-3.571,-3.571,-3.571,-3.571,-3.5562,-3.5399,-3.5399,-3.5318,-3.5277,-3.5358,-3.5195,-3.4962,-3.5086,-3.4743,-3.4397,-3.4397,-3.4397,-3.4397,-3.4397,-3.4397,-3.4397,-3.4397,-3.4008,-3.356,-3.3079,-3.1404,-2.9715,-2.8575,-2.7568,-2.6889,-2.6617,-2.6201,-2.5895,-2.5895,-2.5895,-2.5808,-2.5557,-2.5357,-2.481,-2.3809,-2.3536,-2.3405,-2.3405,-2.3624,-2.3635,-2.3416,-2.3624,-2.3744,-2.3744,-2.4224,-2.4585,-2.4847,-2.5338,-2.5295,0.0,0.0,0.0,0.0,0.0,0.0,0.0,-2.4154,-2.5133,-2.7126,-2.7646,-2.8289,-3.0163,-3.194,-3.3512,-3.4723,-3.6717,-3.7918,-3.7307,-3.773,-3.7511,-3.5968,-3.6678,-3.7199,-3.6891,-3.6929,-3.6836,-3.6431,-3.5978,-3.5764,-3.5886,-3.6347,-3.6659,-3.6782,-3.7336,-3.7662,-3.7662,-3.777,-3.7838,-3.7838,-3.7838,-3.7838,-3.7838,-3.7838,-3.7838,-3.7838,-3.7838,-3.7838,-3.7838,-3.7838,-3.7838,-3.7838,-3.7838,-3.7501,-3.6944,-3.6822,-3.6483,-3.6076,-3.6076,-3.5981,-3.5886,-3.5886,-3.5697,-3.5453,-3.5305,-3.5265,-3.5238,-3.513,-3.5022,-3.4912,-3.4912,-3.465,-3.4397,-3.4397,-3.4397,-3.4397,-3.4397,-3.4397,-3.4397,-3.4397,-3.3784,-3.325,-3.325,-3.2506,-3.1444,-3.0129,-2.8808,-2.7755,-2.7105,-2.6576,-2.6203,-2.5906,-2.5895,-2.5895,-2.5895,-2.5448,-2.5051,-2.465,-2.4541,-2.4486,-2.4486,-2.4486,-2.4486,-2.4486,-2.4574,-2.4618,-2.4628,-2.5128,-2.5357,-2.5379,-2.6223,-2.642,-1.9612,-1.9608,-2.0549,-2.275,-2.2871,-2.3543,0.0,-2.8493,-2.8921,-3.1171,-3.151,-3.167,-3.2513,-3.2999,-3.372,-3.5102,-3.6587,-3.7445,-3.7016,-3.8004,-3.8362,-3.723,-3.7215,-3.7335,-3.7506,-3.7183,-3.6836,-3.6431,-3.5978,-3.594,-3.6469,-3.6564,-3.6849,-3.7363,-3.796,-3.8315,-3.8315,-3.8844,-3.9102,-3.9102,-3.9102,-3.9102,-3.9102,-3.9102,-3.9102,-3.9102,-3.9102,-3.9102,-3.9102,-3.9102,-3.9102,-3.9102,-3.9102,-3.8735,-3.8152,-3.758,-3.735,-3.7296,-3.7296,-3.6971,-3.6497,-3.6497,-3.6103,-3.5574,-3.502,-3.4857,-3.4749,-3.4221,-3.4177,-3.4313,-3.4313,-3.436,-3.4397,-3.4397,-3.4397,-3.4397,-3.4397,-3.4397,-3.4397,-3.4397,-3.4314,-3.4259,-3.4259,-3.3462,-3.2525,-3.1504,-3.0886,-3.0028,-2.8643,-2.8042,-2.7281,-2.6023,-2.5895,-2.5895,-2.5895,-2.5448,-2.5193,-2.5139,-2.4716,-2.4486,-2.4486,-2.4486,-2.4486,-2.4486,-2.4931,-2.5139,-2.5139,-2.5579,-2.5819,-2.583,-2.6376,-2.6562,-2.1845,-2.1749,-2.2181,-2.4043,-2.5249,-2.6747,-2.9558,-3.0725,-3.1762,-3.3613,-3.3671,-3.3537,-3.3961,-3.4689,-3.5262,0.0,-3.739,-3.8606,-3.756,-3.8626,-3.9088,-3.7973,-3.7825,-3.7665,-3.7275,-3.7109,-3.6719,-3.6058,-3.613,-3.6334,-3.6592,-3.727,-3.7772,-3.8043,-3.8627,-3.8925,-3.8925,-3.9169,-3.9305,-3.9305,-3.9305,-3.9305,-3.9305,-3.9305,-3.9305,-3.9305,-3.9305,-3.9305,-3.9305,-3.9305,-3.9305,-3.9305,-3.9305,-3.9156,-3.8857,-3.8274,-3.7783,-3.7485,-3.7485,-3.7323,-3.7134,-3.7134,-3.6727,-3.6117,-3.5533,-3.5073,-3.4666,-3.407,-3.3813,-3.3687,-3.3687,-3.3542,-3.3404,-3.3404,-3.3679,-3.3927,-3.3927,-3.4175,-3.4397,-3.4397,-3.3953,-3.3602,-3.3602,-3.2809,-3.2059,-3.1665,-3.1187,-3.0369,-2.8884,-2.8291,-2.7463,-2.6065,-2.5895,-2.5895,-2.5895,-2.571,-2.56,-2.56,-2.5415,-2.5306,-2.5306,-2.5306,-2.5306,-2.5306,-2.5502,-2.56,-2.56,-2.5797,-2.6048,-2.6343,-2.6813,-2.7129,-2.3661,-2.3632,-2.3863,-2.5779,-2.7644,-2.9489,-3.1231,-3.261,-3.3904,-3.5232,-3.51,-3.4757,-3.4788,-3.5703,-3.6297,-3.5772,-3.8023,-3.9503,-3.8478,-3.923,-3.955,-3.856,-3.8315,-3.7901,-3.707,-3.6978,-3.6626,-3.575,-3.6266,-3.6673,-3.6849,-3.7853,-3.8491,-3.8654,-3.9074,-3.9305,-3.9305,-3.9305,-3.9305,-3.9305,-3.9305,-3.9305,-3.9305,-3.9305,-3.9305,-3.9305,-3.9305,-3.9305,-3.9305,-3.9305,-3.9305,-3.9305,-3.9305,-3.9305,-3.9251,-3.8817,-3.8383,-3.7987,-3.7987,-3.7878,-3.7743,-3.7743,-3.7323,-3.6714,-3.594,-3.5371,-3.4843,-3.3883,-3.3451,-3.3261,-3.3023,-3.2843,-3.2685,-3.2765,-3.3105,-3.346,-3.3513,-3.3815,-3.405,-3.3886,-3.3184,-3.2621,-3.2602,-3.1938,-3.1464,-3.1597,-3.1525,-3.096,-2.9492,-2.8541,-2.7463,-2.6065,-2.5895,-2.5895,-2.5895,-2.5895,-2.5895,-2.5895,-2.5895,-2.5895,-2.5895,-2.5895,-2.5895,-2.5895,-2.5895,-2.5895,-2.5895,-2.6037,-2.6289,-2.6595,-2.7195,-2.7664,-2.5277,-2.5425,-2.5893,-2.8676,-3.0006,-3.1214,-3.3492,-3.4576,-3.5335,-3.6111,-3.5885,-3.5402,-3.4887,-3.5509,-3.6173,-3.6337,-3.8144,-3.9534,-3.9623,-3.9811,-3.9692,-3.9126,-3.8575,-3.7901,0.0,-3.6978,-3.6626,-3.575,-3.6266,-3.6863,-3.7431,-3.8041,-3.8681,-3.9251,-3.9292,-3.9305,-3.9305,-3.9305,-3.9305,-3.9305,-3.9305,-3.9305,-3.9305,-3.9305,-3.9305,-3.9305,-3.9305,-3.9305,-3.9305,-3.9305,-3.9305,-3.9305,-3.9305,-3.9305,-3.9305,-3.9278,-3.9264,-3.9251,-3.9251,-3.8871,-3.8383,-3.8383,-3.7946,-3.7241,-3.6076,-3.571,-3.529,-3.3351,-3.3066,-3.3129,-3.234,-3.2423,-3.2765,-3.2962,-3.3001,-3.3067,-3.3289,-3.3302,-3.3159,-3.2565,-3.206,-3.1713,-3.1556,-3.1186,-3.1055,-3.1548,-3.2352,-3.2425,-3.0996,-2.9155,-2.7463,-2.6065,-2.5895,-2.5895,-2.5895,-2.5895,-2.5895,-2.5895,-2.5895,-2.5895,-2.5895,-2.5895,-2.5895,-2.5895,-2.5895,-2.5895,-2.5895,-2.6376,-2.6573,-2.6606,-2.7544,-2.798,-2.593,-2.7188,-2.8761,-3.0257,-3.181,-3.3285,-3.4545,-3.5387,-3.6008,-3.6249,-3.5799,-3.5231,-3.4875,-3.4996,-3.5307,-3.5677,-3.748,-3.8889,-3.9018,-3.9516,-3.9692,-3.9162,-3.8329,0.0,0.0,0.0,0.0,-3.575,-3.6646,-3.7268,-3.7485,-3.8464,-3.9102,-3.9292,-3.9305,-3.9305,-3.9305,-3.9305,-3.9305,-3.9305,-3.9305,-3.9305,-3.9305,-3.9305,-3.9305,-3.9305,-3.9305,-3.9305,-3.9305,-3.9305,-3.9305,-3.9305,-3.9305,-3.9305,-3.9305,-3.9305,-3.9305,-3.9305,-3.9305,-3.9169,-3.9007,-3.9007,-3.86,-3.7975,-3.7119,-3.6632,-3.5967,-3.456,-3.4107,-3.387,-3.2816,-3.257,-3.247,-3.2162,-3.2334,-3.2613,-3.2703,-3.3022,-3.3014,-3.2129,-3.1323,-3.0538,-2.9775,-2.9816,-3.0565,-3.2247,-3.1994,-3.1455,-3.0984,-2.9209,-2.7588,-2.6483,-2.6092,-2.5895,-2.5895,-2.5895,-2.5895,-2.5895,-2.5895,-2.5895,-2.5895,-2.5895,-2.5895,-2.5895,-2.5895,-2.6059,-2.6344,-2.6508,-2.6911,-2.7533,-2.7849,-2.8211,-2.7598,-2.9273,-3.1022,-3.2175,-3.3576,-3.4792,-3.5117,-3.5559,-3.5904,-3.5904,-3.5198,-3.4449,-3.4093,-3.4049,-3.4389,-3.5249,-3.6943,-3.8432,-3.9262,-3.9853,-4.0025,-3.9436,-3.8523,-3.7758,0.0,0.0,0.0,-3.575,-3.6808,-3.7485,-3.7485,-3.8654,-3.9305,-3.9305,-3.9305,-3.94,-3.9617,-3.9617,-3.9726,-3.9956,-3.9726,-3.9617,-3.9604,-3.94,-3.9305,-3.9305,-3.9305,-3.9305,-3.9305,-3.9305,-3.9305,-3.9305,-3.9305,-3.9305,-3.9305,-3.9305,-3.9305,-3.9305,-3.9305,-3.9305,-3.9305,-3.9305,-3.9047,-3.8627,-3.7987,-3.7568,-3.6957,-3.5683,-3.5224,-3.4929,-3.3882,-3.3364,-3.3071,-3.2698,-3.2762,-3.2869,-3.2946,-3.308,-3.2853,-3.1556,-3.0524,-2.9584,-2.8768,-2.9203,-3.0323,-3.2349,-3.1895,-3.1205,-3.096,-2.9794,-2.8395,-2.6789,-2.6354,-2.6092,-2.5917,-2.5895,-2.5895,-2.5895,-2.5895,-2.5895,-2.5895,-2.5895,-2.5895,-2.5895,-2.607,-2.6321,-2.6584,-2.6933,-2.7402,-2.7991,-2.7991,-2.8154,-3.0223,-3.1622,-3.2688,-3.4359,-3.5304,-3.5733,-3.5299,-3.5197,-3.5163,-3.5022,-3.4096,-3.3115,-3.253,0.0,-3.3408,-3.5047,-3.6545,-3.8191,-4.0261,-4.0685,-4.0578,0.0,0.0,0.0,0.0,0.0,0.0,-3.5818,0.0,-3.7499,-3.7526,-3.8667,-3.9305,-3.9346,-3.9346,-3.9631,-4.0228,-4.0241,-4.0526,-4.111,-4.0485,-4.0187,-4.016,-3.9576,-3.9305,-3.9305,-3.9305,-3.9305,-3.9305,-3.9305,-3.9305,-3.9305,-3.9305,-3.9305,-3.9305,-3.9305,-3.9305,-3.9305,-3.9305,-3.9305,-3.9305,-3.9305,-3.9305,-3.9197,-3.864,-3.8464,-3.8176,-3.6774,-3.6409,-3.6233,-3.5409,-3.4794,-3.4446,-3.4499,-3.4134,-3.3794,-3.3883,-3.3498,-3.2664,-3.0992,-2.9793,-2.894,-2.8657,-2.9362,-3.0452,-3.1914,-3.2085,-3.1774,-3.1027,-3.0929,-2.9805,-2.6964,-2.6617,-2.6399,-2.5983,-2.5917,-2.5895,-2.5895,-2.5895,-2.5895,-2.5895,-2.5937,-2.5948,-2.5939,-2.644,-2.6649,-2.666,-2.7565,-2.7991,-2.7991,-2.7991,-2.798,-3.1631,-3.3447,-3.497,-3.5704,-3.6248,-3.6381,-3.542,-3.5197,-3.4654,-3.2698,-3.2012,-3.1372,-3.0077,-3.0666,-3.1895,-3.3562,-3.5884,0.0,-3.9566,-4.0372,0.0,-4.0175,-3.9258,-3.8482,-3.8102,-3.7565,0.0,0.0,-3.7323,-3.7689,-3.8122,-3.8898,-3.9509,-3.9956,-3.9956,-4.0255,-4.0879,-4.0879,-4.096,-4.111,-4.0485,-4.0187,-4.016,-3.9576,-3.9305,-3.9305,-3.9305,-3.9305,-3.9305,-3.9305,-3.9305,-3.9305,-3.9305,-3.9305,-3.9305,-3.9305,-3.9305,-3.9305,-3.9305,-3.9305,-3.9305,-3.9305,-3.9305,-3.9278,-3.9129,-3.9074,-3.8925,-3.8079,-3.7863,-3.7632,-3.648,-3.6102,-3.5805,-3.4926,-3.4601,-3.4411,-3.4002,-3.3786,-3.3319,-3.1977,-3.035,-2.9399,-2.9961,-3.027,-3.0906,-3.2323,-3.197,-3.1547,-3.1462,-3.1103,-3.0075,-2.7876,-2.7009,-2.653,-2.641,-2.6114,-2.5895,-2.5895,-2.5895,-2.5895,-2.5895,-2.6498,-2.6718,-2.6441,-2.718,-2.7605,-2.7642,-2.7871,-2.7991,-2.7991,-2.7991,-2.7805,-3.3225,-3.5042,-3.6549,-3.6773,-3.7001,-3.6629,-3.4666,-3.3822,-3.2894,-3.0736,-2.9717,-2.9062,-2.8474,-2.9285,-3.068,0.0,0.0,0.0,-3.9266,-4.0379,-4.0809,-4.0291,-3.9478,-3.885,-3.8533,-3.7876,-3.7702,0.0,-3.8027,-3.8027,-3.8396,-3.9224,-3.9848,-4.0173,-4.0458,-4.0892,-4.1503,-4.1774,-4.1896,-4.1883,-4.1015,-4.0594,-4.0567,-3.9699,-3.9305,-3.9305,0.0,-3.9305,-3.9305,-3.9305,-3.9305,-3.9305,-3.9305,-3.9305,-3.9305,-3.9305,-3.9305,-3.9305,-3.9305,-3.9305,-3.9305,-3.9305,-3.9305,-3.9305,-3.9305,-3.9305,-3.9237,-3.8898,-3.8803,-3.8654,-3.7962,-3.7596,-3.7229,-3.6523,-3.5954,-3.552,-3.5141,-3.4666,-3.3842,-3.2407,-3.1085,-3.0297,-3.0568,-3.0887,-3.1395,-3.2189,-3.1583,-3.1012,-3.0912,-3.0553,-2.97,-2.8172,-2.7522,-2.7118,-2.69,-2.6682,-2.6518,-2.6518,-2.6518,-2.6518,-2.6518,-2.6966,-2.7142,-2.6922,-2.8021,-2.8405,-2.7991,-2.8443,-2.8432,-2.7991,-2.7576,-2.7227,-3.4857,-3.6395,-3.7506,-3.7576,-3.747,-3.6576,-3.3515,-3.2025,-3.0747,-2.8874,-2.7531,-2.6792,-2.7134,-2.8168,-2.9674,-3.1817,0.0,-3.7119,-3.9187,-4.0444,-4.0912,-4.027,-3.9648,-3.9186,-3.9057,-3.8271,-3.8149,-3.9224,-3.883,-3.8532,-3.8532,-3.9509,-4.0146,-4.0309,-4.0987,-4.1598,-4.2114,-4.2629,-4.2846,-4.2765,-4.1652,-4.1069,-4.096,-3.9821,-3.9305,-3.9305,0.0,0.0,-3.9305,-3.9305,-3.9305,-3.9305,-3.9305,-3.9305,-3.9305,-3.9305,-3.9305,-3.9305,-3.9305,-3.9305,-3.9305,-3.9305,-3.9305,-3.9305,-3.9305,-3.9305,-3.9305,-3.9305,-3.9305,-3.9305,-3.9305,-3.8925,-3.8518,-3.8437,-3.7609,-3.6822,-3.6741,-3.5805,-3.4473,-3.2813,-3.2081,-3.1501,-3.0958,-3.137,-3.1797,-3.1797,-3.0941,-3.0193,-2.9916,-2.9617,-2.9024,-2.8116,-2.7936,-2.7751,-2.7435,-2.7348,-2.7315,-2.7315,-2.7315,-2.7315,-2.7315,-2.7393,-2.7514,-2.758,-2.8832,-2.9047,-2.8217,-2.8925,-2.8768,-2.7783,-2.6966,-2.6551,-3.6431,-3.729,-3.7586,-3.7919,-3.7289,-3.5865,-3.3108,-3.1836,-3.0194,-2.6533,-2.6268,-2.626,-2.4828,-2.6588,-2.8963,-3.1049,-3.4198,-3.7105,-3.9062,-3.9902,-4.0284,0.0,-3.9503,-3.91,-3.924,-3.9091,0.0,0.0,0.0,-3.9142,-3.9142,-3.9346,-3.9916,-4.092,-4.2019,-4.2629,-4.2724,-4.2833,-4.2643,-4.2154,-4.1449,-4.0852,-4.0323,-3.9617,-3.9305,-3.9305,0.0,0.0,-3.9305,-3.9305,-3.9305,-3.9305,-3.9305,-3.9305,-3.9305,-3.9305,-3.9305,-3.9305,-3.9305,-3.9305,-3.9305,-3.9305,-3.9305,-3.9305,-3.9305,-3.9305,-3.9305,-3.9305,-3.9305,-3.9305,-3.9305,-3.9224,-3.902,-3.8532,-3.826,-3.7962,-3.7431,-3.6517,-3.5555,-3.475,-3.3853,-3.3032,-3.2448,-3.2033,-3.1797,-3.1797,-3.0065,-2.8923,-2.9275,-2.9035,-2.8615,-2.8038,-2.7631,-2.7566,-2.7838,-2.75,-2.7315,-2.7315,-2.7315,-2.7315,-2.7315,-2.7984,-2.8612,-2.9088,-2.9257,-2.9302,-2.9225,-2.8567,-2.7766,-2.6824,-2.666,-2.6409,-3.707,-3.7823,-3.8117,-3.8094,-3.7233,-3.5597,-3.2488,-3.0693,-2.8777,-2.559,-2.5019,-2.4929,-2.4465,-2.6063,-2.8036,-2.9738,-3.2336,-3.4955,-3.7156,-3.7951,-3.8581,-3.9466,-3.9155,-3.8978,-3.9271,-3.9305,-3.9305,0.0,0.0,-3.9305,-3.9305,-3.959,-4.0323,-4.1544,-4.2127,-4.2426,-4.2426,-4.2426,-4.2127,-4.153,-4.092,-4.0472,-4.016,-3.9576,-3.9305,-3.9305,-3.9305,0.0,-3.9305,-3.9305,-3.9305,-3.9305,-3.9305,-3.9305,-3.9305,-3.9305,-3.9305,-3.9305,-3.9305,-3.9305,-3.9305,-3.9305,-3.9305,-3.9305,-3.9305,-3.9305,-3.9305,-3.9305,-3.9305,-3.9305,-3.9305,-3.9305,-3.9237,-3.8952,-3.864,-3.8247,-3.7621,-3.7044,-3.655,-3.6268,-3.5345,-3.4474,-3.3895,-3.2948,-3.2019,-3.1292,-2.999,-2.884,-2.8244,-2.8038,-2.7844,-2.7666,-2.7446,-2.7512,-2.7958,-2.7783,-2.7796,-2.8047,-2.8058,-2.8058,-2.8058,-2.8499,-2.8925,-2.9402,-2.982,-2.968,-2.9045,-2.8781,-2.7942,-2.6584,-2.6376,-2.6125,-3.729,-3.8098,-3.8627,-3.832,-3.7175,-3.5293,-3.2057,-2.9798,-2.7719,-2.5266,-2.4342,-2.4108,-2.4652,-2.5785,-2.714,-2.8622,-3.0669,-3.2928,-3.5396,-3.622,-3.7155,-3.8734,-3.8654,0.0,-3.9227,-3.9305,0.0,0.0,0.0,0.0,-3.9305,-3.9861,-4.0621,-4.1584,-4.1747,-4.1815,-4.1815,-4.1815,-4.1517,-4.092,-4.0418,-4.0119,-3.9983,-3.9522,-3.9305,-3.9305,-3.9305,0.0,0.0,-3.9305,-3.9305,-3.9305,-3.9305,-3.9305,-3.9305,-3.9305,-3.9305,-3.9305,-3.9305,-3.9305,-3.9305,-3.9305,-3.9305,-3.9305,-3.9305,-3.9305,-3.9305,-3.9305,-3.9305,-3.9305,-3.9305,-3.9305,-3.9305,-3.9305,-3.8952,-3.8477,-3.7973,-3.7641,-3.7389,-3.7389,-3.6473,-3.5526,-3.5048,-3.3843,-3.2566,-3.1438,-3.0489,-2.9332,-2.7824,-2.7365,-2.7164,-2.7009,-2.7108,-2.7403,-2.8053,-2.8142,-2.8307,-2.8728,-2.8761,-2.867,-2.8486,-2.867,-2.897,-2.9438,-3.0154,-3.0034,-2.9047,-2.9201,-2.8415,-2.6708,-2.6364,-2.6063,-3.729,-3.8098,-3.8692,-3.8643,-3.6959,-3.4665,-3.2201,-3.0143,-2.7978,-2.528,-2.4892,-2.4957,-2.4675,-2.5274,-2.6467,-2.8467,-3.057,-3.276,-3.5192,-3.6043,-3.699,-3.8535,0.0,0.0,-3.9183,-3.9305,0.0,0.0,0.0,0.0,0.0,-3.9861,-4.0241,-4.035,-4.0906,-4.1205,-4.1205,-4.1205,-4.0892,-4.0268,-4.0214,-3.9902,-3.9386,-3.9332,-3.9305,-3.9305,0.0,0.0,0.0,-3.9305,-3.9305,-3.9305,-3.9305,-3.9305,-3.9305,-3.9305,-3.9305,-3.9305,-3.9305,-3.9305,-3.9305,-3.9305,-3.9305,-3.9305,-3.9305,-3.9305,-3.9305,-3.9305,-3.9305,-3.9305,-3.9305,-3.9305,-3.9305,-3.9305,-3.9264,-3.921,-3.9156,-3.8546,-3.8038,-3.8038,-3.6895,-3.5883,-3.5606,-3.4571,-3.3685,-3.3349,-3.1709,-3.0204,-2.9224,-2.7994,-2.6903,-2.61,-2.6431,-2.7171,-2.8441,-2.8562,-2.8585,-2.863,-2.863,-2.825,-2.7491,-2.8206,-2.9028,-2.9905,-2.9959,-3.0124,-3.0393,-2.9606,-2.8486,-2.7131,-2.7085,-2.6663,-3.7,-3.8098,-3.8707,-3.8707,-3.6939,-3.47,-3.2805,-3.049,-2.8146,-2.6089,-2.5306,-2.4997,-2.4914,-2.4945,-2.5512,-2.7138,-2.8124,-2.9494,-3.1958,-3.3219,-3.4608,-3.6648,-3.7299,0.0,0.0,0.0,0.0,0.0,0.0,0.0,0.0,-3.9731,-3.9807,-4.0173,-4.0431,-4.0553,-4.0553,-4.0553,-4.0255,-3.9658,-3.9658,-3.9298,-3.8666,-3.9114,-3.9069,-3.8666,0.0,0.0,0.0,-3.9305,-3.9305,-3.9305,-3.9305,-3.9305,-3.9305,-3.9305,-3.9305,-3.9305,-3.9305,-3.9305,-3.9305,-3.9305,-3.9305,-3.9305,-3.9305,-3.9305,-3.9305,-3.9305,-3.9305,-3.9305,-3.9305,-3.9305,-3.9305,-3.9305,-3.9305,-3.9305,-3.9305,-3.9071,-3.882,-3.882,-3.7688,-3.6668,-3.6399,-3.4984,-3.3655,-3.2934,-3.2254,-3.1255,-2.9537,-2.9278,-2.8771,-2.7563,-2.6677,-2.6705,-2.8057,-2.8187,-2.8526,-2.9315,-2.8881,-2.845,-2.8115,-2.8407,-2.8901,-2.9527,-2.9955,-3.0143,-3.0043,-2.9677,-2.8695,-2.7185,-2.7185,-2.6745,-3.5805,-3.7304,-3.8334,-3.846,-3.6839,-3.4739,-3.3004,-3.0682,-2.8373,-2.6596,-2.5631,-2.5079,-2.5052,-2.471,-2.4807,-2.5966,-2.6485,-2.7636,-3.0131,-3.1679,-3.3399,-3.5798,0.0,-3.796,0.0,0.0,0.0,0.0,0.0,0.0,0.0,-3.9455,-3.9392,-3.9812,-3.9748,-3.9794,-3.9929,-3.9871,-3.9667,-3.9305,-3.9069,-3.8711,-3.82,-3.8756,-3.8711,-3.8245,0.0,0.0,0.0,-3.9305,-3.9305,-3.9305,-3.9305,-3.9172,-3.898,-3.898,-3.898,-3.898,-3.898,-3.9127,-3.9305,-3.9305,-3.9305,-3.9305,-3.9305,-3.9305,-3.9305,-3.9305,-3.9305,-3.9305,-3.9305,-3.9305,-3.9305,-3.9305,-3.9305,-3.9305,-3.9305,-3.9305,-3.9305,-3.9305,-3.836,-3.7402,-3.6983,-3.5601,-3.417,-3.3066,-3.2948,-3.2246,-3.02,-3.0325,-3.0015,-2.8566,-2.7354,-2.7117,-2.8328,-2.8445,-2.8833,-2.9767,-2.9005,-2.8418,-2.8187,-2.843,-2.8674,-2.8975,-3.0017,-3.0417,-3.0101,-3.0101,-2.9225,-2.7568,-2.7568,-2.7293,-3.3423,-3.5484,-3.7497,-3.7905,-3.6587,-3.4654,-3.2582,-3.0646,-2.8694,-2.6527,-2.5781,-2.537,-2.4981,-2.4558,-2.4512,-2.5189,-2.6488,-2.8265,-3.0815,-3.2407,-3.4233,0.0,0.0,-3.7611,0.0,0.0,0.0,0.0,0.0,0.0,0.0,-3.8908,-3.8908,-3.8908,-3.8724,-3.8827,-3.9305,-3.9069,-3.9056,-3.9305,-3.8575,-3.82,-3.82,-3.82,-3.82,0.0,0.0,0.0,0.0,-3.9305,-3.9305,-3.9305,-3.9305,-3.8845,-3.82,-3.82,-3.82,-3.82,-3.82,-3.8711,-3.9305,-3.9305,-3.9305,-3.9305,-3.9305,-3.9305,-3.9305,-3.9305,-3.9305,-3.9305,-3.9305,-3.9305,-3.9305,-3.9305,-3.9305,-3.9305,-3.9305,-3.9305,-3.9305,-3.9305,-3.8817,-3.8047,-3.7093,-3.6393,-3.5599,-3.4559,-3.3927,-3.3055,-3.1574,-3.0924,-3.0015,-2.8566,-2.8386,-2.8743,-2.9588,-2.9665,-2.9678,-2.9716,-2.8873,-2.8051,-2.7237,-2.7971,-2.8398,-2.8398,-3.0114,-3.0986,-3.0986,-3.0986,-3.0101,-2.8386,-2.8386,-2.8544,-3.2215,-3.3647,-3.4582,-3.4741,-3.3573,-3.2066,-3.0814,-2.9471,-2.81,-2.6775,-2.5962,-2.5465,-2.5332,-2.4759,-2.4973,-2.7088,-2.7796,-2.9014,-3.1637,0.0,0.0,-3.6956,-3.8474,0.0,0.0,0.0,0.0,0.0,0.0,0.0,0.0,0.0,-3.9104,-3.8724,-3.8647,-3.8692,-3.8827,-3.8877,-3.8535,-3.7736,-3.7704,-3.715,-3.6166,-3.7196,0.0,0.0,0.0,0.0,0.0,-3.9305,-3.9305,-3.9261,-3.8756,-3.8395,-3.8154,-3.7625,-3.7776,-3.82,-3.82,-3.8666,-3.9305,-3.9305,-3.9305,-3.9305,-3.9305,-3.9305,-3.9305,-3.9305,-3.9305,-3.9305,-3.9305,-3.9305,-3.9305,-3.9305,-3.9305,-3.9305,-3.9305,-3.9305,-3.9305,-3.9305,-3.8817,-3.8182,-3.7544,-3.6937,-3.6181,-3.5175,-3.4868,-3.4171,-3.2483,-3.212,-3.1564,-3.033,-3.0177,-3.0063,-2.9742,-2.9704,-2.9935,-3.0545,-2.9781,-2.9186,-2.8912,-2.9147,-2.9303,-2.9303,-3.0419,-3.0986,-3.0986,-3.0986,-3.0101,-2.8386,-2.7559,-2.8314,-3.0424,-3.1789,-3.2581,-3.2791,-3.1969,-3.0831,-2.9831,-2.8835,-2.7777,-2.669,-2.5944,-2.5446,-2.5294,-2.4739,-2.4872,-2.658,-2.7519,-2.8873,0.0,0.0,0.0,-3.7305,0.0,0.0,0.0,0.0,0.0,0.0,0.0,0.0,0.0,0.0,-3.8819,-3.8344,-3.8344,-3.8434,-3.8602,-3.8607,-3.8069,-3.7019,-3.6892,-3.6436,-3.563,-3.6564,0.0,0.0,0.0,0.0,0.0,-3.9305,-3.9305,-3.9216,-3.8485,-3.8018,-3.7684,-3.6977,-3.6989,-3.7407,-3.7684,-3.8291,-3.8935,-3.9216,-3.9305,-3.9305,-3.9305,-3.9305,-3.9305,-3.9305,-3.9305,-3.9305,-3.9305,-3.9305,-3.9305,-3.9305,-3.9305,-3.9305,-3.9305,-3.9305,-3.9305,-3.9305,-3.8905,-3.8391,-3.7811,-3.7316,-3.6637,-3.546,-3.5299,-3.475,-3.3221,-3.2829,-3.2333,-3.1405,-3.1117,-3.0785,-3.0228,-3.0177,-3.0419,-3.0986,-3.0177,-2.9704,-2.9704,-2.9704,-2.9704,-2.9704,-3.0545,-3.0986,-3.0986,-3.0343,-2.9584,-2.867,-2.744,-2.8557,0.0,-2.9902,-3.1201,-3.1672,-3.1288,-3.0521,-2.9403,-2.8562,0.0,-2.6396,-2.5817,-2.546,-2.5206,-2.4748,-2.4498,-2.4744,-2.6418,-2.8396,0.0,-3.309,0.0,0.0,0.0,0.0,0.0,0.0,0.0,0.0,0.0,0.0,0.0,0.0,-3.8089,-3.79,-3.79,-3.8129,-3.8557,-3.8317,-3.7763,-3.6879,-3.6248,-3.6058,-3.6175,-3.6317,0.0,0.0,0.0,0.0,0.0,-3.9305,-3.9261,-3.9172,-3.8427,-3.7684,-3.6917,-3.6191,-3.5966,-3.6108,-3.679,-3.7487,-3.8245,-3.898,-3.9261,-3.9305,-3.9305,-3.9305,-3.9305,-3.9305,-3.9305,-3.9305,-3.9305,-3.9305,-3.9305,-3.9305,-3.9305,-3.9305,-3.9305,-3.9305,-3.9292,-3.9305,-3.9056,-3.8644,-3.7887,-3.7555,-3.6964,-3.5577,-3.5351,-3.4933,-3.3744,-3.3064,-3.2489,-3.1915,-3.1392,-3.1065,-3.1104,-3.1039,-3.0986,-3.0986,-3.0216,-2.9781,-2.9781,-2.9781,-2.9781,-2.9781,-3.0583,-3.0986,-3.0986,-2.9302,-2.8711,-2.9157,-2.7969,-2.9238,-2.694,0.0,-2.8249,-2.8523,-2.8259,-2.7891,0.0,-2.7384,-2.713,-2.6657,-2.6245,-2.629,-2.7386,-2.6443,-2.6408,-2.914,-3.0083,-3.1193,-3.3244,0.0,0.0,0.0,0.0,0.0,0.0,0.0,0.0,0.0,0.0,0.0,0.0,0.0,-3.7933,-3.79,-3.79,-3.7946,-3.8083,-3.8135,-3.7453,-3.5928,-3.6342,-3.6046,-3.5198,-3.6317,0.0,0.0,0.0,0.0,-3.9305,-3.9305,-3.898,-3.8395,-3.7638,-3.6883,-3.6143,-3.5343,-3.5488,-3.6013,-3.6191,-3.6743,-3.7487,-3.82,-3.8845,-3.9305,-3.9305,-3.9305,-3.9305,-3.9305,-3.9305,-3.9305,-3.9305,-3.9305,-3.9305,-3.9305,-3.9305,-3.9305,-3.9305,-3.9305,-3.9247,-3.9056,-3.8953,-3.8734,-3.8164,-3.8047,-3.7516,-3.6127,-3.5913,-3.5351,-3.3796,-3.3064,-3.2646,-3.2502,-3.198,-3.181,-3.2254,-3.1483,-3.0986,-3.0986,-3.0823,-3.071,-3.071,-3.071,-3.071,-3.071,-3.0911,-3.0986,-3.0986,-2.9658,-2.9095,-2.921,-2.8678,-2.9508,-2.659,-2.708,-2.7519,-2.77,-2.7585,-2.7453,-2.7453,-2.7197,-2.6757,-2.6068,-2.6012,-2.63,-2.6942,-2.6712,-2.7251,-2.9824,-3.0881,0.0,0.0,0.0,0.0,0.0,0.0,0.0,0.0,0.0,0.0,0.0,0.0,0.0,0.0,0.0,-3.79,-3.79,-3.79,-3.79,-3.79,-3.8024,-3.7328,-3.5941,-3.6307,-3.62,-3.5726,-3.6599,0.0,0.0,0.0,0.0,-3.9305,-3.9305,-3.8845,-3.8109,-3.7394,-3.6649,-3.5918,-3.5114,-3.5066,-3.5488,-3.587,-3.6461,-3.7196,-3.7972,-3.8472,-3.8845,-3.9216,-3.9305,-3.9305,-3.9305,-3.9305,-3.9305,-3.9305,-3.9305,-3.9305,-3.9305,-3.9305,-3.9305,-3.9305,-3.9203,-3.9056,-3.8908,-3.8729,-3.8517,-3.8245,-3.8122,-3.7605,-3.6279,-3.6109,-3.5587,-3.4149,-3.3456,-3.3104,-3.3104,-3.2581,-3.2359,-3.2659,-3.2123,-3.1771,-3.1771,-3.1771,-3.1771,-3.1771,-3.1771,-3.1771,-3.1771,-3.1771,-3.1771,-3.1771,-3.0731,-3.0097,-2.9876,-2.9794,-3.0348,-2.6843,-2.7503,-2.8113,-2.7878,-2.7913,-2.7964,-2.7862,-2.7351,-2.6589,-2.5496,-2.5843,-2.6369,-2.6367,-2.7008,0.0,0.0,0.0,0.0,0.0,0.0,0.0,0.0,0.0,0.0,0.0,0.0,0.0,0.0,0.0,0.0,0.0,0.0,0.0,-3.79,-3.79,-3.79,-3.79,-3.79,-3.74,-3.6414,-3.6521,-3.6649,-3.6811,-3.7137,0.0,0.0,0.0,0.0,-3.9114,-3.9114,-3.8607,-3.7789,-3.7163,-3.6461,-3.5727,-3.5066,-3.4775,-3.4872,-3.5584,-3.638,-3.7209,-3.7821,-3.82,-3.8472,-3.9114,-3.9305,-3.9305,-3.9305,-3.9305,-3.9305,-3.9305,-3.9305,-3.9305,-3.9305,-3.9305,-3.9305,-3.9247,-3.9056,-3.8863,-3.8819,-3.8472,-3.82,-3.8167,-3.8011,-3.7495,-3.6279,-3.6109,-3.5691,-3.4541,-3.3927,-3.3626,-3.3705,-3.3182,-3.2868,-3.2947,-3.2947,-3.2947,-3.2947,-3.279,-3.2685,-3.2685,-3.2685,-3.2685,-3.2685,-3.2685,-3.2685,-3.2685,-3.1896,-3.1335,-3.1026,-3.1211,-3.1564,-2.7452,-2.8669,-2.9314,-2.7522,-2.7539,-2.7845,-2.7215,-2.6994,-2.6808,-2.6505,-2.7028,-2.8123,-2.9972,-3.022,-3.0994,0.0,0.0,0.0,0.0,0.0,0.0,0.0,0.0,0.0,0.0,0.0,0.0,0.0,0.0,0.0,0.0,0.0,0.0,-3.79,-3.79,-3.79,-3.79,-3.79,-3.7598,-3.6968,-3.7459,-3.7551,-3.74,-3.8044,-3.8562,0.0,0.0,-3.8935,-3.8395,-3.8395,-3.7546,-3.6345,-3.6191,-3.5679,-3.4969,-3.4823,-3.4775,-3.4835,-3.492,-3.5906,-3.7103,-3.7243,-3.8082,-3.9158,-3.9261,-3.9305,-3.9305,-3.9305,-3.9305,-3.9305,-3.9305,-3.9305,-3.9305,-3.9305,-3.9305,-3.9247,-3.9011,-3.8908,-3.8774,-3.8381,-3.8245,-3.8167,-3.7979,-3.79,-3.7495,-3.6279,-3.6109,-3.5691,-3.4541,-3.3927,-3.377,-3.4228,-3.3783,-3.3639,-3.4097,-3.4136,-3.4136,-3.4136,-3.3221,-3.2685,-3.2685,-3.2685,-3.2685,-3.2685,-3.2685,-3.2685,-3.2685,-3.2237,-3.2243,-3.2666,-3.2789,-3.3158,-2.7063,-2.801,-2.8721,-2.8165,-2.9183,-3.0133,-2.9386,-2.9217,-2.9097,-2.8619,-2.9127,-2.988,0.0,0.0,-3.2563,-3.4807,0.0,0.0,0.0,0.0,0.0,0.0,0.0,0.0,0.0,0.0,0.0,0.0,0.0,0.0,0.0,0.0,0.0,0.0,-3.773,-3.79,-3.79,-3.79,-3.7762,-3.7551,-3.7762,-3.7887,-3.7907,-3.8376,-3.8711,-3.8908,0.0,-3.889,-3.82,-3.82,-3.7315,-3.6013,-3.6013,-3.5488,-3.4775,-3.4775,-3.4775,-3.4775,-3.4775,-3.5536,-3.6555,-3.6977,-3.7808,-3.88,-3.9172,-3.9305,-3.9305,-3.9305,-3.9305,-3.9216,-3.88,-3.8711,-3.8711,-3.8711,-3.8607,-3.8549,-3.8863,-3.8684,-3.8472,-3.8245,-3.8089,-3.8024,-3.79,-3.7639,-3.7116,-3.624,-3.5848,-3.5365,-3.4502,-3.4175,-3.4123,-3.4371,-3.4175,-3.4123,-3.4384,-3.4397,-3.4397,-3.4397,-3.3901,-3.3613,-3.3613,-3.3613,-3.3613,-3.3613,-3.3613,-3.3613,-3.3613,-3.3449,-3.3386,-3.347,-3.3793,-3.3976,-2.6621,-2.7246,-2.7887,-2.8789,-3.0127,-3.1275,-3.143,-3.1309,-3.114,-3.092,-3.1365,-3.1649,0.0,-3.2506,0.0,-3.4919,0.0,0.0,0.0,0.0,0.0,0.0,0.0,0.0,0.0,0.0,0.0,0.0,0.0,0.0,0.0,0.0,0.0,0.0,-3.7246,-3.7482,-3.7482,-3.7625,-3.7756,-3.79,-3.79,-3.8024,-3.8304,-3.8512,-3.8724,-3.9011,-3.9024,-3.8607,-3.7913,-3.7743,-3.6896,-3.5727,-3.5727,-3.5343,-3.4775,-3.4775,-3.4775,-3.4835,-3.5017,-3.5584,-3.638,-3.7116,-3.7867,-3.8575,-3.9127,-3.9305,-3.9305,-3.9203,-3.9203,-3.9024,-3.8232,-3.8154,-3.8213,-3.7959,-3.7959,-3.8141,-3.8639,-3.8472,-3.8213,-3.8122,-3.8024,-3.7861,-3.7717,-3.7312,-3.675,-3.6018,-3.5561,-3.5077,-3.4476,-3.4397,-3.4397,-3.4397,-3.4397,-3.4397,-3.4397,-3.4397,-3.4397,-3.4397,-3.4397,-3.4397,-3.4397,-3.4397,-3.4397,-3.4397,-3.4397,-3.4397,-3.4397,-3.4397,-3.4412,-3.44,-3.4787,-3.4936,-2.6695,-2.7256,-2.7601,-2.8717,-2.8569,-2.8838,-3.1599,-3.1701,-3.1562,-3.2899,-3.3344,-3.3514,-3.3468,-3.4768,-3.5548,0.0,0.0,0.0,0.0,0.0,0.0,0.0,0.0,0.0,0.0,0.0,0.0,0.0,0.0,0.0,0.0,0.0,0.0,0.0,0.0,-3.6227,-3.6227,-3.6789,-3.7351,-3.79,-3.79,-3.8116,-3.8557,-3.8602,-3.8872,-3.9203,-3.8575,-3.7867,-3.7116,-3.6427,-3.5679,-3.4872,-3.4872,-3.4823,-3.4775,-3.4775,-3.4775,-3.492,-3.5631,-3.6414,-3.715,-3.7867,-3.8607,-3.9203,-3.9292,-3.9305,-3.9247,-3.9011,-3.8908,-3.8715,-3.7691,-3.8004,-3.8304,-3.7309,-3.7808,-3.8498,-3.8304,-3.82,-3.8122,-3.7979,-3.79,-3.773,-3.7168,-3.7037,-3.6632,-3.5521,-3.5325,-3.5077,-3.4476,-3.4397,-3.4397,-3.4397,-3.4397,-3.4397,-3.4397,-3.4397,-3.4397,-3.4397,-3.4397,-3.4397,-3.4397,-3.4397,-3.4397,-3.4397,-3.4397,-3.4397,-3.4397,-3.4397,-3.4917,-3.5957,-3.5996,-3.659,-2.578,-2.6479,-2.7197,-2.8896,-2.9115,-2.9622,-3.2349,-3.3846,-3.4992,-3.6026,-3.6356,-3.608,-3.4843,0.0,-3.4791,0.0,0.0,0.0,0.0,0.0,0.0,0.0,0.0,0.0,0.0,0.0,0.0,0.0,0.0,0.0,0.0,0.0,0.0,0.0,0.0,-3.6109,-3.6109,-3.6332,-3.6554,-3.6789,-3.7547,-3.8161,-3.8602,-3.8602,-3.8859,-3.9261,-3.853,-3.7776,-3.7057,-3.6285,-3.5548,-3.4775,-3.4775,-3.4775,-3.4872,-3.5343,-3.5536,-3.5679,-3.6414,-3.7176,-3.7821,-3.8109,-3.8711,-3.9305,-3.9305,-3.9203,-3.9056,-3.8908,-3.8684,-3.8291,-3.7651,-3.7677,-3.7815,-3.742,-3.7466,-3.7769,-3.8109,-3.8089,-3.7979,-3.79,-3.79,-3.7717,-3.7103,-3.6684,-3.6188,-3.5417,-3.4986,-3.4659,-3.4424,-3.4397,-3.4397,-3.4397,-3.4397,-3.4397,-3.4397,-3.4397,-3.4397,-3.4397,-3.4397,-3.4397,-3.4397,-3.4397,-3.4397,-3.4397,-3.4397,-3.4397,-3.4397,-3.4397,-3.4986,-3.6109,-3.6109,-3.675,-2.4769,-2.5329,-2.6199,-2.8362,-2.9121,-3.0048,-3.2907,-3.5118,-3.692,-3.8093,-3.7762,-3.6822,-3.5431,-3.4383,0.0,0.0,0.0,0.0,0.0,0.0,0.0,0.0,0.0,0.0,0.0,0.0,0.0,0.0,0.0,0.0,0.0,0.0,0.0,0.0,0.0,0.0,-3.5561,-3.5757,-3.5848,-3.5861,-3.6957,-3.7746,-3.8309,-3.8412,-3.8635,-3.8976,-3.8013,-3.7215,-3.6499,-3.5724,-3.5149,-3.4775,-3.4775,-3.4969,-3.5259,-3.5775,-3.6156,-3.6474,-3.7209,-3.7776,-3.8258,-3.8472,-3.889,-3.9305,-3.9305,-3.91,-3.8908,-3.8832,-3.8517,-3.8122,-3.7736,-3.7611,-3.7551,-3.7201,-3.7261,-3.7492,-3.7998,-3.8024,-3.79,-3.79,-3.79,-3.7652,-3.6854,-3.6371,-3.5848,-3.5129,-3.4659,-3.4397,-3.4397,-3.4397,-3.4397,-3.4397,-3.4397,-3.4397,-3.4397,-3.4397,-3.4397,-3.4397,-3.4397,-3.4397,-3.4397,-3.4397,-3.4397,-3.4397,-3.4397,-3.4397,-3.4397,-3.4397,-3.4986,-3.6109,-3.6109,-3.675,-2.378,-2.391,-2.4512,-2.7009,-2.8177,-2.9653,-3.3112,-3.5033,-3.6675,-3.8694,-3.7112,-3.534,-3.5121,-3.3449,0.0,0.0,0.0,0.0,0.0,0.0,0.0,0.0,0.0,0.0,0.0,0.0,0.0,0.0,0.0,0.0,0.0,0.0,0.0,0.0,0.0,0.0,-3.4397,-3.4986,-3.5286,-3.5299,-3.6108,-3.6893,-3.7714,-3.796,-3.8192,-3.8323,-3.6901,-3.5936,-3.5341,-3.4399,-3.4342,-3.4811,-3.4811,-3.5283,-3.5988,-3.6001,-3.6461,-3.7196,-3.7959,-3.82,-3.8336,-3.9069,-3.9305,-3.9305,-3.9305,-3.91,-3.8877,-3.8679,-3.8408,-3.8167,-3.7933,-3.79,-3.7611,-3.6568,-3.7108,-3.79,-3.79,-3.79,-3.79,-3.79,-3.79,-3.7508,-3.6305,-3.6096,-3.5704,-3.4567,-3.4397,-3.4397,-3.4397,-3.4397,-3.4397,-3.4397,-3.4397,-3.4397,-3.4397,-3.4397,-3.4397,-3.4397,-3.4397,-3.4397,-3.4397,-3.4397,-3.4397,-3.4397,-3.4397,-3.4397,-3.4397,-3.4397,-3.4986,-3.6096,-3.6096,-3.6737,-2.3444,-2.4554,-2.6137,-2.8151,-2.999,-3.1768,-3.3514,-3.5449,-3.7331,-3.8919,-3.7504,-3.5634,-3.4552,-3.3502,0.0,0.0,0.0,0.0,0.0,0.0,0.0,0.0,0.0,0.0,0.0,0.0,0.0,0.0,0.0,0.0,0.0,0.0,0.0,0.0,0.0,0.0,-3.4397,-3.458,-3.4672,-3.4659,-3.5262,-3.6069,-3.7084,-3.7356,-3.7585,-3.77,-3.6796,-3.6284,-3.6022,-3.4727,-3.4582,-3.5073,-3.4638,-3.4856,-3.5575,-3.6103,-3.6688,-3.7368,-3.8096,-3.863,-3.9024,-3.9203,-3.9305,-3.9305,-3.9305,-3.91,-3.8877,-3.8679,-3.8408,-3.8167,-3.7933,-3.79,-3.7808,-3.7505,-3.7657,-3.79,-3.79,-3.79,-3.7782,-3.7351,-3.7273,-3.6907,-3.5744,-3.5534,-3.5273,-3.4515,-3.4397,-3.4397,-3.4397,-3.4397,-3.4397,-3.4397,-3.4397,-3.4397,-3.4397,-3.4397,-3.4397,-3.4397,-3.4397,-3.4397,-3.4397,-3.4397,-3.4397,-3.4397,-3.4397,-3.4397,-3.4397,-3.4397,-3.4789,-3.5534,-3.5534,-3.5926,-2.3625,-2.501,-2.6849,-2.8706,-3.0379,-3.1936,-3.3366,-3.526,-3.7111,-3.8523,-3.6798,-3.4809,-3.4142,-3.2855,0.0,0.0,0.0,0.0,0.0,0.0,0.0,0.0,0.0,0.0,0.0,0.0,0.0,0.0,0.0,0.0,0.0,0.0,0.0,0.0,0.0,0.0,-3.4397,-3.4397,-3.4397,-3.4397,-3.4867,-3.5445,-3.6138,-3.6717,-3.7035,-3.7106,-3.612,-3.5545,-3.5245,-3.4388,-3.4382,-3.4895,-3.4495,-3.4889,-3.5789,-3.6227,-3.6813,-3.7477,-3.8155,-3.8491,-3.8667,-3.9142,-3.8993,-3.864,-3.8884,-3.8543,-3.8046,-3.7927,-3.7616,-3.7335,-3.7226,-3.7194,-3.7312,-3.7795,-3.7429,-3.6972,-3.6972,-3.6779,-3.6509,-3.6148,-3.641,-3.6358,-3.5456,-3.5299,-3.509,-3.4489,-3.4397,-3.4397,-3.4397,-3.4397,-3.4397,-3.4397,-3.4397,-3.4397,-3.4397,-3.4397,-3.4397,-3.4397,-3.4397,-3.4397,-3.4397,-3.4397,-3.4397,-3.4397,-3.4397,-3.4397,-3.4397,-3.4397,-3.4711,-3.5299,-3.5299,-3.5587,-2.3979,-2.5253,-2.6855,-2.8755,-2.9814,-3.0939,-3.2928,-3.4499,-3.5946,-3.7372,0.0,-3.3271,-3.3542,0.0,0.0,0.0,0.0,0.0,0.0,0.0,0.0,0.0,0.0,0.0,0.0,0.0,0.0,0.0,0.0,0.0,0.0,0.0,0.0,0.0,0.0,0.0,-3.4397,-3.4397,-3.4397,0.0,-3.4908,-3.5127,-3.5181,-3.6115,-3.6497,-3.6374,-3.5205,-3.4321,-3.3614,-3.3572,-3.3866,-3.4328,-3.4285,-3.5068,-3.6171,-3.6224,-3.6732,-3.7404,-3.8043,-3.7892,-3.7662,-3.8746,-3.8366,-3.7594,-3.8136,-3.7604,-3.6817,-3.6817,-3.6458,-3.6153,-3.6109,-3.6109,-3.6327,-3.7378,-3.6557,-3.5508,-3.5508,-3.5093,-3.4702,-3.4652,-3.539,-3.5848,-3.5312,-3.5221,-3.5025,-3.4476,-3.4397,-3.4397,-3.4397,-3.4397,-3.4397,-3.4397,-3.4397,-3.4397,-3.4397,-3.4397,-3.4397,-3.4397,-3.4397,-3.4397,-3.4397,-3.4397,-3.4397,-3.4397,-3.4397,-3.4397,-3.4397,-3.4397,-3.4672,-3.5221,-3.5221,-3.5482,-2.2953,-2.4605,-2.6792,-2.8347,-2.9991,-3.1527,-3.2938,-3.2719,-3.2629,-3.4036,-3.3261,-3.1962,0.0,0.0,0.0,0.0,0.0,0.0,0.0,0.0,0.0,0.0,0.0,0.0,0.0,0.0,0.0,0.0,0.0,0.0,0.0,0.0,0.0,0.0,0.0,-3.4397,-3.4397,-3.4397,-3.4494,0.0,-3.4962,-3.5195,-3.5358,-3.5724,-3.5655,-3.5168,-3.4913,-3.4431,-3.3805,-3.3265,-3.3423,-3.3953,-3.3449,-3.3728,-3.4484,-3.4982,-3.5535,-3.6185,-3.6782,-3.7229,-3.754,-3.7626,-3.7488,-3.7313,-3.7434,-3.7166,-3.6857,-3.6817,-3.6601,-3.6384,-3.6153,-3.6109,-3.5986,-3.5494,-3.5128,-3.4904,-3.4904,-3.4803,-3.4589,-3.4142,-3.4838,-3.5286,-3.4698,-3.4593,-3.4554,-3.441,-3.4397,-3.4397,-3.4397,-3.4397,-3.4397,-3.4397,-3.4397,-3.4397,-3.4397,-3.4397,-3.4397,-3.4397,-3.4397,-3.4397,-3.4397,-3.4397,-3.4397,-3.4397,-3.4397,-3.4397,-3.4397,-3.4397,-3.4463,-3.4593,-3.4593,-3.4659,-2.3274,-2.497,-2.7003,-2.8971,0.0,-3.0998,-3.1296,-3.1047,-3.0678,-3.043,-3.0496,0.0,0.0,0.0,0.0,0.0,0.0,0.0,0.0,0.0,0.0,0.0,0.0,0.0,0.0,0.0,0.0,0.0,0.0,0.0,0.0,0.0,0.0,0.0,-3.4397,-3.428,-3.4018,-3.4404,-3.4383,-3.3965,-3.4526,-3.4754,-3.4685,-3.5087,-3.5087,-3.4775,-3.449,-3.403,-3.3487,-3.3156,-3.3194,-3.3487,-3.3118,-3.3369,-3.3948,-3.4246,-3.4748,-3.5344,-3.5967,-3.6388,-3.6713,-3.7097,-3.6811,-3.6381,-3.655,-3.6273,-3.5878,-3.5865,-3.5682,-3.547,-3.5329,-3.496,-3.4602,-3.4571,-3.4092,-3.3519,-3.3053,-3.3073,-3.3128,-3.2857,-3.3934,-3.4763,-3.445,-3.4397,-3.4397,-3.4397,-3.4397,-3.4397,-3.4397,-3.4397,-3.4397,-3.4397,-3.4397,-3.4397,-3.4397,-3.4397,-3.4397,-3.4397,-3.4397,-3.4397,-3.4397,-3.4397,-3.4397,-3.4397,-3.4397,-3.4397,-3.4397,-3.4397,-3.4397,-3.4397,-3.4397,-3.4397,-2.3443,-2.5126,-2.6941,-2.9247,-2.9855,0.0,-2.9257,-2.9389,-2.9151,-2.7522,0.0,0.0,0.0,0.0,0.0,0.0,0.0,0.0,0.0,0.0,0.0,0.0,0.0,0.0,0.0,0.0,0.0,0.0,0.0,0.0,0.0,0.0,-3.3877,-3.3877,-3.4014,-3.3888,-3.3443,-3.4133,-3.4005,-3.3079,-3.3965,-3.4226,-3.3921,-3.4184,-3.4399,-3.4502,-3.3962,-3.3457,-3.2938,-3.2938,-3.2938,-3.2938,-3.2938,-3.3213,-3.3609,-3.3718,-3.4086,-3.4681,-3.5277,-3.5548,-3.5724,-3.6527,-3.6136,-3.5371,-3.5687,-3.5306,-3.4756,-3.4797,-3.4618,-3.4356,-3.4176,-3.3602,-3.3164,-3.3771,-3.3127,-3.216,-3.1467,-3.1487,-3.1665,-3.1797,-3.325,-3.4397,-3.4397,-3.4397,-3.4397,-3.4397,-3.4397,-3.4397,-3.4397,-3.4397,-3.4397,-3.4397,-3.4397,-3.4397,-3.4397,-3.4397,-3.4397,-3.4397,-3.4397,-3.4397,-3.4397,-3.4397,-3.4397,-3.4397,-3.4397,-3.4397,-3.4397,-3.4397,-3.4397,-3.4397,-3.4397,-3.4397,-2.1272,0.0,-2.5567,0.0,-2.7745,-2.8129,0.0,0.0,-2.7306,0.0,0.0,0.0,0.0,0.0,0.0,0.0,0.0,0.0,0.0,0.0,0.0,0.0,0.0,0.0,0.0,0.0,0.0,0.0,0.0,0.0,0.0,-3.1356,-3.1807,-3.1807,-3.2534,-3.2881,-3.2816,-3.312,-3.3264,-3.3262,-3.3744,-3.395,-3.3856,-3.2911,-3.2762,-3.3332,-3.3251,-3.2884,-3.2327,-3.2327,-3.2327,-3.2327,-3.2327,-3.2381,-3.2481,-3.302,-3.3439,-3.3853,-3.4431,-3.4902,-3.5181,-3.5148,-3.5012,-3.4893,-3.4931,-3.4726,-3.4481,-3.4714,-3.4618,-3.4217,-3.339,-3.3079,-3.2809,-3.2147,-3.1857,-3.1906,-3.2605,-3.2152,-3.184,-3.2679,-3.3687,-3.4397,-3.4397,-3.4397,-3.4397,-3.4397,-3.4397,-3.4397,-3.4397,-3.4397,-3.4397,-3.4397,-3.4397,-3.4397,-3.4397,-3.4397,-3.4397,-3.4397,-3.4397,-3.4397,-3.4397,-3.4397,-3.4397,-3.4397,-3.4397,-3.4397,-3.4397,-3.4397,-3.4397,-3.4397,-3.4397,-3.4397,-2.1769,-2.3225,-2.4743,0.0,-2.6629,-2.7236,-2.6951,0.0,0.0,0.0,0.0,0.0,0.0,0.0,0.0,0.0,0.0,0.0,0.0,0.0,0.0,0.0,0.0,0.0,0.0,0.0,0.0,0.0,0.0,0.0,-2.9381,-3.0679,-3.1377,-3.1377,-3.2275,0.0,-3.2371,-3.2907,-3.318,-3.3203,-3.303,-3.2755,-3.2377,-3.1834,-3.1938,-3.2508,-3.1836,-3.1558,-3.1629,-3.1629,-3.1863,-3.2218,-3.2218,-3.2218,-3.2246,-3.2504,-3.2905,-3.3387,-3.3826,-3.4338,-3.4767,-3.4774,-3.4797,-3.4756,-3.4618,-3.4481,-3.4439,-3.4535,-3.4481,-3.4301,-3.3911,-3.3377,-3.3036,-3.3122,-3.2376,-3.2016,-3.3475,-3.3036,-3.2679,-3.3602,-3.4134,-3.4397,-3.4397,-3.4397,-3.4397,-3.4397,-3.4397,-3.4397,-3.4397,-3.4397,-3.4397,-3.4397,-3.4397,-3.4397,-3.4397,-3.4397,-3.4397,-3.4397,-3.4397,-3.4397,-3.4397,-3.4397,-3.4397,-3.4397,-3.4397,-3.4397,-3.4397,-3.4397,-3.4397,-3.4397,-3.4397,-3.4397,0.0,0.0,-2.3541,-2.4129,-2.5273,-2.6151,0.0,0.0,0.0,0.0,0.0,0.0,0.0,0.0,0.0,0.0,0.0,0.0,0.0,0.0,0.0,0.0,0.0,0.0,0.0,0.0,0.0,0.0,0.0,0.0,-2.8349,-3.0016,-3.0962,-3.0962,-3.1796,-3.2161,-3.1919,-3.261,-3.2914,-3.287,-3.2436,-3.1863,-3.1182,-3.1182,-3.1345,-3.1612,-3.0839,-3.0771,-3.122,-3.1381,-3.174,-3.2169,-3.2009,-3.1936,-3.1936,-3.179,-3.2078,-3.2615,-3.3018,-3.3487,-3.4033,-3.4429,-3.4586,-3.4571,-3.4441,-3.4397,-3.4397,-3.4397,-3.4397,-3.4356,-3.4092,-3.3518,-3.3164,-3.3869,-3.298,-3.2321,-3.3742,-3.3687,-3.356,-3.4259,-3.4397,-3.4397,-3.4397,-3.4397,-3.4397,-3.4397,-3.4397,-3.4397,-3.4397,-3.4397,-3.4397,-3.4397,-3.4397,-3.4397,-3.4397,-3.4397,-3.4397,-3.4397,-3.4397,-3.4397,-3.4397,-3.4397,-3.4397,-3.4397,-3.4397,-3.4397,-3.4397,-3.4397,-3.4397,-3.4397,-3.4397,-3.4397,-1.8478,-2.0026,0.0,-2.168,-2.3124,0.0,0.0,0.0,0.0,0.0,0.0,0.0,0.0,0.0,0.0,0.0,0.0,0.0,0.0,0.0,0.0,0.0,0.0,0.0,0.0,0.0,0.0,0.0,0.0,0.0,-2.7272,-2.8879,-2.9792,-2.9792,-3.0636,-3.1164,-3.1349,-3.1773,-3.2081,-3.2259,-3.2218,-3.1863,-3.1182,-3.1182,-3.0897,-3.0406,-3.0934,-3.1158,-3.127,-3.19,-3.2182,-3.2132,-3.1505,-3.127,-3.1196,-3.062,-3.065,-3.1097,-3.1668,-3.2163,-3.2683,-3.3632,-3.3951,-3.4003,-3.4323,-3.4397,-3.4397,-3.4397,-3.4397,-3.4176,-3.3292,-3.3036,-3.3023,-3.3066,-3.298,-3.2938,-3.3036,-3.3729,-3.4356,-3.4397,-3.4397,-3.4397,-3.4397,-3.4397,-3.4397,-3.4397,-3.4397,-3.4397,-3.4397,-3.4397,-3.4397,-3.4397,-3.4397,-3.4397,-3.4397,-3.4397,-3.4397,-3.4397,-3.4397,-3.4397,-3.4397,-3.4397,-3.4397,-3.4397,-3.4397,-3.4397,-3.4397,-3.4397,-3.4397,-3.4397,-3.4397,-3.4397,-1.7834,0.0,0.0,-2.007,-2.1653,-2.3157,0.0,0.0,0.0,0.0,0.0,0.0,0.0,0.0,0.0,0.0,0.0,0.0,0.0,0.0,0.0,0.0,0.0,0.0,0.0,0.0,0.0,0.0,0.0,0.0,-2.6901,-2.8306,-2.895,-2.8624,-2.9535,-3.0385,-3.1095,-3.1775,-3.19,-3.1542,-3.1542,-3.1046,-3.0063,-3.0063,-2.9947,-2.9755,-3.0355,-3.0846,-3.1233,-3.1468,-3.1542,-3.1542,-3.1307,-3.0959,-3.0582,-3.0393,-3.0369,-3.0637,-3.1512,-3.1824,-3.1993,-3.3014,-3.3251,-3.3158,-3.3275,-3.33,-3.33,-3.33,-3.33,-3.3219,-3.2881,-3.2828,-3.2828,-3.2828,-3.2607,-3.2491,-3.2735,-3.3669,-3.4397,-3.4397,-3.4397,-3.4397,-3.4397,-3.4397,-3.4397,-3.4397,-3.4397,-3.4397,-3.4397,-3.4397,-3.4397,-3.4397,-3.4397,-3.4397,-3.4397,-3.4397,-3.4397,-3.4397,-3.4397,-3.4397,-3.4397,-3.4397,-3.4397,-3.4397,-3.4397,-3.4397,-3.4397,-3.4397,-3.4397,-3.4397,-3.4397,-3.4397,-1.7022,-1.8009,-1.9135,0.0,0.0,-2.1352,0.0,0.0,0.0,0.0,0.0,0.0,0.0,0.0,0.0,0.0,0.0,0.0,0.0,0.0,0.0,0.0,0.0,0.0,0.0,0.0,0.0,0.0,0.0,0.0,-2.7174,-2.8312,-2.884,-2.852,-2.9213,-2.994,-3.0694,-3.1285,-3.1386,-3.0919,-3.0917,-3.0355,-2.9419,-2.96,-2.9716,-2.9755,-3.0355,-3.0809,-3.1182,-3.1182,-3.1344,-3.1468,-3.0859,-3.0469,-3.0241,-2.9832,-2.9832,-3.0113,-3.0907,-3.1254,-3.1473,-3.2396,-3.2594,-3.2516,-3.2673,-3.2685,-3.2685,-3.2685,-3.2685,-3.2685,-3.2685,-3.2685,-3.2685,-3.2685,-3.2502,-3.2385,-3.2633,-3.3443,-3.4123,-3.4123,-3.428,-3.4397,-3.4397,-3.4397,-3.4397,-3.4397,-3.4397,-3.4397,-3.4397,-3.4397,-3.4397,-3.4397,-3.4397,-3.4397,-3.4397,-3.4397,-3.4397,-3.4397,-3.4397,-3.4397,-3.4397,-3.4397,-3.4397,-3.4397,-3.4397,-3.4397,-3.4397,-3.4397,-3.4397,-3.4397,-3.4397,-3.4397,0.0,0.0,0.0,0.0,0.0,0.0,0.0,0.0,0.0,0.0,0.0,0.0,0.0,0.0,0.0,0.0,0.0,0.0,0.0,0.0,0.0,0.0,0.0,0.0,0.0,0.0,0.0,0.0,0.0,-2.7528,-2.7947,-2.8805,-2.9328,-2.9469,-2.9693,-2.9867,-3.0062,-3.0277,-3.0352,-3.0352,-3.0261,-2.9922,-2.9355,-2.9973,-3.0292,-3.0317,-3.0921,-3.1182,-3.1233,-3.1233,-3.1579,-3.195,-3.0139,-2.9793,-3.0126,-2.8961,-2.8922,-2.9496,-2.9883,-3.0432,-3.1116,-3.1856,-3.2065,-3.2146,-3.2516,-3.2633,-3.2633,-3.2633,-3.2633,-3.2633,-3.2633,-3.2633,-3.2633,-3.2633,-3.2633,-3.2633,-3.2633,-3.3117,-3.3548,-3.3587,-3.4018,-3.4384,-3.4397,-3.4397,-3.4397,-3.4397,-3.4397,-3.4397,-3.4397,-3.4397,-3.4397,-3.4397,-3.4397,-3.4397,-3.4397,-3.4397,-3.4397,-3.4397,-3.4397,-3.4397,-3.4397,-3.4397,-3.4397,-3.4397,-3.4397,-3.4397,-3.4397,-3.4397,-3.4397,-3.4397,-3.4397,-3.4397,-1.5623,0.0,0.0,0.0,0.0,0.0,0.0,0.0,0.0,0.0,0.0,0.0,0.0,0.0,0.0,0.0,0.0,0.0,0.0,0.0,0.0,0.0,0.0,0.0,0.0,0.0,0.0,0.0,-2.7713,-2.7946,-2.7666,-2.7994,-2.8311,-2.8458,-2.9073,-2.9457,-2.9646,-2.9771,-2.9591,-2.9112,-2.9087,-2.8758,-2.8179,-2.8751,-2.9484,-3.0317,-3.0469,-3.1084,-3.1936,-3.1936,-3.1482,-3.0822,-3.0733,-3.0292,-2.9639,-2.9755,-2.9832,-2.9922,-3.052,-3.0672,-3.066,-3.1307,-3.1397,-3.1323,-3.1456,-3.1457,-3.1457,-3.1457,-3.1457,-3.1457,-3.1457,-3.1457,-3.1457,-3.1457,-3.1457,-3.1457,-3.1457,-3.1914,-3.2581,-3.343,-3.3705,-3.394,-3.4332,-3.4397,-3.4397,-3.4397,-3.4397,-3.4397,-3.4397,-3.4397,-3.4397,-3.4397,-3.4397,-3.4397,-3.4397,-3.4397,-3.4397,-3.4397,-3.4397,-3.4397,-3.4397,-3.4397,-3.4397,-3.4397,-3.4397,-3.4397,-3.4397,-3.4397,-3.4397,-3.4397,-3.4397,-3.4397,-1.6462,-1.703,-1.7882,-1.7805,0.0,0.0,0.0,-1.9413,0.0,0.0,0.0,0.0,0.0,0.0,0.0,0.0,0.0,0.0,0.0,0.0,0.0,0.0,0.0,0.0,0.0,0.0,0.0,0.0,-2.7131,-2.7275,-2.7183,-2.7334,-2.7636,-2.8079,-2.8551,-2.8938,-2.9102,-2.894,-2.8659,-2.827,-2.8002,-2.7946,-2.8102,-2.8407,-2.9311,-3.0658,-3.0658,-3.1246,-3.2218,-3.2218,-3.1753,-3.106,-3.0884,-3.0545,-3.0165,-3.0241,-3.0406,-3.0533,-3.0798,-3.0874,-3.0936,-3.1123,-3.1099,-3.0986,-3.0986,-3.0986,-3.0986,-3.0986,-3.0986,-3.0986,-3.0986,-3.0986,-3.0986,-3.0986,-3.0986,-3.0986,-3.0986,-3.1248,-3.1719,-3.2685,-3.3051,-3.3378,-3.3862,-3.3796,-3.3692,-3.3692,-3.3822,-3.4058,-3.4358,-3.4397,-3.4397,-3.4397,-3.4397,-3.4397,-3.4397,-3.4397,-3.4397,-3.4397,-3.4397,-3.4397,-3.4397,-3.4397,-3.4397,-3.4397,-3.4397,-3.4397,-3.4397,-3.4397,-3.4397,-3.4397,-3.4397,-3.4397,-1.7918,-1.7893,-1.829,-1.9193,0.0,0.0,-2.0062,-1.911,0.0,0.0,0.0,0.0,0.0,0.0,0.0,0.0,0.0,0.0,0.0,0.0,0.0,0.0,0.0,0.0,0.0,0.0,-2.5793,-2.5793,-2.5793,-2.6046,-2.6588,-2.6762,-2.7199,-2.7992,-2.8141,-2.833,-2.8587,-2.802,-2.7716,-2.7681,-2.7078,-2.7369,-2.8425,-2.8549,-2.9529,-3.1103,-3.1156,-3.1579,-3.2218,-3.2218,-3.2146,-3.1986,-3.0934,-3.0771,-3.1145,-3.0671,-3.0822,-3.1209,-3.0874,-3.1112,-3.1485,-3.1099,-3.0986,-3.0986,-3.0986,-3.0986,-3.0986,-3.0986,-3.0986,-3.0986,-3.0986,-3.0986,-3.0986,-3.0986,-3.0986,-3.0986,-3.0986,-3.0986,-3.1143,-3.1602,-3.2202,-3.2725,-3.3169,-3.2934,-3.2685,-3.2685,-3.2999,-3.3496,-3.4214,-3.4306,-3.4332,-3.4384,-3.4397,-3.4397,-3.4397,-3.4397,-3.4397,-3.4397,-3.4397,-3.4397,-3.4397,-3.4397,-3.4397,-3.4397,-3.4397,-3.4397,-3.4397,-3.4397,-3.4397,-3.4397,-3.4397,-3.4397,-1.8802,-1.8736,-1.8857,-1.7785,0.0,0.0,-1.8671,-1.8898,0.0,0.0,0.0,0.0,0.0,0.0,0.0,0.0,0.0,0.0,0.0,0.0,0.0,0.0,0.0,0.0,0.0,0.0,-2.5793,-2.5793,-2.5793,-2.5845,-2.5981,-2.6263,-2.6702,-2.7365,-2.7678,-2.808,-2.8587,-2.7661,-2.7173,-2.7139,-2.6538,-2.6591,-2.7258,-2.8189,-2.9301,-3.0599,-3.0998,-3.1579,-3.2218,-3.2218,-3.19,-3.1418,-3.1716,-3.1579,-3.1233,-3.1482,-3.1545,-3.1485,-3.1272,-3.1161,-3.1099,-3.1024,-3.0986,-3.0986,-3.0986,-3.0986,-3.0986,-3.0986,-3.0986,-3.0986,-3.0986,-3.0986,-3.0986,-3.0986,-3.0986,-3.0986,-3.0986,-3.0986,-3.1013,-3.113,-3.1614,-3.2137,-3.2725,-3.2738,-3.2685,-3.2685,-3.2764,-3.3038,-3.3679,-3.3757,-3.3914,-3.4345,-3.4397,-3.4397,-3.4397,-3.4397,-3.4397,-3.4397,-3.4397,-3.4397,-3.4397,-3.4397,-3.4397,-3.4397,-3.4397,-3.4397,-3.4397,-3.4397,-3.4397,-3.4397,-3.4397,-3.4397,-2.0518,-2.0157,0.0,-1.9246,0.0,0.0,0.0,0.0,-1.9014,0.0,0.0,0.0,0.0,0.0,0.0,0.0,0.0,0.0,0.0,0.0,0.0,0.0,0.0,0.0,0.0,0.0,-2.4618,-2.4918,-2.4944,-2.5123,-2.5472,-2.5716,-2.6165,-2.6832,-2.7103,-2.742,-2.7705,-2.6948,-2.655,-2.6563,-2.63,-2.6579,-2.742,-2.8275,-2.9285,-3.041,-3.0985,-3.142,-3.1762,-3.2096,-3.2009,-3.174,-3.2059,-3.1973,-3.174,-3.195,-3.1927,-3.1706,-3.1522,-3.1323,-3.1123,-3.1024,-3.0986,-3.0986,-3.0986,-3.0986,-3.0986,-3.0986,-3.0986,-3.0986,-3.0986,-3.0986,-3.0986,-3.0986,-3.0986,-3.0986,-3.0986,-3.0986,-3.0986,-3.0986,-3.1222,-3.1509,-3.1797,-3.1836,-3.1836,-3.1836,-3.1836,-3.2084,-3.2777,-3.2855,-3.3038,-3.3496,-3.3548,-3.3548,-3.3548,-3.3822,-3.3992,-3.3992,-3.4241,-3.4397,-3.4397,-3.4397,-3.4397,-3.4397,-3.4397,-3.4397,-3.4397,-3.4397,-3.4397,-3.4397,-3.4397,-3.4397,0.0,0.0,0.0,0.0,0.0,-2.0139,0.0,0.0,0.0,-1.9759,0.0,0.0,0.0,0.0,0.0,0.0,0.0,0.0,0.0,0.0,0.0,0.0,0.0,0.0,0.0,0.0,-2.325,-2.3746,-2.3757,-2.4092,-2.4833,-2.5113,-2.5581,-2.6321,-2.6543,-2.6671,-2.6793,-2.6332,-2.6122,-2.6238,-2.6186,-2.6759,-2.7894,-2.8444,-2.9266,-3.0269,-3.0866,-3.1192,-3.1327,-3.1816,-3.211,-3.2218,-3.2218,-3.2182,-3.2146,-3.2109,-3.1963,-3.1743,-3.1559,-3.1373,-3.1235,-3.1061,-3.0986,-3.0986,-3.0986,-3.0986,-3.0986,-3.0986,-3.0986,-3.0986,-3.0986,-3.0986,-3.0986,-3.0986,-3.0986,-3.0986,-3.0986,-3.0986,-3.0986,-3.0986,-3.0986,-3.0986,-3.0986,-3.0986,-3.0986,-3.0986,-3.0986,-3.1248,-3.1941,-3.2032,-3.2228,-3.2646,-3.2685,-3.2685,-3.2685,-3.3143,-3.347,-3.3587,-3.4005,-3.4293,-3.4397,-3.4397,-3.4397,-3.4397,-3.4397,-3.4397,-3.4397,-3.4397,-3.4397,-3.4397,-3.4397,-3.4397,0.0,0.0,0.0,0.0,-2.1949,0.0,0.0,0.0,-1.9239,-1.8391,0.0,0.0,0.0,0.0,0.0,0.0,0.0,0.0,0.0,0.0,0.0,0.0,0.0,0.0,0.0,0.0,0.0,-2.2584,-2.2583,-2.2913,-2.3646,-2.4332,-2.5039,-2.5776,-2.5937,-2.6267,-2.6779,-2.6295,-2.6291,-2.679,-2.6322,-2.6723,-2.7828,-2.8443,-2.9026,-2.9651,-3.0242,-3.0812,-3.13,-3.1368,-3.1707,-3.2218,-3.2218,-3.2109,-3.189,-3.172,-3.1545,-3.1347,-3.1136,-3.1061,-3.1024,-3.1024,-3.0986,-3.0986,-3.0986,-3.0986,-3.0986,-3.0986,-3.0986,-3.0986,-3.0986,-3.0986,-3.0986,-3.0986,-3.0986,-3.0986,-3.0986,-3.0986,-3.0986,-3.0986,-3.0986,-3.0986,-3.0986,-3.0986,-3.0986,-3.0986,-3.0986,-3.1196,-3.1758,-3.1836,-3.2045,-3.2633,-3.2685,-3.2685,-3.2685,-3.2751,-3.3025,-3.3561,-3.3652,-3.3901,-3.4384,-3.4397,-3.4397,-3.4397,-3.4397,-3.4397,-3.4397,-3.4397,-3.4397,-3.4397,-3.4397,-3.4397,0.0,0.0,0.0,0.0,0.0,0.0,-1.9544,0.0,-1.8696,0.0,0.0,0.0,0.0,0.0,0.0,0.0,0.0,0.0,0.0,0.0,0.0,0.0,0.0,0.0,0.0,0.0,0.0,0.0,0.0,-2.2498,-2.3671,-2.4035,-2.4521,-2.5272,-2.5356,-2.5507,-2.5765,-2.5585,-2.5774,-2.6398,-2.6504,-2.6994,-2.7822,-2.8372,-2.8756,-2.8994,-2.9604,-3.0011,-3.033,-3.1002,-3.1436,-3.1694,-3.1938,-3.1963,-3.189,-3.1683,-3.1471,-3.1272,-3.1198,-3.1099,-3.0986,-3.0986,-3.0986,-3.0986,-3.0986,-3.0986,-3.0986,-3.0986,-3.0986,-3.0986,-3.0986,-3.0986,-3.0986,-3.0986,-3.0986,-3.0986,-3.0986,-3.0986,-3.0986,-3.0986,-3.0986,-3.0986,-3.0986,-3.0986,-3.0986,-3.0986,-3.0986,-3.1065,-3.1313,-3.1352,-3.1431,-3.1679,-3.1705,-3.1705,-3.1705,-3.2006,-3.2306,-3.2515,-3.3208,-3.3835,-3.4384,-3.4397,-3.4397,-3.4397,-3.4397,-3.4397,-3.4397,-3.4397,-3.4397,-3.4397,-3.4397,-3.4397,-2.441,0.0,0.0,0.0,0.0,0.0,0.0,0.0,0.0,0.0,0.0,0.0,0.0,0.0,-1.9455,-2.0148,0.0,0.0,0.0,0.0,0.0,0.0,0.0,0.0,0.0,0.0,0.0,0.0,0.0,0.0,-2.3313,-2.3568,-2.3986,-2.4719,-2.4924,-2.5005,-2.5005,-2.5036,-2.5379,-2.5976,-2.656,-2.7189,-2.778,-2.8344,-2.8587,-2.8614,-2.9048,-2.9366,-2.9583,-3.0432,-3.0893,-3.1075,-3.1456,-3.1562,-3.1589,-3.1529,-3.1397,-3.1235,-3.1235,-3.1123,-3.0986,-3.0986,-3.0986,-3.0986,-3.0986,-3.0986,-3.0986,-3.0986,-3.0986,-3.0986,-3.0986,-3.0986,-3.0986,-3.0986,-3.0986,-3.0986,-3.0986,-3.0986,-3.0986,-3.0986,-3.0986,-3.0986,-3.0986,-3.0986,-3.0986,-3.0986,-3.0986,-3.1048,-3.1259,-3.1123,-3.1099,-3.1296,-3.1123,-3.0986,-3.0986,-3.1365,-3.1628,-3.1797,-3.2947,-3.377,-3.4162,-3.4319,-3.4397,-3.4397,-3.4397,-3.4397,-3.4397,-3.4397,-3.4397,-3.4397,-3.4397,-3.4397,0.0,0.0,0.0,-2.3173,0.0,0.0,0.0,0.0,-1.932,0.0,0.0,0.0,0.0,-1.8542,-1.8678,-1.9093,-1.9691,0.0,0.0,0.0,0.0,0.0,0.0,0.0,0.0,0.0,0.0,0.0,0.0,0.0,-2.2076,-2.2708,-2.338,-2.4109,-2.4706,-2.5005,-2.5005,-2.499,-2.5302,-2.5898,-2.6522,-2.7131,-2.7728,-2.8329,-2.8587,-2.8587,-2.8614,-2.894,-2.9515,-2.9543,-2.9889,-3.0465,-3.0646,-3.0752,-3.0783,-3.1172,-3.1161,-3.1024,-3.1024,-3.1024,-3.0986,-3.0986,-3.0986,-3.0986,-3.0986,-3.0986,-3.0986,-3.0986,-3.0986,-3.0986,-3.0986,-3.0986,-3.0986,-3.0986,-3.0986,-3.0986,-3.0986,-3.0986,-3.0986,-3.0986,-3.0986,-3.0986,-3.0986,-3.0986,-3.0986,-3.0986,-3.0986,-3.1259,-3.1978,-3.1431,-3.1259,-3.1978,-3.1431,-3.0986,-3.0986,-3.0999,-3.1248,-3.1771,-3.2947,-3.36,-3.3613,-3.4123,-3.4397,-3.4397,-3.4397,-3.4397,-3.4397,-3.4397,-3.4397,-3.4397,-3.4397,-3.4397,0.0,0.0,-2.4529,-2.2854,0.0,0.0,0.0,0.0,0.0,0.0,0.0,0.0,0.0,-1.8095,-1.8234,-1.863,-1.8897,-1.8727,0.0,0.0,0.0,0.0,0.0,0.0,0.0,0.0,0.0,0.0,0.0,0.0,0.0,-2.1826,-2.2419,-2.3472,-2.4082,-2.4611,-2.5005,-2.5005,-2.5303,-2.5887,-2.6104,-2.6742,-2.7718,-2.7908,-2.822,-2.8587,-2.8587,-2.8709,-2.8926,-2.9352,-2.9537,-2.9686,-3.041,-3.0618,-3.0553,-3.095,-3.1061,-3.0986,-3.0986,-3.0986,-3.0986,-3.0986,-3.0986,-3.0986,-3.0986,-3.0986,-3.0986,-3.0986,-3.0986,-3.0986,-3.0986,-3.0986,-3.0986,-3.0986,-3.0986,-3.0986,-3.0986,-3.0986,-3.0986,-3.0986,-3.0986,-3.0986,-3.0986,-3.0986,-3.0986,-3.0986,-3.1431,-3.1809,-3.2087,-3.2304,-3.2376,-3.2123,-3.1882,-3.1529,-3.1048,-3.0986,-3.1235,-3.1771,-3.2176,-3.2777,-3.3561,-3.377,-3.4031,-3.4384,-3.4397,-3.4397,-3.4397,-3.4397,-3.4397,-3.4397,-3.4397,-3.4397,-2.3681,-2.3666,0.0,-2.2255,-2.119,0.0,-1.9047,0.0,0.0,0.0,0.0,0.0,0.0,-1.8467,-1.8186,-1.9071,-1.8677,-1.7939,0.0,-1.6243,0.0,0.0,0.0,0.0,0.0,0.0,-1.8307,-1.9481,0.0,0.0,0.0,0.0,-2.1765,-2.2537,-2.3554,-2.4217,-2.4427,-2.4629,-2.4953,-2.5329,-2.5544,-2.6145,-2.7067,-2.7284,-2.7718,-2.8275,-2.8275,-2.8397,-2.8627,-2.9007,-2.9058,-2.8953,-2.9747,-3.0091,-3.0168,-3.0773,-3.0986,-3.0986,-3.0986,-3.0986,-3.0986,-3.0986,-3.0986,-3.0986,-3.0986,-3.0986,-3.0986,-3.0986,-3.0986,-3.0986,-3.0986,-3.0986,-3.0986,-3.0986,-3.0986,-3.0986,-3.0986,-3.0986,-3.0986,-3.0986,-3.0986,-3.0986,-3.0986,-3.1222,-3.1394,-3.1394,-3.1809,-3.229,-3.2812,-3.3073,-3.3003,-3.2541,-3.2254,-3.1809,-3.1048,-3.0986,-3.1143,-3.1471,-3.1693,-3.2228,-3.3234,-3.3483,-3.3849,-3.4384,-3.4397,-3.4397,-3.4397,-3.4397,-3.4397,-3.4397,-3.4397,-3.4397]},{"header":{"parameterUnit":"m.s-1","parameterCategory":1,"la1":30.6,"la2":29.2853,"lo1":-89.7004,"lo2":-87.6739,"dy":0.0162,"dx":0.0183,"nx":112,"ny":82,"refTime":"2024-05-27T12:00:00:Z","depth":0,"parameterNumber":3,"parameterNumberName":"V-component_of_WINDS"},"data":[0.0,0.0,0.0,0.0,0.0,0.0,0.0,0.0,0.0,0.0,0.0,0.0,0.0,0.0,0.0,0.0,0.0,0.0,0.0,0.0,0.0,0.0,0.0,0.0,0.0,0.0,0.0,0.0,0.0,0.0,0.0,0.0,0.0,0.0,0.0,0.0,0.0,0.0,0.0,0.0,0.0,0.0,0.0,0.0,0.0,0.0,0.0,0.0,0.0,0.0,0.0,0.0,0.0,0.0,0.0,0.0,0.0,0.0,0.0,0.0,0.0,0.0,0.0,0.0,0.0,0.0,0.0,0.0,0.0,0.0,0.0,0.0,0.0,0.0,0.0,0.0,0.0,0.0,0.0,0.0,0.0,0.0,0.0,0.0,0.0,0.0,0.0,0.0,0.0,0.0,-2.2628,-2.4998,-2.7295,-2.8641,-2.8539,-2.7808,-2.6373,-2.4029,0.0,0.0,0.0,0.0,0.0,0.0,0.0,0.0,0.0,0.0,0.0,0.0,0.0,0.0,0.0,0.0,0.0,0.0,0.0,0.0,0.0,0.0,0.0,0.0,0.0,0.0,0.0,0.0,0.0,0.0,0.0,0.0,0.0,0.0,0.0,0.0,0.0,0.0,0.0,0.0,0.0,0.0,0.0,0.0,0.0,0.0,0.0,0.0,0.0,0.0,0.0,0.0,0.0,0.0,0.0,0.0,0.0,0.0,0.0,0.0,0.0,0.0,0.0,0.0,0.0,0.0,0.0,0.0,0.0,0.0,0.0,0.0,0.0,0.0,0.0,0.0,0.0,0.0,0.0,0.0,0.0,0.0,0.0,0.0,0.0,0.0,0.0,0.0,0.0,0.0,0.0,0.0,0.0,0.0,0.0,0.0,0.0,0.0,0.0,0.0,0.0,0.0,0.0,0.0,-2.2164,-2.6767,-2.858,-2.9233,-2.8724,-2.8045,-2.6787,-2.4839,0.0,0.0,0.0,0.0,0.0,0.0,0.0,0.0,0.0,0.0,0.0,0.0,0.0,0.0,0.0,0.0,0.0,0.0,0.0,0.0,0.0,0.0,0.0,0.0,0.0,0.0,0.0,0.0,0.0,0.0,0.0,0.0,0.0,0.0,0.0,0.0,0.0,0.0,0.0,0.0,0.0,0.0,0.0,0.0,0.0,0.0,0.0,0.0,0.0,0.0,0.0,0.0,0.0,0.0,0.0,0.0,0.0,0.0,0.0,0.0,0.0,0.0,0.0,0.0,0.0,0.0,0.0,0.0,0.0,0.0,0.0,0.0,0.0,0.0,0.0,0.0,0.0,0.0,0.0,0.0,0.0,0.0,0.0,0.0,0.0,0.0,0.0,0.0,0.0,0.0,0.0,0.0,0.0,0.0,0.0,0.0,0.0,0.0,0.0,0.0,0.0,0.0,0.0,-2.2069,-2.407,-2.7853,-2.8768,-2.9,-2.8723,-2.81,-2.6883,-2.4955,-2.2841,0.0,0.0,0.0,0.0,0.0,0.0,0.0,0.0,0.0,0.0,0.0,0.0,0.0,0.0,0.0,0.0,0.0,0.0,0.0,0.0,0.0,0.0,0.0,0.0,0.0,0.0,0.0,0.0,0.0,0.0,0.0,0.0,0.0,0.0,0.0,0.0,0.0,0.0,0.0,0.0,0.0,0.0,0.0,0.0,0.0,0.0,0.0,0.0,0.0,0.0,0.0,0.0,0.0,0.0,0.0,0.0,0.0,0.0,0.0,0.0,0.0,0.0,0.0,0.0,0.0,0.0,0.0,0.0,0.0,0.0,0.0,0.0,0.0,0.0,0.0,0.0,0.0,0.0,0.0,0.0,0.0,0.0,0.0,0.0,0.0,0.0,0.0,0.0,0.0,0.0,0.0,0.0,0.0,0.0,0.0,0.0,0.0,0.0,0.0,0.0,0.0,0.0,-2.453,-2.6155,-2.8434,-2.897,-2.9028,-2.8738,-2.7955,-2.6651,-2.4708,-2.2363,0.0,0.0,0.0,0.0,0.0,0.0,0.0,0.0,0.0,0.0,0.0,0.0,0.0,0.0,0.0,0.0,0.0,0.0,0.0,0.0,0.0,0.0,0.0,0.0,0.0,0.0,0.0,0.0,0.0,0.0,0.0,0.0,0.0,0.0,0.0,0.0,0.0,0.0,0.0,0.0,0.0,0.0,0.0,0.0,0.0,0.0,0.0,0.0,0.0,0.0,0.0,0.0,0.0,0.0,0.0,0.0,0.0,0.0,0.0,0.0,0.0,0.0,0.0,0.0,0.0,0.0,0.0,0.0,0.0,0.0,0.0,0.0,0.0,0.0,0.0,0.0,0.0,0.0,0.0,0.0,0.0,0.0,0.0,0.0,0.0,0.0,0.0,0.0,0.0,0.0,0.0,0.0,0.0,0.0,0.0,0.0,0.0,0.0,0.0,0.0,0.0,0.0,-2.4776,-2.7171,-2.8564,-2.9769,-2.9987,-2.8811,-2.7576,-2.6025,-2.408,-2.13,0.0,0.0,0.0,0.0,0.0,0.0,0.0,0.0,0.0,0.0,0.0,0.0,0.0,0.0,0.0,0.0,0.0,0.0,0.0,0.0,0.0,0.0,0.0,0.0,0.0,0.0,0.0,0.0,0.0,0.0,0.0,0.0,0.0,0.0,0.0,0.0,0.0,0.0,0.0,0.0,0.0,0.0,0.0,0.0,0.0,0.0,0.0,0.0,0.0,0.0,0.0,0.0,0.0,0.0,0.0,0.0,0.0,0.0,0.0,0.0,0.0,0.0,0.0,0.0,0.0,0.0,0.0,0.0,0.0,0.0,0.0,0.0,0.0,0.0,0.0,0.0,0.0,0.0,0.0,0.0,0.0,0.0,0.0,0.0,0.0,0.0,0.0,0.0,0.0,0.0,0.0,0.0,0.0,0.0,0.0,0.0,0.0,0.0,0.0,0.0,0.0,0.0,-2.4355,-2.6428,0.0,-2.9456,-2.9643,-2.8781,-2.7851,-2.6326,-2.4031,0.0,0.0,0.0,0.0,0.0,0.0,0.0,0.0,0.0,0.0,0.0,0.0,0.0,0.0,0.0,0.0,0.0,0.0,0.0,0.0,0.0,0.0,0.0,0.0,0.0,0.0,0.0,0.0,0.0,0.0,0.0,0.0,0.0,0.0,0.0,0.0,0.0,0.0,0.0,0.0,0.0,0.0,0.0,0.0,0.0,0.0,0.0,0.0,0.0,0.0,0.0,0.0,0.0,0.0,0.0,0.0,0.0,0.0,0.0,0.0,0.0,0.0,0.0,0.0,0.0,0.0,0.0,0.0,0.0,0.0,0.0,0.0,0.0,0.0,0.0,0.0,0.0,0.0,0.0,0.0,0.0,0.0,0.0,0.0,0.0,0.0,0.0,0.0,0.0,0.0,0.0,0.0,0.0,0.0,0.0,0.0,0.0,0.0,0.0,0.0,0.0,0.0,-2.2761,-2.4675,-2.6629,0.0,-2.9976,-3.0147,-2.9277,-2.8175,-2.6522,-2.417,0.0,0.0,0.0,0.0,0.0,0.0,0.0,0.0,0.0,0.0,0.0,0.0,0.0,0.0,0.0,0.0,0.0,0.0,0.0,0.0,0.0,0.0,0.0,0.0,0.0,0.0,0.0,0.0,0.0,0.0,0.0,0.0,0.0,0.0,0.0,0.0,0.0,0.0,0.0,0.0,0.0,0.0,0.0,0.0,0.0,0.0,0.0,0.0,0.0,0.0,0.0,0.0,0.0,0.0,0.0,0.0,0.0,0.0,0.0,0.0,0.0,0.0,0.0,0.0,0.0,0.0,0.0,0.0,0.0,0.0,0.0,0.0,0.0,0.0,0.0,0.0,0.0,0.0,0.0,0.0,0.0,0.0,0.0,0.0,0.0,0.0,0.0,0.0,0.0,0.0,0.0,0.0,0.0,0.0,0.0,0.0,0.0,0.0,0.0,0.0,0.0,0.0,-2.3366,-2.6008,-2.8304,-3.013,-3.1567,-3.1828,-3.0428,-2.8513,-2.6533,0.0,0.0,0.0,0.0,0.0,0.0,0.0,0.0,0.0,0.0,0.0,0.0,0.0,0.0,0.0,0.0,0.0,0.0,0.0,0.0,0.0,0.0,0.0,0.0,0.0,0.0,0.0,0.0,0.0,0.0,0.0,0.0,0.0,0.0,0.0,0.0,0.0,0.0,0.0,0.0,0.0,0.0,0.0,0.0,0.0,0.0,0.0,0.0,0.0,0.0,0.0,0.0,0.0,0.0,0.0,0.0,0.0,0.0,0.0,0.0,0.0,0.0,0.0,0.0,0.0,0.0,0.0,0.0,0.0,0.0,0.0,0.0,0.0,0.0,0.0,0.0,0.0,0.0,0.0,0.0,0.0,0.0,0.0,0.0,0.0,0.0,0.0,0.0,0.0,0.0,0.0,0.0,0.0,0.0,0.0,0.0,0.0,0.0,0.0,0.0,0.0,0.0,0.0,-2.4478,-2.7194,-2.9434,-3.0916,-3.2215,-3.2253,-3.0454,-2.9309,-2.7433,-2.4492,0.0,0.0,0.0,0.0,0.0,0.0,0.0,0.0,0.0,0.0,0.0,0.0,0.0,0.0,0.0,0.0,0.0,0.0,0.0,0.0,0.0,0.0,0.0,0.0,0.0,0.0,0.0,0.0,0.0,0.0,0.0,0.0,0.0,0.0,0.0,0.0,0.0,0.0,0.0,0.0,0.0,0.0,0.0,0.0,0.0,0.0,0.0,0.0,0.0,0.0,0.0,0.0,0.0,0.0,0.0,0.0,0.0,0.0,0.0,0.0,0.0,0.0,0.0,0.0,0.0,0.0,0.0,0.0,0.0,0.0,0.0,0.0,0.0,0.0,0.0,0.0,0.0,0.0,0.0,0.0,0.0,0.0,0.0,0.0,0.0,0.0,0.0,0.0,0.0,0.0,0.0,0.0,0.0,0.0,0.0,0.0,0.0,0.0,0.0,0.0,0.0,0.0,-2.5269,-2.8038,-3.036,-3.1892,-3.2974,-3.2978,-3.1539,-3.0474,-2.8682,-2.5826,0.0,0.0,0.0,0.0,0.0,0.0,0.0,0.0,0.0,0.0,0.0,0.0,0.0,0.0,0.0,0.0,0.0,0.0,0.0,0.0,0.0,0.0,0.0,0.0,0.0,0.0,0.0,0.0,0.0,0.0,0.0,0.0,0.0,0.0,0.0,0.0,0.0,0.0,0.0,0.0,0.0,0.0,0.0,0.0,0.0,0.0,0.0,0.0,0.0,0.0,0.0,0.0,0.0,0.0,0.0,0.0,0.0,0.0,0.0,0.0,0.0,0.0,0.0,0.0,0.0,0.0,0.0,0.0,0.0,0.0,0.0,0.0,0.0,0.0,0.0,0.0,0.0,0.0,0.0,0.0,0.0,0.0,0.0,0.0,0.0,0.0,0.0,0.0,0.0,0.0,0.0,0.0,0.0,0.0,0.0,0.0,0.0,0.0,0.0,0.0,0.0,0.0,-2.5966,-2.8755,-3.1158,-3.3008,-3.3744,-3.3825,-3.317,-3.1769,-2.9982,-2.785,0.0,0.0,0.0,0.0,0.0,0.0,0.0,0.0,0.0,0.0,0.0,0.0,0.0,0.0,0.0,0.0,0.0,0.0,0.0,0.0,0.0,0.0,0.0,0.0,0.0,0.0,0.0,0.0,0.0,0.0,0.0,0.0,0.0,0.0,0.0,0.0,0.0,0.0,0.0,0.0,0.0,0.0,0.0,0.0,0.0,0.0,0.0,0.0,0.0,0.0,0.0,0.0,0.0,0.0,0.0,0.0,0.0,0.0,0.0,0.0,-1.78,0.0,0.0,0.0,0.0,0.0,0.0,0.0,0.0,0.0,0.0,0.0,0.0,0.0,0.0,0.0,0.0,0.0,0.0,0.0,0.0,0.0,0.0,0.0,0.0,0.0,0.0,0.0,0.0,0.0,0.0,0.0,0.0,0.0,0.0,0.0,0.0,0.0,0.0,0.0,0.0,0.0,-2.778,-3.0232,-3.2224,-3.3728,-3.4003,-3.3825,-3.317,-3.1769,-2.9982,-2.785,-2.5478,0.0,0.0,0.0,0.0,0.0,0.0,0.0,0.0,0.0,0.0,0.0,0.0,0.0,0.0,0.0,0.0,0.0,0.0,0.0,0.0,0.0,0.0,0.0,0.0,0.0,0.0,0.0,0.0,0.0,0.0,0.0,0.0,0.0,0.0,0.0,0.0,0.0,0.0,0.0,0.0,0.0,0.0,0.0,0.0,0.0,0.0,0.0,0.0,0.0,0.0,0.0,0.0,0.0,0.0,0.0,0.0,0.0,0.0,0.0,0.0,-1.9817,0.0,0.0,0.0,0.0,0.0,0.0,0.0,0.0,0.0,0.0,0.0,0.0,0.0,0.0,0.0,0.0,0.0,0.0,0.0,0.0,0.0,0.0,0.0,0.0,0.0,0.0,0.0,0.0,0.0,0.0,0.0,0.0,0.0,0.0,0.0,0.0,0.0,0.0,0.0,0.0,-2.8389,-3.0668,-3.2546,-3.3955,-3.4101,-3.3955,-3.3599,-3.2579,-3.1186,-2.9351,-2.7219,0.0,0.0,0.0,0.0,0.0,0.0,0.0,0.0,0.0,0.0,0.0,0.0,0.0,0.0,0.0,0.0,0.0,0.0,0.0,0.0,0.0,0.0,0.0,0.0,0.0,0.0,0.0,0.0,0.0,0.0,0.0,0.0,0.0,0.0,0.0,0.0,0.0,0.0,0.0,0.0,0.0,0.0,0.0,0.0,0.0,0.0,0.0,0.0,0.0,0.0,0.0,0.0,0.0,-2.3075,-2.3842,-2.4908,-2.5541,-2.6062,-2.6399,-2.3853,-2.3014,-2.3303,0.0,0.0,0.0,0.0,0.0,0.0,0.0,0.0,0.0,0.0,0.0,0.0,0.0,0.0,0.0,0.0,0.0,0.0,0.0,0.0,0.0,0.0,0.0,0.0,0.0,-3.0077,-2.9586,0.0,0.0,0.0,0.0,0.0,0.0,0.0,0.0,0.0,0.0,0.0,0.0,-2.879,-3.0943,-3.2676,-3.3955,-3.4101,-3.4101,-3.4101,-3.3485,-3.253,-3.1179,-2.9211,-2.7219,0.0,0.0,0.0,0.0,0.0,0.0,0.0,0.0,0.0,0.0,0.0,0.0,0.0,0.0,0.0,0.0,0.0,0.0,0.0,0.0,0.0,0.0,0.0,0.0,0.0,0.0,0.0,0.0,0.0,0.0,0.0,0.0,-1.3051,-1.5002,0.0,0.0,0.0,0.0,0.0,0.0,0.0,0.0,0.0,0.0,0.0,0.0,0.0,0.0,-2.2911,-2.4847,-2.5786,-2.5743,-2.767,-2.8406,-2.8099,-2.8717,-2.904,-2.9097,-2.8675,0.0,-2.6161,-2.491,0.0,0.0,0.0,0.0,0.0,0.0,0.0,0.0,0.0,0.0,0.0,0.0,0.0,0.0,0.0,0.0,0.0,0.0,0.0,0.0,0.0,0.0,-3.1381,-3.1644,-3.1766,-3.1709,0.0,-3.011,-2.8487,-2.56,0.0,0.0,0.0,0.0,0.0,0.0,0.0,0.0,-3.0257,-3.1996,-3.3242,-3.402,-3.4101,-3.4101,-3.4101,-3.3485,-3.274,-3.1915,-3.0425,-2.92,-2.8276,-2.5748,0.0,0.0,0.0,0.0,0.0,0.0,0.0,0.0,0.0,0.0,0.0,0.0,0.0,0.0,0.0,0.0,0.0,0.0,0.0,0.0,0.0,0.0,0.0,0.0,0.0,0.0,0.0,0.0,0.0,-1.2787,-1.4966,-1.6214,-1.6944,-1.711,0.0,0.0,0.0,0.0,0.0,0.0,0.0,0.0,0.0,-2.2958,-2.4269,-2.537,-2.6222,-2.7515,-2.8519,-2.923,-3.0199,-3.0881,-3.1302,-3.1569,-3.1845,-3.2182,-3.2182,-3.1705,-3.075,-2.8141,-2.6905,-2.661,0.0,0.0,0.0,0.0,0.0,-2.8042,-2.9104,0.0,0.0,0.0,0.0,0.0,0.0,0.0,0.0,0.0,0.0,0.0,0.0,0.0,0.0,-3.2718,-3.344,-3.3849,-3.3419,-3.342,-3.2526,0.0,-2.8914,-2.8271,-2.5308,0.0,0.0,0.0,0.0,-2.9394,-3.1817,-3.3032,-3.3922,-3.4635,-3.4725,-3.4538,-3.4133,-3.3825,-3.3356,-3.2659,-3.1639,-3.0593,-2.9459,-2.7806,-2.6024,0.0,0.0,0.0,0.0,0.0,0.0,0.0,0.0,0.0,0.0,0.0,0.0,0.0,0.0,0.0,0.0,0.0,0.0,0.0,0.0,0.0,0.0,0.0,0.0,0.0,0.0,0.0,0.0,-1.4897,-1.6954,-1.7796,-1.8979,-1.9429,0.0,0.0,0.0,0.0,0.0,0.0,-2.233,-2.3796,-2.5148,-2.6397,-2.7695,-2.8699,-2.9329,-3.0086,-3.1029,-3.2066,-3.2322,-3.2904,-3.3789,-3.3789,-3.4042,-3.4478,-3.4478,-3.4478,-3.4239,-3.1148,-2.9785,-2.9588,-2.897,-2.9079,-2.9595,-2.974,-3.0287,-3.1104,-3.2372,-3.2625,-3.2333,-3.2078,0.0,-2.9363,-2.7696,0.0,0.0,0.0,0.0,-2.9776,-3.1182,0.0,-3.2788,-3.392,-3.4919,-3.5466,-3.4942,-3.5769,-3.5613,0.0,-3.2329,-3.1866,-2.8854,0.0,0.0,0.0,0.0,-3.1436,-3.3396,-3.423,-3.4878,-3.5412,-3.5325,-3.4984,-3.4424,-3.4214,-3.389,-3.3372,-3.2498,-3.1526,-3.048,-2.9394,-2.7709,-2.5357,0.0,0.0,0.0,0.0,0.0,0.0,0.0,0.0,0.0,0.0,0.0,0.0,0.0,0.0,0.0,0.0,0.0,0.0,0.0,0.0,0.0,0.0,0.0,0.0,0.0,0.0,0.0,0.0,0.0,-2.1001,-2.2291,0.0,0.0,0.0,0.0,-2.1974,-2.3487,-2.4791,-2.56,-2.7171,-2.8581,-2.9734,-3.0741,-3.1541,-3.2082,-3.3334,-3.3826,-3.3591,-3.4579,-3.5048,-3.5091,-3.5091,-3.5119,-3.5147,-3.5147,-3.5147,-3.5034,-3.3649,-3.275,-3.2159,-3.1541,-3.1671,-3.2222,-3.2222,-3.3107,-3.4299,-3.456,-3.5092,-3.5698,-3.5863,-3.4268,-3.214,-3.1205,-3.0235,0.0,0.0,-3.16,-3.2603,-3.3877,-3.469,-3.5378,-3.6011,-3.622,-3.6272,-3.6294,-3.6856,-3.6693,0.0,-3.4568,-3.4563,-3.3032,0.0,-3.2012,-3.2676,-3.2878,-3.3477,-3.492,-3.5736,-3.6206,-3.6254,-3.5606,-3.5195,-3.5163,-3.4489,-3.4084,-3.4052,-3.2773,-3.1979,-3.1898,-2.9891,-2.8385,-2.7559,-2.5503,0.0,0.0,0.0,0.0,0.0,0.0,0.0,0.0,0.0,0.0,0.0,0.0,0.0,0.0,0.0,0.0,0.0,0.0,0.0,0.0,0.0,0.0,0.0,0.0,0.0,0.0,0.0,0.0,-2.2963,-2.4227,0.0,-2.4866,-2.4682,-2.4895,-2.561,-2.6106,-2.709,-2.8695,-2.9609,-3.0854,-3.2654,-3.3073,-3.3542,-3.4163,-3.4607,-3.4989,-3.5269,-3.5592,-3.5991,-3.637,-3.637,-3.637,-3.637,-3.637,-3.637,-3.6342,-3.5855,-3.5082,-3.419,-3.398,-3.4009,-3.4228,-3.4298,-3.4651,-3.5102,-3.531,-3.556,-3.5735,-3.554,-3.4996,-3.4215,-3.3477,-3.3004,-3.2864,-3.3685,-3.4112,-3.4545,-3.5401,-3.5807,-3.6025,-3.6257,-3.6301,-3.6314,-3.6327,-3.7252,-3.7549,-3.5918,-3.6117,-3.5963,-3.4068,-3.4311,-3.4538,-3.3841,-3.4554,-3.5509,-3.6432,-3.6788,-3.6923,-3.6923,-3.6319,-3.572,-3.5244,-3.4505,-3.3922,-3.3469,-3.2983,-3.2287,-3.1325,-3.0548,-2.9389,-2.7737,-2.6523,-2.4628,0.0,0.0,0.0,0.0,0.0,0.0,0.0,0.0,0.0,0.0,0.0,0.0,0.0,0.0,0.0,0.0,0.0,0.0,0.0,0.0,0.0,0.0,0.0,0.0,0.0,0.0,-2.3163,-2.4656,-2.6035,-2.7003,-2.7411,-2.7345,-2.7687,-2.8652,-2.8999,-2.9855,-3.1437,-3.2097,-3.3142,-3.4801,-3.4857,-3.5152,-3.5808,-3.5808,-3.6019,-3.6413,-3.6413,-3.6624,-3.6978,-3.6978,-3.6978,-3.6978,-3.6978,-3.6978,-3.6978,-3.6978,-3.6539,-3.5808,-3.5808,-3.5808,-3.5808,-3.5921,-3.5921,-3.5972,-3.6159,-3.6271,-3.6282,-3.5798,-3.5776,-3.5824,-3.5137,-3.4984,-3.514,-3.5595,-3.5886,-3.6112,-3.6533,-3.6794,-3.6939,-3.6939,-3.6939,-3.6896,-3.6693,-3.7531,-3.8038,-3.6933,-3.7266,-3.7179,-3.5498,-3.583,-3.6125,-3.5629,-3.6173,-3.6902,-3.757,-3.7651,-3.7651,-3.7651,-3.7036,-3.6351,-3.5623,-3.4667,-3.3906,-3.3469,-3.2757,-3.2044,-3.1292,-3.0581,-2.9421,-2.7737,-2.6798,-2.5389,-2.3479,0.0,0.0,0.0,0.0,0.0,0.0,0.0,0.0,0.0,0.0,0.0,0.0,0.0,0.0,0.0,0.0,0.0,0.0,0.0,0.0,0.0,0.0,0.0,-2.0551,-2.2777,-2.4805,-2.6209,-2.7821,-2.8816,-2.883,-2.9609,-3.0356,-3.0963,-3.2159,-3.3113,-3.3707,-3.471,-3.5498,-3.6117,-3.6131,-3.6427,-3.6978,-3.6978,-3.6978,-3.6978,-3.6978,-3.6978,-3.6978,-3.6978,-3.6978,-3.6978,-3.6978,-3.6978,-3.6978,-3.6978,-3.6978,-3.6978,-3.6978,-3.6978,-3.6978,-3.6978,-3.6978,-3.7017,-3.7226,-3.7419,-3.7472,-3.691,-3.6874,-3.6907,-3.6259,-3.6216,-3.6359,-3.6359,-3.6838,-3.7346,-3.7295,-3.7767,-3.8202,-3.8202,-3.8202,-3.8043,-3.7462,-3.7868,-3.8142,-3.744,-3.7955,-3.8271,-3.7545,-3.6832,-3.6797,-3.8193,-3.7792,0.0,-3.8311,-3.8391,-3.8391,-3.8391,-3.7744,-3.702,-3.6367,-3.4975,-3.4101,-3.4036,-3.2069,-3.1244,-3.1947,-2.9972,-2.8514,-2.7786,-2.6374,-2.5662,-2.5629,0.0,0.0,0.0,0.0,0.0,0.0,0.0,0.0,0.0,0.0,0.0,0.0,0.0,0.0,0.0,0.0,0.0,0.0,0.0,0.0,0.0,0.0,-2.1397,-2.242,-2.4771,-2.685,-2.8181,-2.9868,-3.1227,-3.1971,-3.2375,-3.2869,-3.3527,-3.3901,-3.4357,-3.4951,-3.5525,-3.6131,-3.675,-3.6764,-3.681,-3.6978,-3.6978,-3.6978,-3.6978,-3.6978,-3.6978,-3.6978,-3.6978,-3.6978,-3.6978,-3.6978,-3.6978,-3.6978,-3.6978,-3.6978,-3.6978,-3.6978,-3.6978,-3.6978,-3.6978,-3.6978,-3.7017,-3.707,-3.7226,-3.7352,-3.7181,-3.7368,-3.7604,-3.7417,-3.7509,-3.7643,-3.7523,-3.7713,-3.7918,-3.7783,-3.7988,-3.8202,-3.8202,-3.8202,-3.8159,-3.7984,-3.8502,-3.8692,-3.7512,-3.7908,-3.8328,-3.8104,-3.7529,-3.7385,-3.8274,-3.823,0.0,-3.8375,-3.8391,-3.8391,-3.8391,-3.7744,-3.702,-3.6367,-3.5428,-3.4214,-3.2676,-3.2028,-3.1535,-3.1212,-3.0629,-3.0004,-2.9313,-2.7867,-2.6895,0.0,0.0,0.0,0.0,0.0,0.0,0.0,0.0,0.0,0.0,0.0,0.0,0.0,0.0,0.0,0.0,0.0,0.0,0.0,0.0,0.0,0.0,-2.0857,-2.2876,-2.4457,-2.6324,-2.81,-2.9604,-3.1047,-3.2236,-3.3085,-3.3643,-3.425,-3.4886,-3.5117,-3.5495,-3.6108,-3.6329,-3.6652,-3.6978,-3.6978,-3.6978,-3.6978,-3.6978,-3.6978,-3.6978,-3.6978,-3.6978,-3.6978,-3.6978,-3.6978,0.0,-3.6978,-3.6978,-3.6978,-3.6978,-3.6978,0.0,0.0,0.0,0.0,0.0,-3.6978,-3.6978,-3.6978,-3.707,-3.7187,-3.7187,-3.7457,-3.7777,-3.7777,-3.7915,-3.8066,-3.7929,-3.7967,-3.8066,-3.7929,-3.8066,-3.8202,-3.8202,-3.8202,-3.8202,-3.8202,-3.8546,-3.8627,-3.7812,0.0,0.0,-3.8709,-3.8247,-3.8054,-3.8762,-3.8845,-3.8748,0.0,-3.8391,-3.8391,-3.8391,-3.8019,-3.7485,-3.6788,-3.5785,0.0,0.0,0.0,-3.1665,-3.0937,-3.0904,0.0,0.0,0.0,0.0,0.0,0.0,0.0,0.0,-2.8957,-2.9399,0.0,0.0,0.0,0.0,0.0,0.0,0.0,0.0,0.0,0.0,0.0,0.0,0.0,0.0,0.0,0.0,-2.2205,-2.4116,-2.6396,-2.7603,-2.8857,-3.0591,-3.1648,-3.2488,-3.3122,-3.4125,-3.4944,-3.5482,-3.5948,-3.6455,-3.695,0.0,0.0,0.0,0.0,-3.7091,-3.7091,-3.7161,-3.7189,-3.7189,-3.7189,-3.7189,-3.7189,-3.7189,-3.7189,-3.7189,-3.7189,-3.7189,-3.7189,-3.7189,-3.7189,-3.7189,-3.7035,-3.6978,-3.6978,-3.6978,-3.6978,0.0,0.0,0.0,0.0,-3.6978,-3.7264,-3.7586,-3.7586,-3.7701,-3.7853,-3.7853,-3.7853,-3.7891,-3.7853,-3.8028,-3.8202,-3.8202,-3.8202,-3.8202,-3.8202,-3.8202,-3.8202,-3.8202,-3.831,-3.8592,-3.9264,-3.8923,-3.8762,-3.9495,-3.9554,0.0,-3.8602,-3.844,-3.8391,-3.8391,0.0,0.0,-3.7344,-3.6141,-3.5341,-3.5098,-3.321,-3.1834,-3.1179,-3.1228,-3.1228,-3.1147,-3.1228,-3.1568,-3.2238,-3.3566,-3.3955,-3.3404,-3.1517,-3.1628,0.0,0.0,0.0,0.0,0.0,0.0,0.0,0.0,0.0,0.0,0.0,0.0,0.0,0.0,0.0,-2.1716,-2.3232,-2.4969,-2.7176,-2.8713,-3.0049,-3.1262,-3.239,-3.3426,-3.4343,-3.5399,-3.6087,-3.6212,-3.659,-3.6866,-3.6978,-3.6978,0.0,-3.6978,-3.7456,-3.7723,-3.7723,-3.8243,-3.8536,-3.8536,0.0,0.0,-3.8536,-3.8536,-3.8536,-3.8536,-3.8536,-3.8536,-3.8536,-3.8536,-3.8536,-3.8438,-3.7386,-3.6978,-3.6978,-3.6978,-3.6978,-3.6978,-3.6978,-3.6978,-3.6978,-3.6978,-3.7148,-3.7341,-3.7341,-3.7495,0.0,-3.7457,-3.7663,-3.7853,-3.7701,-3.7915,-3.8202,-3.8202,-3.8202,-3.8202,-3.8202,-3.8202,-3.8202,-3.8202,-3.8213,-3.848,-3.9197,-3.9316,-3.9532,-4.0183,-3.9862,-3.9457,-3.9327,-3.8764,-3.8391,-3.8391,-3.8391,-3.81,-3.7344,-3.7036,-3.6157,-3.4424,-3.3404,-3.2805,-3.2676,-3.3194,-3.3226,-3.2692,-3.321,-3.355,-3.3696,-3.4554,-3.5218,-3.5671,-3.5266,-3.4984,0.0,0.0,0.0,0.0,0.0,0.0,0.0,0.0,0.0,0.0,0.0,-1.7776,0.0,0.0,-2.1388,-2.3077,-2.4354,-2.5933,-2.8187,-2.9581,-3.0666,-3.1571,-3.2737,-3.3715,-3.4419,-3.5424,-3.6152,-3.6365,-3.6772,-3.6978,-3.6978,-3.7274,-3.7442,-3.7442,-3.806,-3.8383,-3.8383,-3.8747,-3.8902,-3.8902,-3.8902,-3.8902,-3.8902,-3.8902,-3.8902,-3.8902,-3.8902,-3.8902,-3.8902,-3.8902,-3.8902,-3.8846,-3.8213,-3.7737,-3.7442,-3.7442,-3.7245,-3.6978,-3.6978,-3.6978,-3.6978,-3.6978,-3.7148,-3.7303,-3.7303,-3.738,-3.7419,-3.7341,-3.7495,-3.7739,-3.7625,-3.7915,-3.8202,-3.8202,-3.8202,-3.8202,-3.8202,-3.8202,-3.8202,-3.8202,-3.8523,-3.8863,-3.9247,-3.9657,-4.0066,-4.0433,-4.0206,-3.9865,-3.9554,-3.8845,-3.8391,-3.8391,-3.8391,-3.8262,-3.789,-3.7506,-3.6697,-3.5299,-3.4894,-3.47,-3.47,-3.5024,-3.504,-3.4716,-3.5024,-3.5202,-3.5202,-3.5914,-3.6448,-3.6837,-3.7566,-3.7501,0.0,0.0,0.0,0.0,0.0,0.0,0.0,-1.3631,-1.4437,-1.6098,-1.7528,-1.8902,-2.0106,-2.1594,-2.3032,-2.437,-2.5472,-2.6922,-2.9148,-3.0281,-3.1198,-3.2032,-3.3025,-3.3789,-3.4326,-3.5197,-3.5884,-3.6351,-3.6772,-3.7035,-3.7161,-3.7639,-3.7962,-3.8088,-3.8747,-3.9085,-3.9085,-3.9197,-3.9268,-3.9268,-3.9268,-3.9268,-3.9268,-3.9268,-3.9268,-3.9268,-3.9268,-3.9268,-3.9268,-3.9268,-3.9268,-3.9268,-3.9268,-3.8833,-3.8257,-3.8131,-3.7779,-3.7358,-3.7358,-3.7259,-3.7161,-3.7161,-3.7208,-3.7197,-3.7123,-3.708,-3.7052,-3.6939,-3.7148,-3.7439,-3.7439,-3.7814,-3.8202,-3.8202,-3.8202,-3.8202,-3.8202,-3.8202,-3.8202,-3.8202,-3.8694,-3.9103,-3.9103,-3.9697,-4.0247,-4.044,-4.0388,-4.0102,-3.953,-3.885,-3.8395,-3.8408,-3.8391,-3.8391,-3.8391,-3.7728,-3.7053,-3.6546,-3.6384,-3.6303,-3.6303,-3.6303,-3.6303,-3.6303,-3.6432,-3.6497,-3.6513,-3.7166,-3.7506,-3.7538,-3.8877,-3.9169,-0.8579,-0.9696,-1.0984,-1.2128,-1.2193,-1.2551,0.0,-1.5916,-1.6782,-1.8042,-1.9785,-2.1261,-2.1827,-2.3053,-2.4331,-2.5386,-2.64,-2.7708,-2.9642,-3.0844,-3.1976,-3.3229,-3.3509,-3.3987,-3.4898,-3.544,-3.5884,-3.6351,-3.6772,-3.7217,-3.7765,-3.7864,-3.8159,-3.8775,-3.9394,-3.9676,-3.9676,-4.0224,-4.0491,-4.0491,-4.0491,-4.0491,-4.0491,-4.0491,-4.0491,-4.0491,-4.0491,-4.0491,-4.0491,-4.0491,-4.0491,-4.0491,-4.0491,-4.0112,-3.9507,-3.9,-3.8761,-3.8705,-3.8705,-3.8285,-3.7793,-3.7793,-3.7467,-3.6919,-3.6423,-3.6254,-3.6141,-3.5592,-3.6093,-3.6796,-3.6796,-3.7497,-3.8202,-3.8202,-3.8202,-3.8202,-3.8202,-3.8202,-3.8202,-3.8202,-3.8277,-3.83,-3.83,-3.8921,-3.9632,-4.0324,-3.989,-3.9489,-3.9424,-3.8774,-3.8334,-3.84,-3.8391,-3.8391,-3.8391,-3.7728,-3.7263,-3.7182,-3.6643,-3.6303,-3.6303,-3.6303,-3.6303,-3.6303,-3.6875,-3.7182,-3.7182,-3.7922,-3.8278,-3.8294,-3.9104,-3.9473,-1.0042,-1.0962,-1.1825,-1.2817,-1.3461,-1.4222,-1.5716,-1.6639,-1.747,-1.8441,-1.9686,-2.0855,-2.1792,-2.3069,-2.4348,0.0,-2.6855,-2.8372,-3.0212,-3.1348,-3.2509,-3.3892,-3.4058,-3.4438,-3.5372,-3.5602,-3.6005,-3.6693,-3.7251,-3.7625,-3.7892,-3.8594,-3.9114,-3.9395,-3.9999,-4.0308,-4.0308,-4.0561,-4.0702,-4.0702,-4.0702,-4.0702,-4.0702,-4.0702,-4.0702,-4.0702,-4.0702,-4.0702,-4.0702,-4.0702,-4.0702,-4.0702,-4.0702,-4.0547,-4.0238,-3.9634,-3.9211,-3.8902,-3.8902,-3.8733,-3.8454,-3.8454,-3.8032,-3.74,-3.6796,-3.6399,-3.5977,-3.5358,-3.5631,-3.6125,-3.6125,-3.6605,-3.7099,-3.7099,-3.7404,-3.768,-3.768,-3.7955,-3.8202,-3.8202,-3.8546,-3.8826,-3.8826,-3.9448,-4.0034,-4.0347,-3.9828,-3.94,-3.9393,-3.8762,-3.8324,-3.8371,-3.8391,-3.8391,-3.8391,-3.8116,-3.7954,-3.7954,-3.7679,-3.7517,-3.7517,-3.7517,-3.7517,-3.7517,-3.7809,-3.7954,-3.7954,-3.8246,-3.8618,-3.9055,-3.9752,-4.0316,-1.1002,-1.1782,-1.2489,-1.3671,-1.4698,-1.568,-1.6606,-1.7339,-1.8027,-1.8733,-1.9506,-2.0422,-2.158,-2.302,-2.4425,-2.5693,-2.7247,-2.8833,-3.047,-3.1626,-3.2747,-3.3966,-3.4272,-3.4729,-3.5642,-3.571,-3.6071,-3.694,-3.7555,-3.7976,-3.8159,-3.9198,-3.9859,-4.0027,-4.0463,-4.0702,-4.0702,-4.0702,-4.0702,-4.0702,-4.0702,-4.0702,-4.0702,-4.0702,-4.0702,-4.0702,-4.0702,-4.0702,-4.0702,-4.0702,-4.0702,-4.0702,-4.0702,-4.0702,-4.0645,-4.0196,-3.9746,-3.9422,-3.9422,-3.931,-3.9169,-3.9169,-3.8733,-3.8018,-3.7217,-3.6708,-3.6159,-3.524,-3.5328,-3.5668,-3.5568,-3.592,-3.6301,-3.6229,-3.6606,-3.6917,-3.6895,-3.7228,-3.7568,-3.7717,-3.8258,-3.879,-3.9112,-3.9706,-4.0182,-4.0351,-3.9811,-3.9361,-3.9404,-3.8748,-3.8324,-3.8371,-3.8391,-3.8391,-3.8391,-3.8391,-3.8391,-3.8391,-3.8391,-3.8391,-3.8391,-3.8391,-3.8391,-3.8391,-3.8391,-3.8391,-3.8391,-3.8602,-3.8974,-3.9522,-4.0413,-4.111,-1.1221,-1.2025,-1.2981,-1.5087,-1.5955,-1.6597,-1.7761,-1.8385,-1.8788,-1.9201,-1.9943,-2.075,-2.1642,-2.3281,-2.4919,-2.6279,-2.7713,-2.912,-3.0335,-3.1525,-3.2575,-3.3343,-3.3979,-3.4729,0.0,-3.571,-3.6071,-3.694,-3.7555,-3.8173,-3.8846,-3.9479,-4.0055,-4.0645,-4.0688,-4.0702,-4.0702,-4.0702,-4.0702,-4.0702,-4.0702,-4.0702,-4.0702,-4.0702,-4.0702,-4.0702,-4.0702,-4.0702,-4.0702,-4.0702,-4.0702,-4.0702,-4.0702,-4.0702,-4.0702,-4.0674,-4.0659,-4.0645,-4.0645,-4.0252,-3.9746,-3.9746,-3.938,-3.8649,-3.7358,-3.6978,-3.6624,-3.4992,-3.5074,-3.5604,-3.5216,-3.5695,-3.6229,-3.605,-3.6014,-3.6007,-3.5855,-3.5869,-3.6028,-3.6566,-3.688,-3.7461,-3.8709,-3.9207,-3.9659,-4.029,-3.9773,-3.9335,-3.9407,-3.8778,-3.8324,-3.8371,-3.8391,-3.8391,-3.8391,-3.8391,-3.8391,-3.8391,-3.8391,-3.8391,-3.8391,-3.8391,-3.8391,-3.8391,-3.8391,-3.8391,-3.8391,-3.9104,-3.9489,-3.9538,-4.0931,-4.1579,-1.0741,-1.2354,-1.4144,-1.5127,-1.6427,-1.7651,-1.8319,-1.8815,-1.9146,-1.9274,-1.9286,-1.9832,-2.1476,-2.2349,-2.348,-2.5625,-2.7231,-2.8646,-2.9872,-3.1362,-3.2575,-3.33,-3.4285,0.0,0.0,0.0,0.0,-3.694,-3.7948,-3.8677,-3.8902,-3.9831,-4.0491,-4.0688,-4.0702,-4.0702,-4.0702,-4.0702,-4.0702,-4.0702,-4.0702,-4.0702,-4.0702,-4.0702,-4.0702,-4.0702,-4.0702,-4.0702,-4.0702,-4.0702,-4.0702,-4.0702,-4.0702,-4.0702,-4.0702,-4.0702,-4.0702,-4.0702,-4.0702,-4.0561,-4.0393,-4.0393,-3.9971,-3.9325,-3.8522,-3.7934,-3.7327,-3.5944,-3.5863,-3.5926,-3.4961,-3.5003,-3.5203,-3.4716,-3.4902,-3.5203,-3.5146,-3.5489,-3.6029,-3.6717,-3.733,-3.805,-3.9068,-3.9747,-4.0013,-3.9733,-3.951,-3.9367,-3.9392,-3.8762,-3.8499,-3.9079,-3.8683,-3.8391,-3.8391,-3.8391,-3.8391,-3.8391,-3.8391,-3.8391,-3.8391,-3.8391,-3.8391,-3.8391,-3.8391,-3.8634,-3.9149,-3.9392,-3.9991,-4.0915,-4.1385,-4.1824,-1.1045,-1.2614,-1.4301,-1.5476,-1.6832,-1.8015,-1.8574,-1.8907,-1.9091,-1.9091,-1.8962,-1.9391,-2.0995,-2.1691,-2.2816,-2.5317,-2.6841,-2.818,-2.9519,-3.0997,-3.2196,-3.2945,-3.4008,-3.5057,0.0,0.0,0.0,-3.694,-3.8199,-3.8902,-3.8902,-4.0027,-4.0702,-4.0702,-4.0702,-4.08,-4.1025,-4.1025,-4.1137,-4.1376,-4.1137,-4.1025,-4.1011,-4.08,-4.0702,-4.0702,-4.0702,-4.0702,-4.0702,-4.0702,-4.0702,-4.0702,-4.0702,-4.0702,-4.0702,-4.0702,-4.0702,-4.0702,-4.0702,-4.0702,-4.0702,-4.0702,-4.0435,-3.9999,-3.9422,-3.8903,-3.8354,-3.7194,-3.6957,-3.6807,-3.5861,-3.5544,-3.531,-3.4911,-3.4904,-3.5018,-3.4946,-3.5088,-3.554,-3.6542,-3.7029,-3.7611,-3.8701,-3.9376,-3.9608,-3.9068,-3.9037,-3.9142,-3.9361,-3.9004,-3.8904,-3.9437,-3.9072,-3.8683,-3.8424,-3.8391,-3.8391,-3.8391,-3.8391,-3.8391,-3.8391,-3.8391,-3.8391,-3.8391,-3.8651,-3.9023,-3.9505,-4.0024,-4.0721,-4.1596,-4.1596,-4.1839,-1.2058,-1.2816,-1.3665,-1.6159,-1.7124,-1.767,-1.8522,-1.8715,-1.8696,-1.867,-1.89,-1.9361,-2.018,0.0,-2.2907,-2.523,-2.6491,-2.7748,-2.9251,-3.0519,-3.156,0.0,0.0,0.0,0.0,0.0,0.0,-3.7091,0.0,-3.8916,-3.8944,-4.0041,-4.0702,-4.0744,-4.0744,-4.1039,-4.1657,-4.1671,-4.1966,-4.257,-4.1924,-4.1615,-4.1587,-4.0983,-4.0702,-4.0702,-4.0702,-4.0702,-4.0702,-4.0702,-4.0702,-4.0702,-4.0702,-4.0702,-4.0702,-4.0702,-4.0702,-4.0702,-4.0702,-4.0702,-4.0702,-4.0702,-4.0702,-4.0589,-4.0013,-3.9831,-3.9619,-3.8583,-3.8283,-3.8181,-3.7723,-3.7149,-3.6618,-3.6434,-3.5891,-3.5379,-3.524,-3.4688,-3.4647,-3.6048,-3.6062,-3.6302,-3.7686,-3.8179,-3.8369,-3.8287,-3.8322,-3.8631,-3.9358,-3.941,-3.9462,-3.9602,-3.9554,-3.923,-3.8521,-3.8424,-3.8391,-3.8391,-3.8391,-3.8391,-3.8391,-3.8363,-3.8379,-3.8456,-3.9107,-3.9509,-3.9619,-4.0964,-4.1596,-4.1596,-4.1596,-4.1579,-1.1826,-1.3091,-1.4485,-1.6037,-1.7144,-1.799,-1.8586,-1.8715,-1.8571,-1.8078,-1.8065,-1.8433,-1.9346,-2.0442,-2.1972,-2.4217,-2.6071,0.0,-2.8746,-3.0285,0.0,-3.3339,-3.4504,-3.5885,-3.7606,-3.806,0.0,0.0,-3.8733,-3.9113,-3.9563,-4.028,-4.0912,-4.1376,-4.1376,-4.1685,-4.2331,-4.2331,-4.2416,-4.257,-4.1924,-4.1615,-4.1587,-4.0983,-4.0702,-4.0702,-4.0702,-4.0702,-4.0702,-4.0702,-4.0702,-4.0702,-4.0702,-4.0702,-4.0702,-4.0702,-4.0702,-4.0702,-4.0702,-4.0702,-4.0702,-4.0702,-4.0702,-4.0674,-4.0519,-4.0463,-4.0308,-3.9605,-3.9379,-3.914,-3.8107,-3.7712,-3.7321,-3.6405,-3.6066,-3.5789,-3.5287,-3.5062,-3.5265,-3.6382,-3.6818,-3.696,-3.6834,-3.6884,-3.6915,-3.6858,-3.7267,-3.8185,-3.991,-3.9721,-3.9821,-4.0942,-4.0137,-3.9424,-3.9246,-3.8715,-3.8391,-3.8391,-3.8391,-3.8391,-3.8391,-3.7931,-3.8158,-3.9201,-3.8907,-3.9516,-4.1077,-4.1417,-4.1596,-4.1596,-4.1596,-4.132,-1.2134,-1.3189,-1.4489,-1.6085,-1.696,-1.7569,-1.8046,-1.8221,-1.8046,-1.7346,-1.7548,-1.8028,-1.8802,-2.008,-2.1632,0.0,0.0,0.0,-2.8528,-3.0015,-3.174,-3.3658,-3.4697,-3.6149,-3.8365,-3.8796,-3.9127,0.0,-3.9465,-3.9465,-3.976,-4.0617,-4.1264,-4.1601,-4.1896,-4.2345,-4.2978,-4.3259,-4.3385,-4.3371,-4.2472,-4.2036,-4.2008,-4.1109,-4.0702,-4.0702,0.0,-4.0702,-4.0702,-4.0702,-4.0702,-4.0702,-4.0702,-4.0702,-4.0702,-4.0702,-4.0702,-4.0702,-4.0702,-4.0702,-4.0702,-4.0702,-4.0702,-4.0702,-4.0702,-4.0702,-4.0631,-4.028,-4.0182,-4.0027,-3.9311,-3.8931,-3.8552,-3.7903,-3.7313,-3.6782,-3.6469,-3.5977,-3.5818,-3.6549,-3.7045,-3.7165,-3.651,-3.6164,-3.5957,-3.5907,-3.6492,-3.7538,-3.9299,-3.9727,-4.032,-4.1473,-4.0899,-4.0299,-3.9975,-3.9557,-3.9314,-3.9314,-3.9314,-3.9314,-3.9314,-3.8961,-3.9124,-3.9914,-3.9557,-4.0099,-4.1596,-4.1288,-4.1272,-4.1596,-4.098,-4.0461,-1.273,-1.3247,-1.407,-1.6047,-1.6585,-1.6717,-1.7169,-1.7479,-1.7485,-1.6629,-1.7161,-1.7944,-1.8345,-1.9907,-2.156,-2.3063,0.0,-2.703,-2.8537,-2.9927,-3.1606,-3.3866,-3.477,-3.6303,-3.9057,-3.9201,-3.9591,-4.0617,-4.021,-3.9901,-3.9901,-4.0912,-4.1573,-4.1741,-4.2444,-4.3076,-4.361,-4.4144,-4.4369,-4.4284,-4.3132,-4.2528,-4.2416,-4.1235,-4.0702,-4.0702,0.0,0.0,-4.0702,-4.0702,-4.0702,-4.0702,-4.0702,-4.0702,-4.0702,-4.0702,-4.0702,-4.0702,-4.0702,-4.0702,-4.0702,-4.0702,-4.0702,-4.0702,-4.0702,-4.0702,-4.0702,-4.0702,-4.0702,-4.0702,-4.0702,-4.0308,-3.9887,-3.9802,-3.8945,-3.8131,-3.8046,-3.7158,-3.6486,-3.6764,-3.7068,-3.7128,-3.6488,-3.5849,-3.5392,-3.5392,-3.5988,-3.6872,-3.8119,-3.9482,-4.069,-4.1488,-4.1515,-4.1239,-4.0675,-4.0545,-4.0496,-4.0496,-4.0496,-4.0496,-4.0496,-4.0421,-4.0409,-4.0506,-4.0515,-4.0817,-4.1442,-4.0928,-4.0895,-4.1288,-4.0073,-3.9457,-1.326,-1.3527,-1.3913,-1.5272,-1.5924,-1.6156,-1.5969,-1.6883,-1.7389,-1.6061,-1.6856,-1.7755,-1.7628,-1.9229,-2.1043,-2.2559,-2.4903,-2.7082,-2.8773,-3.0549,-3.2621,0.0,-3.6277,-3.7758,-4.0193,-4.0392,0.0,0.0,0.0,-4.0533,-4.0533,-4.0744,-4.1334,-4.2374,-4.3512,-4.4144,-4.4242,-4.4355,-4.4158,-4.3652,-4.2921,-4.2303,-4.1755,-4.1025,-4.0702,-4.0702,0.0,0.0,-4.0702,-4.0702,-4.0702,-4.0702,-4.0702,-4.0702,-4.0702,-4.0702,-4.0702,-4.0702,-4.0702,-4.0702,-4.0702,-4.0702,-4.0702,-4.0702,-4.0702,-4.0702,-4.0702,-4.0702,-4.0702,-4.0702,-4.0702,-4.0617,-4.0407,-3.9901,-3.962,-3.9311,-3.8846,-3.8396,-3.7961,-3.751,-3.7351,-3.7091,-3.6435,-3.5811,-3.5392,-3.5392,-3.5989,-3.6689,-3.7555,-3.8795,-4.0117,-4.147,-4.1061,-4.0869,-4.1369,-4.0867,-4.0496,-4.0496,-4.0496,-4.0496,-4.0496,-3.9966,-3.9928,-4.0499,-4.0547,-4.061,-4.069,-4.1179,-4.0875,-3.9862,-3.9619,-3.9153,-1.3447,-1.372,-1.4109,-1.515,-1.5756,-1.5942,-1.5409,-1.6535,-1.7333,-1.6029,-1.6836,-1.7823,-1.7897,-1.9154,-2.0557,-2.1804,-2.371,-2.5984,-2.8769,-3.0255,-3.2445,-3.6085,-3.6994,-3.822,-4.049,-4.0702,-4.0702,0.0,0.0,-4.0702,-4.0702,-4.0997,-4.1755,-4.302,-4.3624,-4.3933,-4.3933,-4.3933,-4.3624,-4.3006,-4.2374,-4.191,-4.1587,-4.0983,-4.0702,-4.0702,-4.0702,0.0,-4.0702,-4.0702,-4.0702,-4.0702,-4.0702,-4.0702,-4.0702,-4.0702,-4.0702,-4.0702,-4.0702,-4.0702,-4.0702,-4.0702,-4.0702,-4.0702,-4.0702,-4.0702,-4.0702,-4.0702,-4.0702,-4.0702,-4.0702,-4.0702,-4.0631,-4.0336,-4.0013,-3.9606,-3.9043,-3.8866,-3.8769,-3.847,-3.8236,-3.787,-3.7234,-3.6432,-3.5875,-3.5918,-3.5899,-3.6257,-3.7312,-3.7978,-3.9036,-4.0825,-4.0691,-4.0788,-4.1547,-4.1288,-4.1209,-4.1581,-4.1598,-4.1598,-4.1598,-4.1273,-4.0928,-4.0562,-4.0207,-4.0019,-3.9977,-3.9613,-3.9446,-3.9505,-3.9104,-3.8732,-1.3527,-1.382,-1.425,-1.495,-1.5541,-1.576,-1.4948,-1.6137,-1.7153,-1.6174,-1.6926,-1.7921,-1.8367,-1.9167,-2.0128,-2.1276,-2.2746,-2.5039,-2.8727,-3.0124,-3.2369,-3.6757,-3.7573,0.0,-4.0532,-4.0702,0.0,0.0,0.0,0.0,-4.0702,-4.1278,-4.2064,-4.3062,-4.3231,-4.3301,-4.3301,-4.3301,-4.2992,-4.2374,-4.1854,-4.1545,-4.1404,-4.0926,-4.0702,-4.0702,-4.0702,0.0,0.0,-4.0702,-4.0702,-4.0702,-4.0702,-4.0702,-4.0702,-4.0702,-4.0702,-4.0702,-4.0702,-4.0702,-4.0702,-4.0702,-4.0702,-4.0702,-4.0702,-4.0702,-4.0702,-4.0702,-4.0702,-4.0702,-4.0702,-4.0702,-4.0702,-4.0702,-4.0336,-3.9845,-3.9408,-3.9321,-3.94,-3.94,-3.9028,-3.8601,-3.8165,-3.7176,-3.6487,-3.6566,-3.6015,-3.6061,-3.7261,-3.7407,-3.8082,-3.9855,-4.0189,-4.0531,-4.1105,-4.1139,-4.1381,-4.1898,-4.1946,-4.2008,-4.2133,-4.2008,-4.1373,-4.0149,-3.9565,-3.9141,-3.881,-3.7884,-3.7966,-3.9043,-3.845,-3.8278,-1.3527,-1.382,-1.413,-1.4208,-1.4885,-1.5298,-1.4253,-1.5483,-1.6728,-1.6261,-1.6988,-1.7884,-1.8467,-1.9002,-1.9854,-2.1354,-2.2879,-2.5195,-2.8945,-3.1057,-3.3525,-3.705,0.0,0.0,-4.0575,-4.0702,0.0,0.0,0.0,0.0,0.0,-4.1278,-4.1671,-4.1783,-4.2359,-4.2669,-4.2669,-4.2669,-4.2345,-4.1699,-4.1643,-4.132,-4.0786,-4.073,-4.0702,-4.0702,0.0,0.0,0.0,-4.0702,-4.0702,-4.0702,-4.0702,-4.0702,-4.0702,-4.0702,-4.0702,-4.0702,-4.0702,-4.0702,-4.0702,-4.0702,-4.0702,-4.0702,-4.0702,-4.0702,-4.0702,-4.0702,-4.0702,-4.0702,-4.0702,-4.0702,-4.0702,-4.0702,-4.0659,-4.0603,-4.0547,-4.0266,-3.9996,-3.9996,-3.9221,-3.8564,-3.8687,-3.7728,-3.7003,-3.7201,-3.6719,-3.6559,-3.7322,-3.7403,-3.7716,-3.8513,-3.9185,-3.9626,-3.969,-3.9675,-3.9707,-3.977,-3.977,-4.0065,-4.0661,-4.0096,-3.9408,-3.8623,-3.8606,-3.7956,-3.6706,-3.722,-3.7546,-3.7601,-3.7537,-3.7815,-1.3467,-1.382,-1.4088,-1.4088,-1.4831,-1.5268,-1.4434,-1.5661,-1.6828,-1.6262,-1.7109,-1.7995,-1.8143,-1.8627,-1.94,-2.0683,-2.1386,-2.3095,-2.6816,-2.856,-3.1092,-3.5546,-3.6974,0.0,0.0,0.0,0.0,0.0,0.0,0.0,0.0,-4.0696,-4.1221,-4.1601,-4.1868,-4.1994,-4.1994,-4.1994,-4.1685,-4.1067,-4.1067,-4.1141,-4.1283,-4.0859,-4.0901,-4.1283,0.0,0.0,0.0,-4.0702,-4.0702,-4.0702,-4.0702,-4.0702,-4.0702,-4.0702,-4.0702,-4.0702,-4.0702,-4.0702,-4.0702,-4.0702,-4.0702,-4.0702,-4.0702,-4.0702,-4.0702,-4.0702,-4.0702,-4.0702,-4.0702,-4.0702,-4.0702,-4.0702,-4.0702,-4.0702,-4.0702,-4.0548,-4.0464,-4.0464,-3.9628,-3.8979,-3.9204,-3.8012,-3.7214,-3.7803,-3.7022,-3.6594,-3.7299,-3.7056,-3.6908,-3.7164,-3.8187,-3.8856,-3.8884,-3.8886,-3.8905,-3.8902,-3.9298,-3.9611,-3.9874,-3.9642,-3.8968,-3.7878,-3.7491,-3.6811,-3.5804,-3.6082,-3.6645,-3.7417,-3.7417,-3.7756,-1.3209,-1.3716,-1.4142,-1.4475,-1.5024,-1.5421,-1.5041,-1.5929,-1.6713,-1.6258,-1.7045,-1.7847,-1.7952,-1.8452,-1.9164,-2.006,-2.0507,-2.1982,-2.562,-2.7056,-2.9484,-3.4119,0.0,-3.7222,0.0,0.0,0.0,0.0,0.0,0.0,0.0,-4.0502,-4.097,-4.1407,-4.1522,-4.1478,-4.1348,-4.1377,-4.1166,-4.0702,-4.0901,-4.1241,-4.1688,-4.1198,-4.1241,-4.1646,0.0,0.0,0.0,-4.0702,-4.0702,-4.0702,-4.0702,-4.083,-4.0986,-4.0986,-4.0986,-4.0986,-4.0986,-4.0873,-4.0702,-4.0702,-4.0702,-4.0702,-4.0702,-4.0702,-4.0702,-4.0702,-4.0702,-4.0702,-4.0702,-4.0702,-4.0702,-4.0702,-4.0702,-4.0702,-4.0702,-4.0702,-4.0702,-4.0702,-3.9984,-3.9414,-3.9487,-3.8345,-3.7618,-3.8206,-3.7323,-3.677,-3.7294,-3.6788,-3.6411,-3.6399,-3.7221,-3.7755,-3.7592,-3.7577,-3.7576,-3.759,-3.823,-3.8669,-3.8886,-3.8685,-3.8138,-3.717,-3.6333,-3.5614,-3.5088,-3.5088,-3.577,-3.7087,-3.7087,-3.7652,-1.283,-1.3399,-1.4206,-1.5411,-1.5578,-1.561,-1.5979,-1.6166,-1.6235,-1.6296,-1.6782,-1.7396,-1.7984,-1.859,-1.9194,-1.9724,-2.0694,-2.2634,-2.6202,-2.7617,-2.9627,0.0,0.0,-3.5926,0.0,0.0,0.0,0.0,0.0,0.0,0.0,-4.1001,-4.1001,-4.1001,-4.1255,-4.1185,-4.0702,-4.0901,-4.0887,-4.0702,-4.1367,-4.1688,-4.1688,-4.1688,-4.1688,0.0,0.0,0.0,0.0,-4.0702,-4.0702,-4.0702,-4.0702,-4.1114,-4.1688,-4.1688,-4.1688,-4.1688,-4.1688,-4.1241,-4.0702,-4.0702,-4.0702,-4.0702,-4.0702,-4.0702,-4.0702,-4.0702,-4.0702,-4.0702,-4.0702,-4.0702,-4.0702,-4.0702,-4.0702,-4.0702,-4.0702,-4.0702,-4.0702,-4.0702,-4.0196,-3.9744,-3.9518,-3.8942,-3.8427,-3.8214,-3.768,-3.728,-3.7297,-3.6772,-3.6411,-3.6399,-3.6415,-3.6134,-3.5497,-3.5432,-3.5447,-3.5415,-3.6055,-3.6723,-3.7403,-3.6784,-3.643,-3.643,-3.5103,-3.4414,-3.4414,-3.4414,-3.5088,-3.6415,-3.6415,-3.7452,-1.2487,-1.3169,-1.3885,-1.4169,-1.4773,-1.5295,-1.528,-1.5547,-1.5777,-1.5693,-1.65,-1.7257,-1.7451,-1.8321,-1.9555,-2.1163,-2.1716,-2.2822,-2.5391,0.0,0.0,-3.1913,-3.5721,0.0,0.0,0.0,0.0,0.0,0.0,0.0,0.0,0.0,-4.076,-4.1255,-4.1354,-4.1311,-4.1185,-4.1057,-4.1324,-4.2003,-4.2058,-4.2548,-4.3388,-4.2508,0.0,0.0,0.0,0.0,0.0,-4.0702,-4.0702,-4.0744,-4.1198,-4.1535,-4.1729,-4.2155,-4.2046,-4.1688,-4.1688,-4.1283,-4.0702,-4.0702,-4.0702,-4.0702,-4.0702,-4.0702,-4.0702,-4.0702,-4.0702,-4.0702,-4.0702,-4.0702,-4.0702,-4.0702,-4.0702,-4.0702,-4.0702,-4.0702,-4.0702,-4.0702,-4.0196,-3.9885,-4.0085,-3.961,-3.914,-3.8895,-3.8725,-3.8117,-3.6796,-3.6465,-3.5991,-3.5123,-3.5023,-3.5121,-3.5367,-3.54,-3.5204,-3.4754,-3.5335,-3.5802,-3.6024,-3.5834,-3.5706,-3.5706,-3.4839,-3.4414,-3.4414,-3.4414,-3.5088,-3.6415,-3.7845,-3.8793,-1.2953,-1.3535,-1.4166,-1.4514,-1.4907,-1.5246,-1.5364,-1.5494,-1.5635,-1.5722,-1.6528,-1.7285,-1.7506,-1.8348,-1.9432,-2.0767,-2.15,-2.2558,0.0,0.0,0.0,-3.2286,0.0,0.0,0.0,0.0,0.0,0.0,0.0,0.0,0.0,0.0,-4.1085,-4.1662,-4.1662,-4.1578,-4.1396,-4.1311,-4.1728,-4.2585,-4.2721,-4.3135,-4.3804,-4.3001,0.0,0.0,0.0,0.0,0.0,-4.0702,-4.0702,-4.0787,-4.1451,-4.1854,-4.2129,-4.2725,-4.2739,-4.2374,-4.2129,-4.1604,-4.1029,-4.0787,-4.0702,-4.0702,-4.0702,-4.0702,-4.0702,-4.0702,-4.0702,-4.0702,-4.0702,-4.0702,-4.0702,-4.0702,-4.0702,-4.0702,-4.0702,-4.0702,-4.0702,-4.0702,-4.0463,-4.0279,-4.0371,-4.0192,-3.9808,-3.9296,-3.9204,-3.8594,-3.6896,-3.646,-3.5909,-3.4878,-3.4559,-3.4568,-3.5004,-3.5023,-3.4839,-3.4414,-3.5023,-3.54,-3.54,-3.54,-3.54,-3.54,-3.4754,-3.4414,-3.4414,-3.4905,-3.5729,-3.6862,-3.8916,-3.9943,0.0,-1.4343,-1.484,-1.5791,-1.5599,-1.5342,-1.5964,-1.5832,0.0,-1.6136,-1.6726,-1.7335,-1.7938,-1.8565,-1.9054,-1.9246,-2.0593,-2.2185,0.0,-2.5853,0.0,0.0,0.0,0.0,0.0,0.0,0.0,0.0,0.0,0.0,0.0,0.0,-4.1841,-4.2092,-4.2092,-4.1885,-4.1438,-4.1633,-4.2032,-4.2706,-4.3294,-4.3452,-4.3304,-4.3185,0.0,0.0,0.0,0.0,0.0,-4.0702,-4.0744,-4.083,-4.1479,-4.2129,-4.275,-4.3418,-4.363,-4.3512,-4.2886,-4.2278,-4.1646,-4.0986,-4.0744,-4.0702,-4.0702,-4.0702,-4.0702,-4.0702,-4.0702,-4.0702,-4.0702,-4.0702,-4.0702,-4.0702,-4.0702,-4.0702,-4.0702,-4.0702,-4.0688,-4.0702,-4.0887,-4.0901,-4.054,-4.0715,-4.0516,-3.9426,-3.9262,-3.8797,-3.7476,-3.6722,-3.6083,-3.5523,-3.4864,-3.4501,-3.4545,-3.4472,-3.4414,-3.4414,-3.499,-3.5335,-3.5335,-3.5335,-3.5335,-3.5335,-3.4721,-3.4414,-3.4414,-3.5784,-3.6831,-3.7572,-3.9666,-4.0896,-1.4971,0.0,-1.451,-1.4533,-1.4789,-1.5104,0.0,-1.5218,-1.5232,-1.5546,-1.6083,-1.6749,-1.7573,-1.8387,-1.9541,-2.1464,-2.2876,-2.4316,-2.5973,0.0,0.0,0.0,0.0,0.0,0.0,0.0,0.0,0.0,0.0,0.0,0.0,0.0,-4.2036,-4.2092,-4.2092,-4.2051,-4.1926,-4.18,-4.2333,-4.3585,-4.3215,-4.3437,-4.4151,-4.3185,0.0,0.0,0.0,0.0,-4.0702,-4.0702,-4.0986,-4.1535,-4.217,-4.2805,-4.3457,-4.4135,-4.402,-4.3591,-4.3418,-4.2926,-4.2278,-4.1688,-4.1114,-4.0702,-4.0702,-4.0702,-4.0702,-4.0702,-4.0702,-4.0702,-4.0702,-4.0702,-4.0702,-4.0702,-4.0702,-4.0702,-4.0702,-4.0702,-4.073,-4.0887,-4.0958,-4.1085,-4.1376,-4.143,-4.1122,-4.0035,-3.9886,-3.9262,-3.7535,-3.6722,-3.6257,-3.6098,-3.5517,-3.5328,-3.5822,-3.4965,-3.4414,-3.4414,-3.4534,-3.4635,-3.4635,-3.4635,-3.4635,-3.4635,-3.4481,-3.4414,-3.4414,-3.63,-3.7324,-3.7556,-4.0672,-4.2141,-1.5352,-1.5321,-1.5175,-1.4884,-1.5095,-1.5374,-1.5374,-1.5231,-1.5177,-1.547,-1.594,-1.6514,-1.7288,-1.8444,-1.9844,-2.1619,-2.3376,0.0,0.0,0.0,0.0,0.0,0.0,0.0,0.0,0.0,0.0,0.0,0.0,0.0,0.0,0.0,-4.2092,-4.2092,-4.2092,-4.2092,-4.2092,-4.1953,-4.247,-4.36,-4.3269,-4.3334,-4.3726,-4.2946,0.0,0.0,0.0,0.0,-4.0702,-4.0702,-4.1114,-4.1771,-4.236,-4.3006,-4.3669,-4.4343,-4.4381,-4.402,-4.3708,-4.3165,-4.2508,-4.1895,-4.1437,-4.1114,-4.0787,-4.0702,-4.0702,-4.0702,-4.0702,-4.0702,-4.0702,-4.0702,-4.0702,-4.0702,-4.0702,-4.0702,-4.0702,-4.0773,-4.0887,-4.1001,-4.117,-4.1395,-4.1646,-4.1785,-4.149,-4.0292,-4.0104,-3.9523,-3.7926,-3.7157,-3.6765,-3.6765,-3.6185,-3.5938,-3.6272,-3.5677,-3.5285,-3.5285,-3.5285,-3.5285,-3.5285,-3.5285,-3.5285,-3.5285,-3.5285,-3.5285,-3.5285,-3.6705,-3.7752,-3.8498,-4.1291,-4.2744,-1.5498,-1.5879,-1.619,-1.5813,-1.5752,-1.5781,-1.5723,-1.5435,-1.5274,-1.5586,-1.5992,-1.6477,-1.7205,-1.8736,0.0,0.0,0.0,0.0,0.0,0.0,0.0,0.0,0.0,0.0,0.0,0.0,0.0,0.0,0.0,0.0,0.0,0.0,0.0,-4.2092,-4.2092,-4.2092,-4.2092,-4.2092,-4.2459,-4.3205,-4.314,-4.3006,-4.2816,-4.2534,0.0,0.0,0.0,0.0,-4.0859,-4.0859,-4.1311,-4.2061,-4.2563,-4.3165,-4.3825,-4.4381,-4.461,-4.4534,-4.3942,-4.326,-4.2522,-4.2005,-4.1688,-4.1437,-4.0859,-4.0702,-4.0702,-4.0702,-4.0702,-4.0702,-4.0702,-4.0702,-4.0702,-4.0702,-4.0702,-4.0702,-4.073,-4.0887,-4.1043,-4.1085,-4.1437,-4.1688,-4.1744,-4.1939,-4.1642,-4.0292,-4.0104,-3.9639,-3.8362,-3.768,-3.7346,-3.7433,-3.6852,-3.6504,-3.6591,-3.6591,-3.6591,-3.6591,-3.6417,-3.6301,-3.6301,-3.6301,-3.6301,-3.6301,-3.6301,-3.6301,-3.6301,-3.7099,-3.8182,-3.9533,-4.1606,-4.295,-1.5889,-1.6594,-1.6882,-1.5611,-1.5541,-1.5714,-1.5359,-1.5234,-1.5245,-1.5419,-1.5802,-1.6483,-1.7655,-1.9485,-2.1351,0.0,0.0,0.0,0.0,0.0,0.0,0.0,0.0,0.0,0.0,0.0,0.0,0.0,0.0,0.0,0.0,0.0,0.0,-4.2092,-4.2092,-4.2092,-4.2092,-4.2092,-4.231,-4.2809,-4.2433,-4.2351,-4.2459,-4.1883,-4.1353,0.0,0.0,-4.1029,-4.1535,-4.1535,-4.2252,-4.3314,-4.3418,-4.3864,-4.4458,-4.4572,-4.461,-4.4587,-4.4496,-4.3654,-4.2589,-4.2467,-4.1742,-4.0816,-4.0744,-4.0702,-4.0702,-4.0702,-4.0702,-4.0702,-4.0702,-4.0702,-4.0702,-4.0702,-4.0702,-4.073,-4.093,-4.1001,-4.1128,-4.1521,-4.1646,-4.1744,-4.1995,-4.2092,-4.1642,-4.0292,-4.0104,-3.9639,-3.8362,-3.768,-3.7506,-3.8014,-3.752,-3.736,-3.7868,-3.7912,-3.7912,-3.7912,-3.6896,-3.6301,-3.6301,-3.6301,-3.6301,-3.6301,-3.6301,-3.6301,-3.6301,-3.7579,-3.8597,-3.9364,-4.15,-4.2824,-1.5743,-1.6212,-1.6582,-1.6138,-1.6679,-1.7222,-1.6796,-1.6699,-1.6672,-1.6523,-1.6816,-1.7425,0.0,0.0,-2.296,-2.6408,0.0,0.0,0.0,0.0,0.0,0.0,0.0,0.0,0.0,0.0,0.0,0.0,0.0,0.0,0.0,0.0,0.0,0.0,-4.1903,-4.2092,-4.2092,-4.2092,-4.2216,-4.2351,-4.2216,-4.2078,-4.2007,-4.1606,-4.1241,-4.1001,0.0,-4.1071,-4.1688,-4.1688,-4.2456,-4.3591,-4.3591,-4.402,-4.461,-4.461,-4.461,-4.461,-4.461,-4.3981,-4.3086,-4.2725,-4.199,-4.1156,-4.083,-4.0702,-4.0702,-4.0702,-4.0702,-4.0787,-4.1156,-4.1241,-4.1241,-4.1241,-4.1311,-4.1339,-4.1043,-4.1212,-4.1437,-4.1646,-4.1841,-4.1953,-4.2092,-4.1802,-4.1221,-4.0249,-3.9813,-3.9276,-3.8318,-3.7955,-3.7897,-3.8173,-3.7955,-3.7897,-3.8188,-3.8202,-3.8202,-3.8202,-3.7651,-3.7331,-3.7331,-3.7331,-3.7331,-3.7331,-3.7331,-3.7331,-3.7331,-3.7974,-3.8832,-3.9888,-4.1269,-4.2428,-1.5877,-1.6009,-1.6345,-1.6621,-1.735,-1.8057,-1.81,-1.8076,-1.7978,-1.7852,-1.8291,-1.8923,0.0,-2.1977,0.0,-3.0088,0.0,0.0,0.0,0.0,0.0,0.0,0.0,0.0,0.0,0.0,0.0,0.0,0.0,0.0,0.0,0.0,0.0,0.0,-4.1366,-4.1628,-4.1628,-4.1787,-4.1932,-4.2092,-4.2092,-4.1953,-4.1619,-4.148,-4.1255,-4.093,-4.0944,-4.1311,-4.1922,-4.2102,-4.282,-4.3825,-4.3825,-4.4135,-4.461,-4.461,-4.461,-4.4587,-4.4419,-4.3942,-4.326,-4.2603,-4.1964,-4.1367,-4.0873,-4.0702,-4.0702,-4.0773,-4.0773,-4.0944,-4.1632,-4.1729,-4.1702,-4.1881,-4.1881,-4.1715,-4.1254,-4.1437,-4.1702,-4.1785,-4.1953,-4.2049,-4.1889,-4.1439,-4.0815,-4.0002,-3.9494,-3.8957,-3.8289,-3.8202,-3.8202,-3.8202,-3.8202,-3.8202,-3.8202,-3.8202,-3.8202,-3.8202,-3.8202,-3.8202,-3.8202,-3.8202,-3.8202,-3.8202,-3.8202,-3.8202,-3.8202,-3.8202,-3.8896,-4.0278,-4.0821,-4.182,-1.6803,-1.6826,-1.6749,-1.6705,-1.6494,-1.6692,-1.8198,-1.8256,-1.8223,-1.8994,-2.0085,-2.0891,-2.0964,-2.4915,-2.9434,0.0,0.0,0.0,0.0,0.0,0.0,0.0,0.0,0.0,0.0,0.0,0.0,0.0,0.0,0.0,0.0,0.0,0.0,0.0,0.0,-4.0234,-4.0234,-4.0858,-4.1482,-4.2092,-4.2092,-4.187,-4.1438,-4.1396,-4.1142,-4.0773,-4.1367,-4.1964,-4.2603,-4.322,-4.3864,-4.4534,-4.4534,-4.4572,-4.461,-4.461,-4.461,-4.4496,-4.3903,-4.3205,-4.2548,-4.1964,-4.1311,-4.0773,-4.0688,-4.0702,-4.073,-4.093,-4.1001,-4.1156,-4.2044,-4.184,-4.1619,-4.2356,-4.199,-4.1465,-4.1619,-4.1688,-4.1785,-4.1995,-4.2092,-4.1903,-4.1279,-4.1134,-4.0684,-3.945,-3.9233,-3.8957,-3.8289,-3.8202,-3.8202,-3.8202,-3.8202,-3.8202,-3.8202,-3.8202,-3.8202,-3.8202,-3.8202,-3.8202,-3.8202,-3.8202,-3.8202,-3.8202,-3.8202,-3.8202,-3.8202,-3.8202,-3.8864,-4.011,-4.0153,-4.0906,-1.7104,-1.7319,-1.7578,-1.7664,-1.8237,-1.8826,-1.9007,-1.9541,-2.0407,-2.1915,-2.2498,-2.3263,-2.4911,0.0,-3.0916,0.0,0.0,0.0,0.0,0.0,0.0,0.0,0.0,0.0,0.0,0.0,0.0,0.0,0.0,0.0,0.0,0.0,0.0,0.0,0.0,-4.0104,-4.0104,-4.035,-4.0597,-4.0858,-4.17,-4.1829,-4.1396,-4.1396,-4.1128,-4.0744,-4.1409,-4.2046,-4.2629,-4.3339,-4.3996,-4.461,-4.461,-4.461,-4.4534,-4.4135,-4.3981,-4.3864,-4.3205,-4.2578,-4.2005,-4.1771,-4.1241,-4.0702,-4.0702,-4.0773,-4.0887,-4.1001,-4.1212,-4.1604,-4.2184,-4.2213,-4.209,-4.2389,-4.2348,-4.2131,-4.1771,-4.1841,-4.1995,-4.2092,-4.2092,-4.1889,-4.1207,-4.0742,-4.0191,-3.9334,-3.8855,-3.8492,-3.8231,-3.8202,-3.8202,-3.8202,-3.8202,-3.8202,-3.8202,-3.8202,-3.8202,-3.8202,-3.8202,-3.8202,-3.8202,-3.8202,-3.8202,-3.8202,-3.8202,-3.8202,-3.8202,-3.8202,-3.8855,-4.0104,-4.0104,-4.0815,-1.7303,-1.749,-1.788,-1.833,-1.9275,-2.0172,-2.0463,-2.1415,-2.2625,-2.3919,-2.4582,-2.5663,-2.7995,-3.0021,0.0,0.0,0.0,0.0,0.0,0.0,0.0,0.0,0.0,0.0,0.0,0.0,0.0,0.0,0.0,0.0,0.0,0.0,0.0,0.0,0.0,0.0,-3.9494,-3.9712,-3.9813,-3.9828,-4.0865,-4.1283,-4.1081,-4.1012,-4.0802,-4.0449,-4.1303,-4.1788,-4.2079,-4.3145,-4.3991,-4.461,-4.461,-4.4458,-4.4228,-4.3786,-4.3472,-4.318,-4.2522,-4.2046,-4.166,-4.1437,-4.1071,-4.0702,-4.0702,-4.0845,-4.1001,-4.11,-4.1395,-4.1785,-4.2187,-4.2325,-4.2351,-4.2607,-4.2581,-4.2377,-4.1924,-4.1953,-4.2092,-4.2092,-4.2092,-4.1816,-4.0931,-4.0394,-3.9813,-3.9015,-3.8492,-3.8202,-3.8202,-3.8202,-3.8202,-3.8202,-3.8202,-3.8202,-3.8202,-3.8202,-3.8202,-3.8202,-3.8202,-3.8202,-3.8202,-3.8202,-3.8202,-3.8202,-3.8202,-3.8202,-3.8202,-3.8202,-3.8855,-4.0104,-4.0104,-4.0815,-1.7476,-1.7332,-1.7565,-1.8563,-1.914,-2.0095,-2.2545,-2.3853,-2.4563,-2.4651,-2.6168,-2.7985,-2.9732,-3.1742,0.0,0.0,0.0,0.0,0.0,0.0,0.0,0.0,0.0,0.0,0.0,0.0,0.0,0.0,0.0,0.0,0.0,0.0,0.0,0.0,0.0,0.0,-3.8202,-3.8855,-3.9189,-3.9204,-3.9578,-3.9998,-4.0355,-4.0177,-3.9983,-3.9858,-4.1073,-4.1249,-4.0834,-4.2765,-4.3956,-4.4556,-4.4556,-4.4159,-4.356,-4.3576,-4.3165,-4.2508,-4.1881,-4.1688,-4.1563,-4.0901,-4.0702,-4.0702,-4.0702,-4.0845,-4.1057,-4.1297,-4.1549,-4.1744,-4.2036,-4.2092,-4.2325,-4.3101,-4.2688,-4.2092,-4.2092,-4.2092,-4.2092,-4.2092,-4.2092,-4.1657,-4.0321,-4.0089,-3.9654,-3.8391,-3.8202,-3.8202,-3.8202,-3.8202,-3.8202,-3.8202,-3.8202,-3.8202,-3.8202,-3.8202,-3.8202,-3.8202,-3.8202,-3.8202,-3.8202,-3.8202,-3.8202,-3.8202,-3.8202,-3.8202,-3.8202,-3.8202,-3.8855,-4.0089,-4.0089,-4.08,-1.7989,-1.8756,-1.974,-2.0266,-2.1989,-2.3723,-2.4349,-2.4764,-2.5717,-2.8341,-3.0033,-3.1526,-3.3076,-3.4167,0.0,0.0,0.0,0.0,0.0,0.0,0.0,0.0,0.0,0.0,0.0,0.0,0.0,0.0,0.0,0.0,0.0,0.0,0.0,0.0,0.0,0.0,-3.8202,-3.8405,-3.8507,-3.8492,-3.8313,-3.8764,-3.9767,-3.9538,-3.9348,-3.921,-3.998,-4.0209,-4.0182,-4.1663,-4.2138,-4.1985,-4.2395,-4.219,-4.1561,-4.1077,-4.1106,-4.123,-4.0586,-4.0618,-4.0944,-4.0773,-4.0702,-4.0702,-4.0702,-4.0845,-4.1057,-4.1297,-4.1549,-4.1744,-4.2036,-4.2092,-4.2175,-4.2392,-4.2284,-4.2092,-4.2092,-4.2092,-4.1961,-4.1482,-4.1395,-4.0989,-3.9697,-3.9465,-3.9175,-3.8333,-3.8202,-3.8202,-3.8202,-3.8202,-3.8202,-3.8202,-3.8202,-3.8202,-3.8202,-3.8202,-3.8202,-3.8202,-3.8202,-3.8202,-3.8202,-3.8202,-3.8202,-3.8202,-3.8202,-3.8202,-3.8202,-3.8202,-3.8638,-3.9465,-3.9465,-3.99,-1.8458,-1.954,-2.093,-2.2327,-2.4056,-2.5861,-2.7383,-2.7548,-2.8284,-3.1475,-3.2628,-3.3542,-3.5125,-3.5777,0.0,0.0,0.0,0.0,0.0,0.0,0.0,0.0,0.0,0.0,0.0,0.0,0.0,0.0,0.0,0.0,0.0,0.0,0.0,0.0,0.0,0.0,-3.8202,-3.8202,-3.8202,-3.8202,-3.7801,-3.801,-3.8753,-3.8691,-3.8603,-3.8508,-3.8903,-3.9218,-3.9488,-4.0263,-4.0524,-4.0497,-4.0838,-4.0759,-4.0364,-3.9971,-3.9912,-4.0014,-3.9857,-3.9859,-4.0041,-4.0533,-4.0378,-4.0013,-4.0266,-4.035,-4.0444,-4.0583,-4.0871,-4.1102,-4.1253,-4.1308,-4.1439,-4.1976,-4.212,-4.2159,-4.2159,-4.1938,-4.163,-4.1219,-4.0883,-4.0379,-3.9378,-3.9204,-3.8971,-3.8304,-3.8202,-3.8202,-3.8202,-3.8202,-3.8202,-3.8202,-3.8202,-3.8202,-3.8202,-3.8202,-3.8202,-3.8202,-3.8202,-3.8202,-3.8202,-3.8202,-3.8202,-3.8202,-3.8202,-3.8202,-3.8202,-3.8202,-3.8551,-3.9204,-3.9204,-3.9523,-1.8861,-1.9863,-2.1458,-2.4343,-2.569,-2.7253,-3.1043,-3.1474,-3.1733,-3.3947,0.0,-3.4528,-3.6286,0.0,0.0,0.0,0.0,0.0,0.0,0.0,0.0,0.0,0.0,0.0,0.0,0.0,0.0,0.0,0.0,0.0,0.0,0.0,0.0,0.0,0.0,0.0,-3.8202,-3.8202,-3.8202,0.0,-3.7763,-3.7586,-3.7562,-3.7726,-3.7793,-3.7749,-3.7753,-3.8034,-3.8583,-3.862,-3.8959,-3.9489,-3.9527,-3.9463,-3.9388,-3.9445,-3.9133,-3.8818,-3.9395,-3.9324,-3.9085,-4.021,-3.9816,-3.9015,-3.9577,-3.9626,-3.9482,-3.9482,-3.9787,-4.0064,-4.0104,-4.0104,-4.0434,-4.1695,-4.2054,-4.213,-4.213,-4.1637,-4.1174,-4.1114,-4.0533,-3.9813,-3.9218,-3.9117,-3.8899,-3.8289,-3.8202,-3.8202,-3.8202,-3.8202,-3.8202,-3.8202,-3.8202,-3.8202,-3.8202,-3.8202,-3.8202,-3.8202,-3.8202,-3.8202,-3.8202,-3.8202,-3.8202,-3.8202,-3.8202,-3.8202,-3.8202,-3.8202,-3.8507,-3.9117,-3.9117,-3.9407,-1.8921,-2.0509,-2.2581,-2.5024,-2.8151,-3.1117,-3.2938,-3.4029,-3.4761,-3.5092,-3.5668,-3.6525,0.0,0.0,0.0,0.0,0.0,0.0,0.0,0.0,0.0,0.0,0.0,0.0,0.0,0.0,0.0,0.0,0.0,0.0,0.0,0.0,0.0,0.0,0.0,-3.8202,-3.8202,-3.8202,-3.8142,0.0,-3.7739,-3.7495,-3.7341,-3.7236,-3.6922,-3.6497,-3.6471,-3.6283,-3.6014,-3.6461,-3.6475,-3.6251,-3.6663,-3.6566,-3.6259,-3.6702,-3.712,-3.747,-3.8088,-3.8552,-3.8958,-3.939,-3.9332,-3.9148,-3.9276,-3.9422,-3.9524,-3.9482,-3.9682,-3.9881,-4.0064,-4.0104,-4.0319,-4.1192,-4.1403,-4.1413,-4.1413,-4.1293,-4.104,-4.0599,-3.99,-3.9189,-3.8536,-3.842,-3.8376,-3.8217,-3.8202,-3.8202,-3.8202,-3.8202,-3.8202,-3.8202,-3.8202,-3.8202,-3.8202,-3.8202,-3.8202,-3.8202,-3.8202,-3.8202,-3.8202,-3.8202,-3.8202,-3.8202,-3.8202,-3.8202,-3.8202,-3.8202,-3.8275,-3.842,-3.842,-3.8492,-1.9573,-2.1468,-2.3891,-2.6839,0.0,-3.2809,-3.3708,-3.5093,-3.6239,-3.6345,-3.6748,0.0,0.0,0.0,0.0,0.0,0.0,0.0,0.0,0.0,0.0,0.0,0.0,0.0,0.0,0.0,0.0,0.0,0.0,0.0,0.0,0.0,0.0,0.0,-3.8202,-3.8072,-3.7781,-3.7959,-3.7688,-3.6985,-3.7025,-3.6784,-3.6311,-3.6493,-3.6413,-3.6089,-3.5794,-3.5316,-3.4753,-3.5016,-3.4979,-3.4753,-3.5052,-3.5164,-3.5231,-3.5541,-3.6061,-3.668,-3.7245,-3.7681,-3.81,-3.8922,-3.879,-3.8337,-3.8769,-3.8814,-3.8728,-3.8714,-3.8855,-3.9049,-3.9151,-3.9428,-3.9717,-3.977,-4.0539,-4.1392,-4.174,-4.13,-4.0728,-4.0395,-3.9469,-3.8609,-3.826,-3.8202,-3.8202,-3.8202,-3.8202,-3.8202,-3.8202,-3.8202,-3.8202,-3.8202,-3.8202,-3.8202,-3.8202,-3.8202,-3.8202,-3.8202,-3.8202,-3.8202,-3.8202,-3.8202,-3.8202,-3.8202,-3.8202,-3.8202,-3.8202,-3.8202,-3.8202,-3.8202,-3.8202,-3.8202,-1.9978,-2.2328,-2.5178,-2.8616,-3.1255,0.0,-3.3805,-3.5179,-3.6484,-3.7024,0.0,0.0,0.0,0.0,0.0,0.0,0.0,0.0,0.0,0.0,0.0,0.0,0.0,0.0,0.0,0.0,0.0,0.0,0.0,0.0,0.0,0.0,-3.8039,-3.8039,-3.7943,-3.7636,-3.7143,-3.7414,-3.7028,-3.5942,-3.6105,-3.5831,-3.5203,-3.5709,-3.5855,-3.5728,-3.5245,-3.4646,-3.4034,-3.4034,-3.4034,-3.4034,-3.4034,-3.4393,-3.488,-3.4992,-3.5451,-3.6071,-3.669,-3.6972,-3.7317,-3.8575,-3.8246,-3.7518,-3.8186,-3.8193,-3.7929,-3.7891,-3.8028,-3.824,-3.8375,-3.8826,-3.9175,-3.8679,-3.992,-4.1348,-4.1853,-4.1127,-4.0347,-4.0243,-3.9103,-3.8202,-3.8202,-3.8202,-3.8202,-3.8202,-3.8202,-3.8202,-3.8202,-3.8202,-3.8202,-3.8202,-3.8202,-3.8202,-3.8202,-3.8202,-3.8202,-3.8202,-3.8202,-3.8202,-3.8202,-3.8202,-3.8202,-3.8202,-3.8202,-3.8202,-3.8202,-3.8202,-3.8202,-3.8202,-3.8202,-3.8202,-1.8903,0.0,-2.6246,0.0,-3.0814,-3.243,0.0,0.0,-3.5028,0.0,0.0,0.0,0.0,0.0,0.0,0.0,0.0,0.0,0.0,0.0,0.0,0.0,0.0,0.0,0.0,0.0,0.0,0.0,0.0,0.0,0.0,-3.7785,-3.7407,-3.7407,-3.6854,-3.6519,-3.6446,-3.6303,-3.6064,-3.5747,-3.5481,-3.531,-3.5212,-3.5139,-3.4904,-3.4441,-3.4357,-3.3978,-3.3403,-3.3403,-3.3403,-3.3403,-3.3403,-3.3459,-3.3635,-3.4119,-3.4854,-3.5674,-3.6283,-3.694,-3.7562,-3.794,-3.7959,-3.783,-3.7954,-3.8063,-3.8127,-3.7967,-3.8028,-3.8337,-3.9009,-3.9247,-3.9448,-3.9964,-4.032,-4.0381,-3.9818,-4.006,-4.0209,-3.9555,-3.8752,-3.8202,-3.8202,-3.8202,-3.8202,-3.8202,-3.8202,-3.8202,-3.8202,-3.8202,-3.8202,-3.8202,-3.8202,-3.8202,-3.8202,-3.8202,-3.8202,-3.8202,-3.8202,-3.8202,-3.8202,-3.8202,-3.8202,-3.8202,-3.8202,-3.8202,-3.8202,-3.8202,-3.8202,-3.8202,-3.8202,-3.8202,-2.03,-2.3124,-2.5847,0.0,-2.99,-3.1679,-3.2405,0.0,0.0,0.0,0.0,0.0,0.0,0.0,0.0,0.0,0.0,0.0,0.0,0.0,0.0,0.0,0.0,0.0,0.0,0.0,0.0,0.0,0.0,0.0,-3.8901,-3.7886,-3.731,-3.731,-3.6641,0.0,-3.5637,-3.5755,-3.5503,-3.4836,-3.4353,-3.4292,-3.4569,-3.4513,-3.455,-3.4633,-3.4591,-3.4289,-3.377,-3.377,-3.3577,-3.329,-3.329,-3.329,-3.3319,-3.3585,-3.4148,-3.4877,-3.5645,-3.6344,-3.704,-3.7701,-3.7891,-3.7929,-3.8028,-3.8127,-3.8165,-3.8104,-3.8127,-3.8263,-3.8583,-3.8994,-3.9284,-3.9211,-3.9804,-4.0069,-3.8936,-3.9284,-3.9555,-3.8826,-3.8412,-3.8202,-3.8202,-3.8202,-3.8202,-3.8202,-3.8202,-3.8202,-3.8202,-3.8202,-3.8202,-3.8202,-3.8202,-3.8202,-3.8202,-3.8202,-3.8202,-3.8202,-3.8202,-3.8202,-3.8202,-3.8202,-3.8202,-3.8202,-3.8202,-3.8202,-3.8202,-3.8202,-3.8202,-3.8202,-3.8202,-3.8202,0.0,0.0,-2.4645,-2.6103,-2.844,-3.0551,0.0,0.0,0.0,0.0,0.0,0.0,0.0,0.0,0.0,0.0,0.0,0.0,0.0,0.0,0.0,0.0,0.0,0.0,0.0,0.0,0.0,0.0,0.0,0.0,-3.884,-3.7567,-3.6817,-3.6817,-3.6177,-3.5485,-3.4833,-3.5046,-3.476,-3.3964,-3.3515,-3.3577,-3.4104,-3.4104,-3.4432,-3.4955,-3.4781,-3.4476,-3.407,-3.3948,-3.3667,-3.3312,-3.3437,-3.3507,-3.3507,-3.3646,-3.41,-3.4747,-3.5253,-3.5911,-3.6576,-3.7408,-3.7661,-3.7728,-3.8084,-3.8202,-3.8202,-3.8202,-3.8202,-3.824,-3.8449,-3.8899,-3.9175,-3.862,-3.9305,-3.9824,-3.873,-3.8752,-3.8863,-3.83,-3.8202,-3.8202,-3.8202,-3.8202,-3.8202,-3.8202,-3.8202,-3.8202,-3.8202,-3.8202,-3.8202,-3.8202,-3.8202,-3.8202,-3.8202,-3.8202,-3.8202,-3.8202,-3.8202,-3.8202,-3.8202,-3.8202,-3.8202,-3.8202,-3.8202,-3.8202,-3.8202,-3.8202,-3.8202,-3.8202,-3.8202,-3.8202,-1.7922,-2.0245,0.0,-2.3712,-2.6195,0.0,0.0,0.0,0.0,0.0,0.0,0.0,0.0,0.0,0.0,0.0,0.0,0.0,0.0,0.0,0.0,0.0,0.0,0.0,0.0,0.0,0.0,0.0,0.0,0.0,-3.745,-3.6225,-3.5504,-3.5504,-3.4857,-3.4385,-3.4137,-3.385,-3.3585,-3.3333,-3.329,-3.3577,-3.4104,-3.4104,-3.439,-3.4902,-3.4356,-3.4153,-3.4051,-3.3542,-3.3326,-3.3347,-3.3859,-3.4051,-3.4119,-3.461,-3.5337,-3.5931,-3.5481,-3.5878,-3.6618,-3.6945,-3.7051,-3.7189,-3.7953,-3.8202,-3.8202,-3.8202,-3.8202,-3.8375,-3.9066,-3.9284,-3.9269,-3.9233,-3.9305,-3.9341,-3.9284,-3.8716,-3.824,-3.8202,-3.8202,-3.8202,-3.8202,-3.8202,-3.8202,-3.8202,-3.8202,-3.8202,-3.8202,-3.8202,-3.8202,-3.8202,-3.8202,-3.8202,-3.8202,-3.8202,-3.8202,-3.8202,-3.8202,-3.8202,-3.8202,-3.8202,-3.8202,-3.8202,-3.8202,-3.8202,-3.8202,-3.8202,-3.8202,-3.8202,-3.8202,-3.8202,-1.7184,0.0,0.0,-2.2586,-2.4964,-2.7354,0.0,0.0,0.0,0.0,0.0,0.0,0.0,0.0,0.0,0.0,0.0,0.0,0.0,0.0,0.0,0.0,0.0,0.0,0.0,0.0,0.0,0.0,0.0,0.0,-3.5537,-3.5033,-3.4578,-3.4189,-3.3457,-3.3087,-3.32,-3.3338,-3.3542,-3.3825,-3.3825,-3.4254,-3.5121,-3.5121,-3.5219,-3.5382,-3.4843,-3.4409,-3.4085,-3.3894,-3.3825,-3.3825,-3.4016,-3.4308,-3.4643,-3.481,-3.509,-3.5322,-3.5307,-3.5578,-3.6003,-3.6266,-3.6447,-3.6584,-3.6874,-3.6983,-3.6983,-3.6983,-3.6983,-3.7056,-3.7329,-3.7351,-3.7351,-3.7351,-3.7181,-3.7049,-3.7328,-3.7806,-3.8202,-3.8202,-3.8202,-3.8202,-3.8202,-3.8202,-3.8202,-3.8202,-3.8202,-3.8202,-3.8202,-3.8202,-3.8202,-3.8202,-3.8202,-3.8202,-3.8202,-3.8202,-3.8202,-3.8202,-3.8202,-3.8202,-3.8202,-3.8202,-3.8202,-3.8202,-3.8202,-3.8202,-3.8202,-3.8202,-3.8202,-3.8202,-3.8202,-3.8202,-1.6366,-1.8009,-2.0076,0.0,0.0,-2.5222,0.0,0.0,0.0,0.0,0.0,0.0,0.0,0.0,0.0,0.0,0.0,0.0,0.0,0.0,0.0,0.0,0.0,0.0,0.0,0.0,0.0,0.0,0.0,0.0,-3.4163,-3.389,-3.3545,-3.3099,-3.2515,-3.2248,-3.2344,-3.2968,-3.3437,-3.3816,-3.4187,-3.4843,-3.5688,-3.5512,-3.5415,-3.5382,-3.4843,-3.4442,-3.4104,-3.4104,-3.3982,-3.3894,-3.4423,-3.4743,-3.4942,-3.5317,-3.5317,-3.518,-3.5242,-3.5249,-3.5263,-3.5588,-3.5804,-3.5954,-3.6207,-3.6301,-3.6301,-3.6301,-3.6301,-3.6301,-3.6301,-3.6301,-3.6301,-3.6301,-3.6098,-3.5967,-3.6243,-3.7143,-3.7897,-3.7897,-3.8072,-3.8202,-3.8202,-3.8202,-3.8202,-3.8202,-3.8202,-3.8202,-3.8202,-3.8202,-3.8202,-3.8202,-3.8202,-3.8202,-3.8202,-3.8202,-3.8202,-3.8202,-3.8202,-3.8202,-3.8202,-3.8202,-3.8202,-3.8202,-3.8202,-3.8202,-3.8202,-3.8202,-3.8202,-3.8202,-3.8202,-3.8202,0.0,0.0,0.0,0.0,0.0,0.0,0.0,0.0,0.0,0.0,0.0,0.0,0.0,0.0,0.0,0.0,0.0,0.0,0.0,0.0,0.0,0.0,0.0,0.0,0.0,0.0,0.0,0.0,0.0,-3.2661,-3.338,-3.2773,-3.2359,-3.223,-3.2051,-3.1889,-3.1678,-3.2682,-3.3196,-3.3196,-3.4354,-3.519,-3.5689,-3.5172,-3.4924,-3.4876,-3.4341,-3.4104,-3.4085,-3.4085,-3.3791,-3.3521,-3.5055,-3.535,-3.5041,-3.6085,-3.6116,-3.5623,-3.5299,-3.4854,-3.4482,-3.4917,-3.507,-3.5235,-3.6033,-3.6243,-3.6243,-3.6243,-3.6243,-3.6243,-3.6243,-3.6243,-3.6243,-3.6243,-3.6243,-3.6243,-3.6243,-3.678,-3.7259,-3.7302,-3.7781,-3.8188,-3.8202,-3.8202,-3.8202,-3.8202,-3.8202,-3.8202,-3.8202,-3.8202,-3.8202,-3.8202,-3.8202,-3.8202,-3.8202,-3.8202,-3.8202,-3.8202,-3.8202,-3.8202,-3.8202,-3.8202,-3.8202,-3.8202,-3.8202,-3.8202,-3.8202,-3.8202,-3.8202,-3.8202,-3.8202,-3.8202,-1.5864,0.0,0.0,0.0,0.0,0.0,0.0,0.0,0.0,0.0,0.0,0.0,0.0,0.0,0.0,0.0,0.0,0.0,0.0,0.0,0.0,0.0,0.0,0.0,0.0,0.0,0.0,0.0,-3.1601,-3.1656,-3.1408,-3.109,-3.0828,-3.0719,-3.0973,-3.1041,-3.0833,-3.1925,-3.2648,-3.305,-3.4207,-3.5042,-3.5585,-3.5903,-3.5608,-3.4876,-3.4743,-3.4221,-3.3507,-3.3507,-3.3908,-3.4457,-3.4509,-3.4924,-3.5479,-3.5382,-3.5317,-3.5267,-3.4802,-3.4668,-3.4731,-3.4466,-3.449,-3.4636,-3.4859,-3.4936,-3.4936,-3.4936,-3.4936,-3.4936,-3.4936,-3.4936,-3.4936,-3.4936,-3.4936,-3.4936,-3.4936,-3.5444,-3.6185,-3.7128,-3.7433,-3.7694,-3.813,-3.8202,-3.8202,-3.8202,-3.8202,-3.8202,-3.8202,-3.8202,-3.8202,-3.8202,-3.8202,-3.8202,-3.8202,-3.8202,-3.8202,-3.8202,-3.8202,-3.8202,-3.8202,-3.8202,-3.8202,-3.8202,-3.8202,-3.8202,-3.8202,-3.8202,-3.8202,-3.8202,-3.8202,-3.8202,-1.6462,-1.733,-1.8599,-1.8968,0.0,0.0,0.0,-2.2332,0.0,0.0,0.0,0.0,0.0,0.0,0.0,0.0,0.0,0.0,0.0,0.0,0.0,0.0,0.0,0.0,0.0,0.0,0.0,0.0,-3.0132,-3.0292,-3.019,-3.0027,-2.9962,-3.0111,-3.0284,-3.0295,-3.0136,-3.1444,-3.2251,-3.2592,-3.3969,-3.4821,-3.5171,-3.5553,-3.5321,-3.4576,-3.4576,-3.4099,-3.329,-3.329,-3.3681,-3.4269,-3.4375,-3.4677,-3.5008,-3.4942,-3.4824,-3.4739,-3.4582,-3.4515,-3.4433,-3.4264,-3.4312,-3.4414,-3.4414,-3.4414,-3.4414,-3.4414,-3.4414,-3.4414,-3.4414,-3.4414,-3.4414,-3.4414,-3.4414,-3.4414,-3.4414,-3.4704,-3.5305,-3.6301,-3.6707,-3.707,-3.7607,-3.7535,-3.7418,-3.7418,-3.7564,-3.7825,-3.8159,-3.8202,-3.8202,-3.8202,-3.8202,-3.8202,-3.8202,-3.8202,-3.8202,-3.8202,-3.8202,-3.8202,-3.8202,-3.8202,-3.8202,-3.8202,-3.8202,-3.8202,-3.8202,-3.8202,-3.8202,-3.8202,-3.8202,-3.8202,-1.7153,-1.7738,-1.8775,-1.9831,0.0,0.0,-2.175,-2.127,0.0,0.0,0.0,0.0,0.0,0.0,0.0,0.0,0.0,0.0,0.0,0.0,0.0,0.0,0.0,0.0,0.0,0.0,-2.8709,-2.8709,-2.8709,-2.8927,-2.9465,-2.9333,-2.9489,-2.9952,-2.9785,-2.9659,-2.9602,-3.1119,-3.1883,-3.1914,-3.3589,-3.4407,-3.4482,-3.4633,-3.4421,-3.4018,-3.4075,-3.3791,-3.329,-3.329,-3.3361,-3.3486,-3.4356,-3.4476,-3.4138,-3.4591,-3.4457,-3.4133,-3.4515,-3.4327,-3.3985,-3.4312,-3.4414,-3.4414,-3.4414,-3.4414,-3.4414,-3.4414,-3.4414,-3.4414,-3.4414,-3.4414,-3.4414,-3.4414,-3.4414,-3.4414,-3.4414,-3.4414,-3.4588,-3.5174,-3.5764,-3.6344,-3.6838,-3.6577,-3.6301,-3.6301,-3.6649,-3.7201,-3.7999,-3.8101,-3.813,-3.8188,-3.8202,-3.8202,-3.8202,-3.8202,-3.8202,-3.8202,-3.8202,-3.8202,-3.8202,-3.8202,-3.8202,-3.8202,-3.8202,-3.8202,-3.8202,-3.8202,-3.8202,-3.8202,-3.8202,-3.8202,-1.7726,-1.8133,-1.8652,-1.8257,0.0,0.0,-1.9547,-1.987,0.0,0.0,0.0,0.0,0.0,0.0,0.0,0.0,0.0,0.0,0.0,0.0,0.0,0.0,0.0,0.0,0.0,0.0,-2.8709,-2.8709,-2.8709,-2.8767,-2.8855,-2.8598,-2.8698,-2.9281,-2.904,-2.9141,-2.9602,-3.0654,-3.1191,-3.122,-3.2845,-3.3429,-3.314,-3.4196,-3.4231,-3.3393,-3.3902,-3.3791,-3.329,-3.329,-3.3542,-3.3914,-3.3716,-3.3791,-3.4085,-3.3908,-3.3902,-3.3985,-3.4128,-3.423,-3.4312,-3.438,-3.4414,-3.4414,-3.4414,-3.4414,-3.4414,-3.4414,-3.4414,-3.4414,-3.4414,-3.4414,-3.4414,-3.4414,-3.4414,-3.4414,-3.4414,-3.4414,-3.4443,-3.4574,-3.5111,-3.577,-3.6344,-3.6359,-3.6301,-3.6301,-3.6388,-3.6693,-3.7404,-3.7491,-3.7665,-3.8144,-3.8202,-3.8202,-3.8202,-3.8202,-3.8202,-3.8202,-3.8202,-3.8202,-3.8202,-3.8202,-3.8202,-3.8202,-3.8202,-3.8202,-3.8202,-3.8202,-3.8202,-3.8202,-3.8202,-3.8202,-1.8193,-1.839,0.0,-1.9037,0.0,0.0,0.0,0.0,-1.9732,0.0,0.0,0.0,0.0,0.0,0.0,0.0,0.0,0.0,0.0,0.0,0.0,0.0,0.0,0.0,0.0,0.0,-2.7401,-2.7735,-2.7764,-2.784,-2.8104,-2.7881,-2.7997,-2.8523,-2.8374,-2.8394,-2.8689,-2.9929,-3.0542,-3.0557,-3.1905,-3.2459,-3.2318,-3.2743,-3.2739,-3.2397,-3.301,-3.3109,-3.289,-3.3164,-3.3437,-3.3667,-3.3417,-3.3472,-3.3667,-3.3521,-3.357,-3.3779,-3.3951,-3.4108,-3.4264,-3.438,-3.4414,-3.4414,-3.4414,-3.4414,-3.4414,-3.4414,-3.4414,-3.4414,-3.4414,-3.4414,-3.4414,-3.4414,-3.4414,-3.4414,-3.4414,-3.4414,-3.4414,-3.4414,-3.4675,-3.4994,-3.5314,-3.5357,-3.5357,-3.5357,-3.5357,-3.5633,-3.6402,-3.6489,-3.6693,-3.7201,-3.7259,-3.7259,-3.7259,-3.7564,-3.7752,-3.7752,-3.8028,-3.8202,-3.8202,-3.8202,-3.8202,-3.8202,-3.8202,-3.8202,-3.8202,-3.8202,-3.8202,-3.8202,-3.8202,-3.8202,0.0,0.0,0.0,0.0,0.0,-1.9661,0.0,0.0,0.0,-2.0506,0.0,0.0,0.0,0.0,0.0,0.0,0.0,0.0,0.0,0.0,0.0,0.0,0.0,0.0,0.0,0.0,-2.5821,-2.6373,-2.6442,-2.664,-2.7101,-2.7108,-2.7313,-2.7797,-2.7666,-2.7679,-2.7805,-2.9117,-2.9852,-2.9985,-3.0932,-3.147,-3.1598,-3.1315,-3.1247,-3.1345,-3.1963,-3.23,-3.244,-3.2946,-3.3178,-3.329,-3.329,-3.3326,-3.3361,-3.3396,-3.3536,-3.3744,-3.3917,-3.4088,-3.4162,-3.4346,-3.4414,-3.4414,-3.4414,-3.4414,-3.4414,-3.4414,-3.4414,-3.4414,-3.4414,-3.4414,-3.4414,-3.4414,-3.4414,-3.4414,-3.4414,-3.4414,-3.4414,-3.4414,-3.4414,-3.4414,-3.4414,-3.4414,-3.4414,-3.4414,-3.4414,-3.4704,-3.5552,-3.5654,-3.5793,-3.6257,-3.6301,-3.6301,-3.6301,-3.6809,-3.7172,-3.7302,-3.7767,-3.8086,-3.8202,-3.8202,-3.8202,-3.8202,-3.8202,-3.8202,-3.8202,-3.8202,-3.8202,-3.8202,-3.8202,-3.8202,0.0,0.0,0.0,0.0,-2.0423,0.0,0.0,0.0,-1.9922,-1.9003,0.0,0.0,0.0,0.0,0.0,0.0,0.0,0.0,0.0,0.0,0.0,0.0,0.0,0.0,0.0,0.0,0.0,-2.5027,-2.5081,-2.5336,-2.5805,-2.6208,-2.6617,-2.7103,-2.6976,-2.72,-2.7791,-2.8383,-2.8944,-2.9493,-3.0015,-3.0338,-3.0502,-3.0972,-3.0991,-3.0638,-3.1316,-3.1907,-3.2412,-3.2483,-3.2834,-3.329,-3.329,-3.3396,-3.3605,-3.3793,-3.3902,-3.4059,-3.4278,-3.4346,-3.438,-3.438,-3.4414,-3.4414,-3.4414,-3.4414,-3.4414,-3.4414,-3.4414,-3.4414,-3.4414,-3.4414,-3.4414,-3.4414,-3.4414,-3.4414,-3.4414,-3.4414,-3.4414,-3.4414,-3.4414,-3.4414,-3.4414,-3.4414,-3.4414,-3.4414,-3.4414,-3.4646,-3.5348,-3.5436,-3.5668,-3.6243,-3.6301,-3.6301,-3.6301,-3.6373,-3.6678,-3.7273,-3.7375,-3.7651,-3.8188,-3.8202,-3.8202,-3.8202,-3.8202,-3.8202,-3.8202,-3.8202,-3.8202,-3.8202,-3.8202,-3.8202,0.0,0.0,0.0,0.0,0.0,0.0,-1.9374,0.0,-1.936,0.0,0.0,0.0,0.0,0.0,0.0,0.0,0.0,0.0,0.0,0.0,0.0,0.0,0.0,0.0,0.0,0.0,0.0,0.0,0.0,-2.4552,-2.5329,-2.555,-2.5897,-2.6341,-2.6314,-2.6413,-2.668,-2.7496,-2.8251,-2.8872,-2.9435,-2.9914,-3.0296,-3.0292,-3.0171,-3.0024,-3.0656,-3.1078,-3.134,-3.2103,-3.2553,-3.282,-3.329,-3.3536,-3.3605,-3.3827,-3.3971,-3.4128,-3.4196,-3.4312,-3.4414,-3.4414,-3.4414,-3.4414,-3.4414,-3.4414,-3.4414,-3.4414,-3.4414,-3.4414,-3.4414,-3.4414,-3.4414,-3.4414,-3.4414,-3.4414,-3.4414,-3.4414,-3.4414,-3.4414,-3.4414,-3.4414,-3.4414,-3.4414,-3.4414,-3.4414,-3.4414,-3.4501,-3.4777,-3.482,-3.4907,-3.5183,-3.5212,-3.5212,-3.5212,-3.5546,-3.588,-3.6191,-3.6881,-3.7578,-3.8188,-3.8202,-3.8202,-3.8202,-3.8202,-3.8202,-3.8202,-3.8202,-3.8202,-3.8202,-3.8202,-3.8202,-1.9071,0.0,0.0,0.0,0.0,0.0,0.0,0.0,0.0,0.0,0.0,0.0,0.0,0.0,-1.8142,-1.7399,0.0,0.0,0.0,0.0,0.0,0.0,0.0,0.0,0.0,0.0,0.0,0.0,0.0,0.0,-2.462,-2.4836,-2.5166,-2.5653,-2.5809,-2.5893,-2.5893,-2.6673,-2.7395,-2.8039,-2.867,-2.9285,-2.9856,-2.9673,-2.9602,-2.9631,-3.008,-3.0343,-3.0568,-3.1513,-3.1991,-3.225,-3.3075,-3.3405,-3.3433,-3.3811,-3.404,-3.4162,-3.4162,-3.4264,-3.4414,-3.4414,-3.4414,-3.4414,-3.4414,-3.4414,-3.4414,-3.4414,-3.4414,-3.4414,-3.4414,-3.4414,-3.4414,-3.4414,-3.4414,-3.4414,-3.4414,-3.4414,-3.4414,-3.4414,-3.4414,-3.4414,-3.4414,-3.4414,-3.4414,-3.4414,-3.4414,-3.4332,-3.4113,-3.4264,-3.4312,-3.4079,-3.4264,-3.4414,-3.4414,-3.4835,-3.5203,-3.5392,-3.6591,-3.7506,-3.7941,-3.8115,-3.8202,-3.8202,-3.8202,-3.8202,-3.8202,-3.8202,-3.8202,-3.8202,-3.8202,-3.8202,0.0,0.0,0.0,-1.9359,0.0,0.0,0.0,0.0,-2.0007,0.0,0.0,0.0,0.0,-1.7828,-1.7686,-1.7267,-1.7652,0.0,0.0,0.0,0.0,0.0,0.0,0.0,0.0,0.0,0.0,0.0,0.0,0.0,-2.3263,-2.3982,-2.453,-2.5021,-2.5584,-2.5893,-2.5893,-2.5935,-2.6258,-2.6877,-2.7524,-2.8157,-2.8776,-2.9336,-2.9602,-2.9602,-2.9631,-2.9968,-3.0498,-3.0526,-3.0951,-3.1617,-3.2577,-3.2906,-3.3011,-3.3796,-3.423,-3.438,-3.438,-3.438,-3.4414,-3.4414,-3.4414,-3.4414,-3.4414,-3.4414,-3.4414,-3.4414,-3.4414,-3.4414,-3.4414,-3.4414,-3.4414,-3.4414,-3.4414,-3.4414,-3.4414,-3.4414,-3.4414,-3.4414,-3.4414,-3.4414,-3.4414,-3.4414,-3.4414,-3.4414,-3.4414,-3.4113,-3.3332,-3.3928,-3.4113,-3.3332,-3.3928,-3.4414,-3.4414,-3.4428,-3.4704,-3.5363,-3.6591,-3.7317,-3.7331,-3.7897,-3.8202,-3.8202,-3.8202,-3.8202,-3.8202,-3.8202,-3.8202,-3.8202,-3.8202,-3.8202,0.0,0.0,-2.0811,-2.0533,0.0,0.0,0.0,0.0,0.0,0.0,0.0,0.0,0.0,-1.8254,-1.8115,-1.7679,-1.7738,-1.7463,0.0,0.0,0.0,0.0,0.0,0.0,0.0,0.0,0.0,0.0,0.0,0.0,0.0,-2.28,-2.3368,-2.4359,-2.4992,-2.5486,-2.5893,-2.5893,-2.6202,-2.6807,-2.7031,-2.7692,-2.8703,-2.89,-2.9223,-2.9602,-2.9602,-2.9729,-2.9954,-3.0329,-3.0721,-3.1146,-3.2397,-3.2978,-3.3197,-3.3999,-3.4346,-3.4414,-3.4414,-3.4414,-3.4414,-3.4414,-3.4414,-3.4414,-3.4414,-3.4414,-3.4414,-3.4414,-3.4414,-3.4414,-3.4414,-3.4414,-3.4414,-3.4414,-3.4414,-3.4414,-3.4414,-3.4414,-3.4414,-3.4414,-3.4414,-3.4414,-3.4414,-3.4414,-3.4414,-3.4414,-3.3928,-3.352,-3.3227,-3.3017,-3.2946,-3.3192,-3.3451,-3.3811,-3.4332,-3.4414,-3.469,-3.5363,-3.5813,-3.6402,-3.7273,-3.7506,-3.7796,-3.8188,-3.8202,-3.8202,-3.8202,-3.8202,-3.8202,-3.8202,-3.8202,-3.8202,-1.9695,-2.0347,0.0,-2.0981,-2.0597,0.0,-1.951,0.0,0.0,0.0,0.0,0.0,0.0,-1.8792,-1.8466,-1.8377,-1.8194,-1.7552,0.0,-1.5823,0.0,0.0,0.0,0.0,0.0,0.0,-1.9461,-2.0394,0.0,0.0,0.0,0.0,-2.2587,-2.3389,-2.4444,-2.5242,-2.5797,-2.601,-2.6295,-2.6691,-2.6918,-2.7371,-2.8029,-2.8254,-2.8703,-2.9279,-2.9279,-2.9406,-2.9645,-3.0038,-3.0288,-3.0577,-3.176,-3.2481,-3.2994,-3.4028,-3.4414,-3.4414,-3.4414,-3.4414,-3.4414,-3.4414,-3.4414,-3.4414,-3.4414,-3.4414,-3.4414,-3.4414,-3.4414,-3.4414,-3.4414,-3.4414,-3.4414,-3.4414,-3.4414,-3.4414,-3.4414,-3.4414,-3.4414,-3.4414,-3.4414,-3.4414,-3.4414,-3.4147,-3.3962,-3.3962,-3.352,-3.3003,-3.2456,-3.2218,-3.229,-3.2755,-3.3038,-3.352,-3.4332,-3.4414,-3.4588,-3.5029,-3.5276,-3.5872,-3.691,-3.7186,-3.7593,-3.8188,-3.8202,-3.8202,-3.8202,-3.8202,-3.8202,-3.8202,-3.8202,-3.8202]}]]